[[{"header":{"parameterUnit":"m.s-1","parameterCategory":1,"la1":30.6,"la2":29.2853,"lo1":-89.7004,"lo2":-87.6739,"dy":0.0162,"dx":0.0183,"nx":112,"ny":82,"refTime":"2023-10-12T00:00:00:Z","depth":0,"parameterNumber":2,"parameterNumberName":"U-component_of_WINDS"},"data":[0.0,0.0,0.0,0.0,0.0,0.0,0.0,0.0,0.0,0.0,0.0,0.0,0.0,0.0,0.0,0.0,0.0,0.0,0.0,0.0,0.0,0.0,0.0,0.0,0.0,0.0,0.0,0.0,0.0,0.0,0.0,0.0,0.0,0.0,0.0,0.0,0.0,0.0,0.0,0.0,0.0,0.0,0.0,0.0,0.0,0.0,0.0,0.0,0.0,0.0,0.0,0.0,0.0,0.0,0.0,0.0,0.0,0.0,0.0,0.0,0.0,0.0,0.0,0.0,0.0,0.0,0.0,0.0,0.0,0.0,0.0,0.0,0.0,0.0,0.0,0.0,0.0,0.0,0.0,0.0,0.0,0.0,0.0,0.0,0.0,0.0,0.0,0.0,0.0,0.0,0.0,5.9426,6.4255,6.6911,6.629,6.5704,6.3634,5.9633,0.0,0.0,0.0,0.0,0.0,0.0,0.0,0.0,0.0,0.0,0.0,0.0,0.0,0.0,0.0,0.0,0.0,0.0,0.0,0.0,0.0,0.0,0.0,0.0,0.0,0.0,0.0,0.0,0.0,0.0,0.0,0.0,0.0,0.0,0.0,0.0,0.0,0.0,0.0,0.0,0.0,0.0,0.0,0.0,0.0,0.0,0.0,0.0,0.0,0.0,0.0,0.0,0.0,0.0,0.0,0.0,0.0,0.0,0.0,0.0,0.0,0.0,0.0,0.0,0.0,0.0,0.0,0.0,0.0,0.0,0.0,0.0,0.0,0.0,0.0,0.0,0.0,0.0,0.0,0.0,0.0,0.0,0.0,0.0,0.0,0.0,0.0,0.0,0.0,0.0,0.0,0.0,0.0,0.0,0.0,0.0,0.0,0.0,0.0,0.0,0.0,0.0,0.0,0.0,5.7397,6.3255,6.629,6.7876,6.7773,6.4841,6.2427,6.1047,0.0,0.0,0.0,0.0,0.0,0.0,0.0,0.0,0.0,0.0,0.0,0.0,0.0,0.0,0.0,0.0,0.0,0.0,0.0,0.0,0.0,0.0,0.0,0.0,0.0,0.0,0.0,0.0,0.0,0.0,0.0,0.0,0.0,0.0,0.0,0.0,0.0,0.0,0.0,0.0,0.0,0.0,0.0,0.0,0.0,0.0,0.0,0.0,0.0,0.0,0.0,0.0,0.0,0.0,0.0,0.0,0.0,0.0,0.0,0.0,0.0,0.0,0.0,0.0,0.0,0.0,0.0,0.0,0.0,0.0,0.0,0.0,0.0,0.0,0.0,0.0,0.0,0.0,0.0,0.0,0.0,0.0,0.0,0.0,0.0,0.0,0.0,0.0,0.0,0.0,0.0,0.0,0.0,0.0,0.0,0.0,0.0,0.0,0.0,0.0,0.0,0.0,0.0,5.7155,6.0322,6.4876,6.698,6.8083,6.8083,6.5014,6.2565,6.1392,5.8806,0.0,0.0,0.0,0.0,0.0,0.0,0.0,0.0,0.0,0.0,0.0,0.0,0.0,0.0,0.0,0.0,0.0,0.0,0.0,0.0,0.0,0.0,0.0,0.0,0.0,0.0,0.0,0.0,0.0,0.0,0.0,0.0,0.0,0.0,0.0,0.0,0.0,0.0,0.0,0.0,0.0,0.0,0.0,0.0,0.0,0.0,0.0,0.0,0.0,0.0,0.0,0.0,0.0,0.0,0.0,0.0,0.0,0.0,0.0,0.0,0.0,0.0,0.0,0.0,0.0,0.0,0.0,0.0,0.0,0.0,0.0,0.0,0.0,0.0,0.0,0.0,0.0,0.0,0.0,0.0,0.0,0.0,0.0,0.0,0.0,0.0,0.0,0.0,0.0,0.0,0.0,0.0,0.0,0.0,0.0,0.0,0.0,0.0,0.0,0.0,0.0,0.0,5.9976,6.2599,6.6048,6.7428,6.8014,6.7842,6.5083,6.2668,6.1151,5.8185,0.0,0.0,0.0,0.0,0.0,0.0,0.0,0.0,0.0,0.0,0.0,0.0,0.0,0.0,0.0,0.0,0.0,0.0,0.0,0.0,0.0,0.0,0.0,0.0,0.0,0.0,0.0,0.0,0.0,0.0,0.0,0.0,0.0,0.0,0.0,0.0,0.0,0.0,0.0,0.0,0.0,0.0,0.0,0.0,0.0,0.0,0.0,0.0,0.0,0.0,0.0,0.0,0.0,0.0,0.0,0.0,0.0,0.0,0.0,0.0,0.0,0.0,0.0,0.0,0.0,0.0,0.0,0.0,0.0,0.0,0.0,0.0,0.0,0.0,0.0,0.0,0.0,0.0,0.0,0.0,0.0,0.0,0.0,0.0,0.0,0.0,0.0,0.0,0.0,0.0,0.0,0.0,0.0,0.0,0.0,0.0,0.0,0.0,0.0,0.0,0.0,0.0,6.0701,6.3013,6.7463,6.8049,6.7807,6.7118,6.4289,6.191,6.0358,5.7391,0.0,0.0,0.0,0.0,0.0,0.0,0.0,0.0,0.0,0.0,0.0,0.0,0.0,0.0,0.0,0.0,0.0,0.0,0.0,0.0,0.0,0.0,0.0,0.0,0.0,0.0,0.0,0.0,0.0,0.0,0.0,0.0,0.0,0.0,0.0,0.0,0.0,0.0,0.0,0.0,0.0,0.0,0.0,0.0,0.0,0.0,0.0,0.0,0.0,0.0,0.0,0.0,0.0,0.0,0.0,0.0,0.0,0.0,0.0,0.0,0.0,0.0,0.0,0.0,0.0,0.0,0.0,0.0,0.0,0.0,0.0,0.0,0.0,0.0,0.0,0.0,0.0,0.0,0.0,0.0,0.0,0.0,0.0,0.0,0.0,0.0,0.0,0.0,0.0,0.0,0.0,0.0,0.0,0.0,0.0,0.0,0.0,0.0,0.0,0.0,0.0,0.0,6.1254,6.36,0.0,6.8083,6.7807,6.7049,6.422,6.1841,6.0289,0.0,0.0,0.0,0.0,0.0,0.0,0.0,0.0,0.0,0.0,0.0,0.0,0.0,0.0,0.0,0.0,0.0,0.0,0.0,0.0,0.0,0.0,0.0,0.0,0.0,0.0,0.0,0.0,0.0,0.0,0.0,0.0,0.0,0.0,0.0,0.0,0.0,0.0,0.0,0.0,0.0,0.0,0.0,0.0,0.0,0.0,0.0,0.0,0.0,0.0,0.0,0.0,0.0,0.0,0.0,0.0,0.0,0.0,0.0,0.0,0.0,0.0,0.0,0.0,0.0,0.0,0.0,0.0,0.0,0.0,0.0,0.0,0.0,0.0,0.0,0.0,0.0,0.0,0.0,0.0,0.0,0.0,0.0,0.0,0.0,0.0,0.0,0.0,0.0,0.0,0.0,0.0,0.0,0.0,0.0,0.0,0.0,0.0,0.0,0.0,0.0,0.0,5.9633,6.153,6.3841,0.0,6.7945,6.7704,6.6704,6.4062,6.1779,6.0218,0.0,0.0,0.0,0.0,0.0,0.0,0.0,0.0,0.0,0.0,0.0,0.0,0.0,0.0,0.0,0.0,0.0,0.0,0.0,0.0,0.0,0.0,0.0,0.0,0.0,0.0,0.0,0.0,0.0,0.0,0.0,0.0,0.0,0.0,0.0,0.0,0.0,0.0,0.0,0.0,0.0,0.0,0.0,0.0,0.0,0.0,0.0,0.0,0.0,0.0,0.0,0.0,0.0,0.0,0.0,0.0,0.0,0.0,0.0,0.0,0.0,0.0,0.0,0.0,0.0,0.0,0.0,0.0,0.0,0.0,0.0,0.0,0.0,0.0,0.0,0.0,0.0,0.0,0.0,0.0,0.0,0.0,0.0,0.0,0.0,0.0,0.0,0.0,0.0,0.0,0.0,0.0,0.0,0.0,0.0,0.0,0.0,0.0,0.0,0.0,0.0,0.0,5.9702,6.153,6.3634,6.6669,6.7669,6.7497,6.6014,6.3659,6.1586,0.0,0.0,0.0,0.0,0.0,0.0,0.0,0.0,0.0,0.0,0.0,0.0,0.0,0.0,0.0,0.0,0.0,0.0,0.0,0.0,0.0,0.0,0.0,0.0,0.0,0.0,0.0,0.0,0.0,0.0,0.0,0.0,0.0,0.0,0.0,0.0,0.0,0.0,0.0,0.0,0.0,0.0,0.0,0.0,0.0,0.0,0.0,0.0,0.0,0.0,0.0,0.0,0.0,0.0,0.0,0.0,0.0,0.0,0.0,0.0,0.0,0.0,0.0,0.0,0.0,0.0,0.0,0.0,0.0,0.0,0.0,0.0,0.0,0.0,0.0,0.0,0.0,0.0,0.0,0.0,0.0,0.0,0.0,0.0,0.0,0.0,0.0,0.0,0.0,0.0,0.0,0.0,0.0,0.0,0.0,0.0,0.0,0.0,0.0,0.0,0.0,0.0,0.0,5.9771,6.1979,6.422,6.6738,6.7669,6.7696,6.6659,6.4393,6.2345,6.0696,0.0,0.0,0.0,0.0,0.0,0.0,0.0,0.0,0.0,0.0,0.0,0.0,0.0,0.0,0.0,0.0,0.0,0.0,0.0,0.0,0.0,0.0,0.0,0.0,0.0,0.0,0.0,0.0,0.0,0.0,0.0,0.0,0.0,0.0,0.0,0.0,0.0,0.0,0.0,0.0,0.0,0.0,0.0,0.0,0.0,0.0,0.0,0.0,0.0,0.0,0.0,0.0,0.0,0.0,0.0,0.0,0.0,0.0,0.0,0.0,0.0,0.0,0.0,0.0,0.0,0.0,0.0,0.0,0.0,0.0,0.0,0.0,0.0,0.0,0.0,0.0,0.0,0.0,0.0,0.0,0.0,0.0,0.0,0.0,0.0,0.0,0.0,0.0,0.0,0.0,0.0,0.0,0.0,0.0,0.0,0.0,0.0,0.0,0.0,0.0,0.0,0.0,5.9426,6.1979,6.4358,6.6324,6.7496,6.7771,6.6952,6.4968,6.3111,6.1839,0.0,0.0,0.0,0.0,0.0,0.0,0.0,0.0,0.0,0.0,0.0,0.0,0.0,0.0,0.0,0.0,0.0,0.0,0.0,0.0,0.0,0.0,0.0,0.0,0.0,0.0,0.0,0.0,0.0,0.0,0.0,0.0,0.0,0.0,0.0,0.0,0.0,0.0,0.0,0.0,0.0,0.0,0.0,0.0,0.0,0.0,0.0,0.0,0.0,0.0,0.0,0.0,0.0,0.0,0.0,0.0,0.0,0.0,0.0,0.0,0.0,0.0,0.0,0.0,0.0,0.0,0.0,0.0,0.0,0.0,0.0,0.0,0.0,0.0,0.0,0.0,0.0,0.0,0.0,0.0,0.0,0.0,0.0,0.0,0.0,0.0,0.0,0.0,0.0,0.0,0.0,0.0,0.0,0.0,0.0,0.0,0.0,0.0,0.0,0.0,0.0,0.0,5.8941,6.1742,6.427,6.5827,6.7152,6.7692,6.7024,6.5314,6.3977,6.3184,0.0,0.0,0.0,0.0,0.0,0.0,0.0,0.0,0.0,0.0,0.0,0.0,0.0,0.0,0.0,0.0,0.0,0.0,0.0,0.0,0.0,0.0,0.0,0.0,0.0,0.0,0.0,0.0,0.0,0.0,0.0,0.0,0.0,0.0,0.0,0.0,0.0,0.0,0.0,0.0,0.0,0.0,0.0,0.0,0.0,0.0,0.0,0.0,0.0,0.0,0.0,0.0,0.0,0.0,0.0,0.0,0.0,0.0,0.0,0.0,5.7754,0.0,0.0,0.0,0.0,0.0,0.0,0.0,0.0,0.0,0.0,0.0,0.0,0.0,0.0,0.0,0.0,0.0,0.0,0.0,0.0,0.0,0.0,0.0,0.0,0.0,0.0,0.0,0.0,0.0,0.0,0.0,0.0,0.0,0.0,0.0,0.0,0.0,0.0,0.0,0.0,0.0,5.9698,6.2405,6.4852,6.6447,6.7433,6.7843,6.7635,6.6079,6.4763,6.392,0.0,0.0,0.0,0.0,0.0,0.0,0.0,0.0,0.0,0.0,0.0,0.0,0.0,0.0,0.0,0.0,0.0,0.0,0.0,0.0,0.0,0.0,0.0,0.0,0.0,0.0,0.0,0.0,0.0,0.0,0.0,0.0,0.0,0.0,0.0,0.0,0.0,0.0,0.0,0.0,0.0,0.0,0.0,0.0,0.0,0.0,0.0,0.0,0.0,0.0,0.0,0.0,0.0,0.0,0.0,0.0,0.0,0.0,0.0,0.0,0.0,5.9036,0.0,0.0,0.0,0.0,0.0,0.0,0.0,0.0,0.0,0.0,0.0,0.0,0.0,0.0,0.0,0.0,0.0,0.0,0.0,0.0,0.0,0.0,0.0,0.0,0.0,0.0,0.0,0.0,0.0,0.0,0.0,0.0,0.0,0.0,0.0,0.0,0.0,0.0,0.0,0.0,6.048,6.3534,6.5875,6.6731,6.7776,6.8238,6.7849,6.6656,6.5551,6.4751,6.3099,0.0,0.0,0.0,0.0,0.0,0.0,0.0,0.0,0.0,0.0,0.0,0.0,0.0,0.0,0.0,0.0,0.0,0.0,0.0,0.0,0.0,0.0,0.0,0.0,0.0,0.0,0.0,0.0,0.0,0.0,0.0,0.0,0.0,0.0,0.0,0.0,0.0,0.0,0.0,0.0,0.0,0.0,0.0,0.0,0.0,0.0,0.0,0.0,0.0,0.0,0.0,0.0,0.0,0.0,0.0,6.4675,6.5322,6.6276,6.7164,6.3661,6.2037,6.1931,0.0,0.0,0.0,0.0,0.0,0.0,0.0,0.0,0.0,0.0,0.0,0.0,0.0,0.0,0.0,0.0,0.0,0.0,0.0,0.0,0.0,0.0,0.0,0.0,0.0,5.8002,5.7925,0.0,0.0,0.0,0.0,0.0,0.0,0.0,0.0,0.0,0.0,0.0,0.0,6.1573,6.4804,6.7079,6.7338,6.845,6.8899,6.8246,6.7305,6.6439,6.5778,6.4016,6.2658,0.0,0.0,0.0,0.0,0.0,0.0,0.0,0.0,0.0,0.0,0.0,0.0,0.0,0.0,0.0,0.0,0.0,0.0,0.0,0.0,0.0,0.0,0.0,0.0,0.0,0.0,0.0,0.0,0.0,0.0,0.0,0.0,5.3391,5.4115,0.0,0.0,0.0,0.0,0.0,0.0,0.0,0.0,0.0,0.0,0.0,0.0,0.0,0.0,6.2845,6.4094,6.5156,6.6025,6.7303,6.8311,6.9282,7.0071,7.0108,6.9705,7.049,0.0,6.6589,6.4391,0.0,0.0,0.0,0.0,0.0,0.0,0.0,0.0,0.0,0.0,0.0,0.0,0.0,0.0,0.0,0.0,0.0,0.0,0.0,0.0,0.0,0.0,6.0225,5.9875,6.1149,6.2515,0.0,6.0017,5.7832,5.8165,0.0,0.0,0.0,0.0,0.0,0.0,0.0,0.0,6.3832,6.6078,6.8128,6.9518,6.9831,6.9924,6.9814,6.8403,6.7504,6.7393,6.5191,6.3539,6.2695,6.1777,0.0,0.0,0.0,0.0,0.0,0.0,0.0,0.0,0.0,0.0,0.0,0.0,0.0,0.0,0.0,0.0,0.0,0.0,0.0,0.0,0.0,0.0,0.0,0.0,0.0,0.0,0.0,0.0,0.0,5.3425,5.4598,5.4529,5.5288,5.546,0.0,0.0,0.0,0.0,0.0,0.0,0.0,0.0,0.0,6.418,6.4744,6.5931,6.7855,6.8924,7.0098,7.134,7.1977,7.2936,7.4184,7.4515,7.4771,7.4845,7.4625,7.4001,7.2753,6.8054,6.5375,6.4016,0.0,0.0,0.0,0.0,0.0,6.2157,6.2348,0.0,0.0,0.0,0.0,0.0,0.0,0.0,0.0,0.0,0.0,0.0,0.0,0.0,0.0,6.2344,6.2928,6.3645,6.4323,6.3243,6.1664,0.0,6.0178,6.0102,5.9349,0.0,0.0,0.0,0.0,0.0,6.4908,6.7761,6.9816,7.0073,7.0513,7.077,7.077,6.9706,6.9045,6.9045,6.721,6.5558,6.4273,6.2952,6.1741,0.0,0.0,0.0,0.0,0.0,0.0,0.0,0.0,0.0,0.0,0.0,0.0,0.0,0.0,0.0,0.0,0.0,0.0,0.0,0.0,0.0,0.0,0.0,0.0,0.0,0.0,0.0,0.0,5.4632,5.5839,5.4908,5.6418,5.6997,0.0,0.0,0.0,0.0,0.0,0.0,6.2759,6.3046,6.4924,6.8772,6.9427,7.0734,7.2826,7.345,7.4441,7.5873,7.6056,7.679,7.7965,7.8369,7.8699,7.8846,7.7818,7.7451,7.7194,7.1321,6.8091,6.6623,6.4347,6.3319,6.3135,6.3135,6.3943,6.5118,6.5705,6.5925,6.5852,6.5448,0.0,6.2057,6.1074,0.0,0.0,0.0,0.0,6.1732,6.2062,0.0,6.3892,6.4975,6.5163,6.5402,6.6353,6.6446,6.5545,0.0,6.2546,6.2412,6.0981,0.0,0.0,0.0,0.0,6.5604,6.6531,6.9352,7.1174,7.077,7.1248,7.1615,7.1615,7.0881,7.0403,7.0403,6.8898,6.7393,6.5962,6.4347,6.2952,6.1924,0.0,0.0,0.0,0.0,0.0,0.0,0.0,0.0,0.0,0.0,0.0,0.0,0.0,0.0,0.0,0.0,0.0,0.0,0.0,0.0,0.0,0.0,0.0,0.0,0.0,0.0,0.0,0.0,0.0,5.5736,5.8084,0.0,0.0,0.0,0.0,6.0818,6.2344,6.4507,6.752,6.8391,7.0519,7.4382,7.4529,7.5335,7.7011,7.7047,7.7524,7.8405,7.9176,7.958,7.9727,8.1269,8.1122,7.9764,8.0461,7.991,7.8222,7.4001,7.1762,7.0844,6.9192,6.8054,6.7393,6.7393,6.743,6.7504,6.754,6.7577,6.7687,6.8421,6.7577,6.5909,6.4332,6.3305,0.0,0.0,6.3892,6.4155,6.5037,6.6372,6.7433,6.7651,6.8742,6.9797,6.9853,6.9265,6.8,0.0,6.5689,6.5742,6.4163,0.0,6.5029,6.5066,6.6459,6.8128,6.965,7.0734,7.1578,7.2312,7.2422,7.2459,7.2459,7.1725,7.1248,7.1248,6.9743,6.8458,6.7614,6.6035,6.442,6.2768,6.1924,0.0,0.0,0.0,0.0,0.0,0.0,0.0,0.0,0.0,0.0,0.0,0.0,0.0,0.0,0.0,0.0,0.0,0.0,0.0,0.0,0.0,0.0,0.0,0.0,0.0,0.0,0.0,0.0,6.1459,6.3279,0.0,0.0,6.3801,6.4694,6.5452,6.7397,6.9909,7.3008,7.3507,7.5251,7.8736,7.9323,8.0131,8.1232,8.1746,8.215,8.248,8.2737,8.2884,8.2884,8.2957,8.2663,8.2076,8.1342,8.1269,8.1525,7.8993,7.6276,7.3523,7.2422,7.1505,7.077,7.077,7.1101,7.1541,7.1541,7.1211,7.0587,6.9302,6.8164,6.7173,6.6586,6.6182,6.5999,6.6329,6.6769,6.7266,6.7616,6.844,6.9247,6.9299,6.9741,7.011,7.011,7.0293,7.0036,6.8678,6.776,6.7063,6.6512,6.6659,6.6843,6.6843,6.8201,6.9449,7.0036,7.1248,7.2202,7.2459,7.2496,7.2716,7.323,7.2532,7.2312,7.2826,7.0844,6.9302,6.8495,6.6439,6.4787,6.3649,6.2291,6.1202,0.0,0.0,0.0,0.0,0.0,0.0,0.0,0.0,0.0,0.0,0.0,0.0,0.0,0.0,0.0,0.0,0.0,0.0,0.0,0.0,0.0,0.0,0.0,0.0,0.0,0.0,6.5287,6.62,6.8048,6.8894,6.7914,6.8862,6.985,7.0652,7.2871,7.5359,7.8002,7.8405,7.969,8.215,8.2737,8.3287,8.3801,8.4352,8.4609,8.4609,8.4866,8.4866,8.4609,8.4352,8.4058,8.3765,8.27,8.2663,8.3324,8.226,7.991,7.69,7.6056,7.5249,7.4515,7.4221,7.4478,7.4882,7.4588,7.3817,7.2606,7.0734,6.9559,6.8862,6.8568,6.8495,6.8495,6.8495,6.8898,6.9376,6.9633,7.011,7.0624,7.1174,7.1101,7.0991,7.1248,7.1505,7.1541,7.1027,6.9816,6.8752,6.8201,6.8311,6.8495,6.8495,6.9633,7.0587,7.0881,7.1835,7.2606,7.2899,7.2899,7.323,7.4037,7.3377,7.301,7.3266,7.1284,6.9633,6.8531,6.6696,6.5338,6.453,6.2828,6.1739,6.1244,0.0,0.0,0.0,0.0,0.0,0.0,0.0,0.0,0.0,0.0,0.0,0.0,0.0,0.0,0.0,0.0,0.0,0.0,0.0,0.0,0.0,0.0,0.0,6.2605,6.5914,6.8708,6.9669,7.2351,7.3543,7.2118,7.3958,7.5542,7.6313,7.8626,8.0718,8.2296,8.3141,8.3948,8.4719,8.4756,8.4756,8.4756,8.4756,8.4756,8.4756,8.5527,8.549,8.4792,8.5527,8.5453,8.4719,8.4682,8.4242,8.3581,8.3581,8.2627,8.1158,8.0241,7.9396,7.8626,7.7781,7.7451,7.7268,7.646,7.5175,7.3707,7.2899,7.2092,7.1321,7.0477,7.0257,7.0257,7.0257,7.0257,7.044,7.1211,7.1431,7.1835,7.3377,7.3193,7.2863,7.3597,7.3156,7.2606,7.2569,7.1945,7.0917,6.9339,6.9706,7.022,7.0257,7.0917,0.0,7.2459,7.2569,7.2863,7.3634,7.3744,7.4037,7.4845,7.4147,7.334,7.2569,7.0954,6.9339,6.7797,6.6953,6.6109,6.5301,6.3584,6.2274,6.1396,0.0,0.0,0.0,0.0,0.0,0.0,0.0,0.0,0.0,0.0,0.0,0.0,0.0,0.0,0.0,0.0,0.0,0.0,0.0,0.0,0.0,0.0,6.7461,6.7342,7.109,7.4676,7.672,7.8711,7.9946,8.0129,8.124,8.2039,8.226,8.3985,8.5453,8.6481,8.6775,8.7252,8.8059,8.8096,8.8096,8.8096,8.8096,8.8096,8.8096,8.8316,8.8316,8.8096,8.7729,8.7435,8.7178,8.6591,8.6554,8.6885,8.6885,8.6628,8.5967,8.3398,8.1929,8.1158,8.0938,8.0094,7.8993,7.8185,7.7598,7.7011,7.5579,7.4955,7.4625,7.3817,7.3597,7.3597,7.3597,7.3597,7.3634,7.3854,7.4368,7.4882,7.5322,7.5726,7.5909,7.5506,7.5285,7.4955,7.4368,7.4074,7.3597,7.2569,7.2569,7.2899,7.3487,7.378,0.0,7.4221,7.4258,7.4331,7.4551,7.4588,7.4661,7.4882,7.3634,7.2753,7.2496,7.044,6.9045,6.8605,6.7247,6.5852,6.4457,6.3203,6.2201,0.0,0.0,0.0,0.0,0.0,0.0,0.0,0.0,0.0,0.0,0.0,0.0,0.0,0.0,0.0,0.0,0.0,0.0,0.0,0.0,0.0,0.0,6.9828,7.3045,7.4457,7.6679,7.9176,8.1966,8.3434,8.4535,8.5343,8.6151,8.6775,8.7105,8.7692,8.85,8.9638,8.9381,8.9601,9.0408,9.0115,9.0078,9.0408,8.9748,8.9601,8.9931,8.9931,8.9748,8.9417,8.9271,8.9014,0.0,8.8206,8.8096,8.8206,8.8206,8.7802,0.0,0.0,0.0,0.0,0.0,8.2406,8.1195,8.0388,7.9653,7.8883,7.7561,7.69,7.646,7.5652,7.5652,7.5873,7.5506,7.5652,7.5909,7.5909,7.6019,7.6276,7.6974,7.6974,7.6864,7.7084,7.6864,7.6387,7.5579,0.0,0.0,7.4771,7.4441,7.4368,7.4845,7.4918,7.4918,7.4918,7.4918,7.5028,7.5395,7.5395,7.5542,7.5909,7.4735,0.0,0.0,0.0,6.8935,6.7944,6.699,0.0,0.0,0.0,6.3841,6.3035,0.0,0.0,0.0,6.0756,6.0326,0.0,0.0,0.0,0.0,0.0,0.0,0.0,0.0,0.0,0.0,0.0,0.0,0.0,0.0,0.0,0.0,7.5055,7.914,8.2406,8.2406,8.3067,8.5747,8.6958,8.7876,8.8683,8.9491,9.0262,9.0959,9.0372,9.0592,9.2024,0.0,0.0,0.0,0.0,9.1363,9.206,9.0665,9.0335,9.1033,9.1033,9.0629,8.9858,9.0555,9.0445,8.9674,8.9674,8.9271,8.861,8.861,8.7692,8.6371,8.6738,8.6444,8.571,8.5013,8.4242,0.0,0.0,0.0,0.0,7.9286,7.8479,7.7708,7.679,7.7011,7.7451,7.6717,7.7047,7.7598,7.7598,7.7121,7.7047,7.8516,7.7745,7.7047,7.8552,7.8185,7.7378,7.6644,7.6533,7.6533,7.6533,7.5689,7.5065,7.5175,7.5175,7.5175,7.5175,7.5175,7.5432,7.6166,0.0,0.0,7.7268,7.6497,7.5065,7.2899,7.1174,6.9265,6.7136,6.688,6.6769,6.6769,6.6659,6.6256,6.5448,6.5448,6.5411,6.5264,6.2668,6.1838,0.0,0.0,0.0,0.0,0.0,0.0,0.0,0.0,0.0,0.0,0.0,0.0,0.0,0.0,0.0,7.6056,7.9957,8.3361,8.6591,8.8023,8.85,8.7802,8.9638,9.1253,9.206,9.2868,9.3418,9.3565,9.3418,9.3492,9.3786,9.3675,0.0,9.3822,9.3675,9.3639,9.3822,9.3492,9.3418,9.3565,0.0,0.0,9.2391,9.2537,9.217,9.1326,9.1326,9.1253,9.1106,9.1106,9.0555,8.9417,8.6995,8.593,8.5783,8.5637,8.5049,8.4352,8.4205,8.3948,8.3434,8.1966,8.1379,8.0975,7.9507,7.9176,0.0,7.9103,7.9176,7.9323,7.9323,7.969,8.0131,8.0461,8.0277,8.0131,8.0461,7.9874,7.925,7.9103,7.9066,7.9066,7.9066,7.7304,7.6093,7.6754,7.6864,7.6864,7.6864,7.6864,7.6937,7.7084,7.7084,7.7157,7.7304,7.5983,7.4955,7.4478,7.2349,7.0881,7.0403,6.9119,6.8458,6.8458,6.7797,6.7063,6.6256,6.6256,6.5925,6.5301,6.4542,6.4343,0.0,0.0,0.0,0.0,0.0,0.0,0.0,0.0,0.0,0.0,0.0,6.5367,0.0,0.0,7.4836,7.959,8.3434,8.6518,8.8536,9.0555,9.14,9.0152,9.184,9.3565,9.4777,9.4887,9.5217,9.6025,9.5364,9.5254,9.6061,9.6098,9.6282,9.6685,9.6318,9.6098,9.6098,9.5694,9.529,9.4923,9.5327,9.485,9.3712,9.4116,9.3859,9.3051,9.3051,9.3051,9.2978,9.2134,9.1326,9.0408,8.839,8.7362,8.6958,8.6554,8.6151,8.5747,8.5343,8.5196,8.5013,8.3801,8.3398,8.3104,8.1489,8.1562,8.2039,8.1232,8.1562,8.2186,8.2186,8.1893,8.1709,8.2113,8.1893,8.1709,8.2113,8.2186,8.2076,8.1672,8.1269,8.0975,8.0975,7.9653,7.8699,7.9103,7.9176,7.9176,7.9176,7.9507,7.9617,7.9213,7.9507,7.9617,7.9213,7.69,7.5322,7.4955,7.301,7.1908,7.1908,7.1138,7.0697,7.0697,6.9926,6.9302,6.8898,6.8495,6.8091,6.7724,6.7524,6.6811,0.0,0.0,0.0,0.0,0.0,0.0,0.0,0.0,6.3759,6.6402,6.8091,7.033,7.4368,7.6974,7.969,8.3251,8.6664,8.9234,9.0225,9.2207,9.3308,9.2611,9.3859,9.5327,9.6795,9.6502,9.6759,9.8043,9.6906,9.6759,9.8043,9.8117,9.8411,9.9071,9.8484,9.8117,9.8117,9.7493,9.6832,9.6208,9.6722,9.6171,9.4777,9.529,9.507,9.4299,9.4299,9.4189,9.3969,9.2611,9.1583,9.0739,8.9968,8.916,8.8353,8.7545,8.7142,8.6921,8.6261,8.604,8.5894,8.5086,8.4829,8.4572,8.3104,8.3581,8.4315,8.303,8.3618,8.4609,8.4609,8.3654,8.281,8.3471,8.303,8.2663,8.3471,8.4022,8.4242,8.3728,8.2994,8.248,8.2627,8.1856,8.1195,8.1012,8.1122,8.1122,8.0828,8.1599,8.1893,8.1085,8.1709,8.1856,8.1085,7.8295,7.6313,7.5652,7.4111,7.3193,7.3193,7.3046,7.2973,7.2973,7.2349,7.1872,7.1541,7.0881,7.0403,7.011,6.9998,6.8806,6.0603,6.0272,6.0713,6.1961,6.2401,6.3649,0.0,0.0,6.8972,7.2092,7.3487,7.5359,7.9433,8.1562,8.4242,8.8904,9.0629,9.195,9.3529,9.463,9.5217,9.5107,9.5878,9.6795,9.7676,9.8337,9.8778,9.8961,9.8814,9.8778,9.8961,9.8961,9.9035,9.9108,9.9035,9.8961,9.8961,9.8888,9.8814,9.8704,9.8043,9.7309,9.6392,9.5804,9.507,9.4299,9.4299,9.3896,9.3235,9.3015,9.2464,9.1583,9.0776,8.9968,8.9197,8.8353,8.7619,8.6995,8.6921,8.6885,8.6738,8.593,8.5673,8.549,8.4609,8.4462,8.4572,8.4389,8.4462,8.4609,8.4609,8.4462,8.4352,8.4462,8.3875,8.3508,8.4278,8.3985,8.3728,8.4352,8.3838,8.3508,8.4205,8.3067,8.1819,8.1122,8.1599,8.1525,8.0094,8.1269,8.1893,8.1085,8.1709,8.1856,8.1085,7.936,7.8295,7.8185,7.6607,7.5689,7.5689,7.5028,7.4625,7.4625,7.4551,7.3817,7.2386,7.2275,7.1505,7.011,7.011,6.9559,6.2732,6.2548,0.0,0.0,6.6035,6.8421,7.0917,7.2679,7.4588,7.7378,7.9727,8.2186,8.5306,8.6848,8.8426,0.0,9.2427,9.3492,9.4189,9.4997,9.5327,9.485,9.5511,9.6685,9.8447,9.8484,9.8778,9.9732,9.9365,9.9292,9.9769,9.9805,9.9989,10.0503,10.0503,10.0283,9.9805,10.0283,9.9769,9.8411,9.8998,9.8374,9.6685,9.6832,9.6465,9.5694,9.5694,9.496,9.3786,9.3786,9.3015,9.1767,9.1436,9.0812,8.9968,8.8683,8.7692,8.6995,8.6995,8.6995,8.6958,8.6628,8.6518,8.6334,8.5527,8.5637,8.5894,8.5416,8.5637,8.6004,8.6004,8.5637,8.5306,8.5306,8.5049,8.4903,8.5233,8.5416,8.56,8.593,8.4976,8.4499,8.5783,8.4646,8.3654,8.3765,8.3287,8.2663,8.1966,8.2884,8.3654,8.3765,8.3691,8.3471,8.3141,8.1636,8.0277,7.936,7.8185,7.7341,7.6827,7.6497,7.6313,7.6313,7.5836,7.5285,7.4588,7.4147,7.356,7.2899,7.2422,7.1762,6.3723,0.0,0.0,6.721,7.0513,7.378,7.5469,7.7818,8.0424,8.3104,8.5343,8.7472,8.9674,9.0555,9.1289,9.2354,9.3712,9.463,9.463,9.496,9.4887,9.4042,9.4263,9.5364,9.7566,9.786,9.8557,10.0209,9.9769,9.9769,10.0613,10.0613,10.0907,10.1494,10.1494,10.12,10.0613,10.12,10.0576,9.8888,9.9622,9.9035,9.7383,9.7493,9.7236,9.6685,9.6685,9.5804,9.4299,9.4299,9.3308,9.1803,9.1803,9.1179,9.0152,8.8977,8.8023,8.7325,8.7105,8.6995,8.6995,8.6995,8.6995,8.6885,8.6297,8.6554,8.6885,8.6297,8.6554,8.6995,8.6995,8.6591,8.6114,8.6114,8.6114,8.6114,8.6114,8.6591,8.6995,8.6995,8.5894,8.538,8.6775,8.5673,8.4866,8.5673,8.4609,8.3728,8.3728,8.4425,8.5233,8.604,8.5196,8.4609,8.4609,8.292,8.1379,8.0204,7.936,7.8552,7.7708,7.7671,7.7561,7.7304,7.6754,7.6313,7.6093,7.5542,7.5139,7.4918,7.4294,7.3707,0.0,0.0,6.8531,7.2459,7.5909,7.9396,8.3324,8.4903,8.6444,8.9674,8.9784,8.9821,9.1436,9.173,9.2281,9.3969,9.4923,9.5474,9.5474,9.4813,9.4042,9.3235,9.2391,9.2574,0.0,9.6539,9.8557,10.0209,10.0283,10.0613,10.1384,10.1494,10.1494,10.1494,10.1494,10.1494,10.1494,10.1494,10.1494,10.1384,9.9879,9.9108,9.8998,9.7456,9.6722,9.6685,9.6685,9.5804,9.4299,9.4299,9.3308,9.1803,9.1803,9.0849,8.9454,8.9381,8.8867,8.8059,8.7288,8.6995,8.6995,8.6995,8.6995,8.6995,8.6995,8.6995,8.6995,8.6995,8.6995,8.6995,8.6995,8.6995,8.6958,8.6958,8.6958,8.6958,8.6958,8.6995,8.6995,8.6995,8.6334,8.604,8.6885,8.5673,8.4866,8.5673,8.5086,8.4572,8.4572,8.527,8.6077,8.6885,8.5563,8.4609,8.4609,8.2406,8.1012,8.0975,8.0204,7.9396,7.8589,7.8552,7.8185,7.7341,7.7304,7.69,7.6093,7.6093,7.5652,7.4918,7.4882,7.4845,6.7063,0.0,7.4258,7.8332,8.1782,8.4939,8.7912,8.9638,9.0629,9.0629,9.0408,9.0041,8.9528,8.9858,9.0739,9.2391,9.4263,9.5511,9.5511,9.5731,9.4777,9.1803,9.1693,0.0,0.0,0.0,0.0,9.9328,9.9512,10.0099,10.1384,10.098,10.0907,10.1494,10.1494,10.1494,10.1494,10.1494,10.098,9.9879,9.83,9.7787,9.8264,9.7199,9.6685,9.6685,9.6685,9.5804,9.4299,9.4299,9.3308,9.1803,9.1803,9.1473,9.0922,9.0408,8.9711,8.883,8.7472,8.6995,8.6995,8.6995,8.6995,8.6995,8.6995,8.6995,8.6995,8.6995,8.6995,8.6995,8.6995,8.6995,8.6995,8.6995,8.6995,8.6995,8.6995,8.6995,8.6995,8.6995,8.6334,8.604,8.6885,8.6114,8.5673,8.6481,8.5453,8.4609,8.4609,8.4829,8.5306,8.6114,8.571,8.538,8.538,8.4168,8.292,8.1856,8.1048,7.9984,7.8662,7.8589,7.8185,7.7341,7.7304,7.7194,7.69,7.69,7.679,7.6497,7.5946,7.5689,7.1725,7.5616,7.9764,8.4095,8.7215,8.9748,9.1877,9.2758,9.2611,9.0959,9.0152,8.916,8.7252,8.7582,8.8573,8.9858,9.1657,9.3198,9.4079,9.3896,9.3015,9.1253,9.1033,9.0702,0.0,0.0,0.0,9.764,9.8337,9.9365,10.098,10.087,10.098,10.1494,10.1494,10.1494,10.1494,10.1494,10.0686,9.9071,9.775,9.7236,9.7456,9.6942,9.6685,9.6685,9.6685,9.5951,9.4703,9.441,9.3492,9.2244,9.1913,9.162,9.1326,9.0812,9.0115,8.9234,8.7912,8.7435,8.7399,8.7105,8.7215,8.7399,8.7105,8.6995,8.6995,8.6995,8.6995,8.6995,8.6995,8.6995,8.6995,8.6995,8.6995,8.6995,8.6995,8.6995,8.6995,8.6995,8.6591,8.6407,8.6921,8.6591,8.6407,8.6921,8.6114,8.5453,8.5453,8.5453,8.5673,8.6151,8.5967,8.5673,8.538,8.4646,8.3618,8.226,8.1966,8.1158,7.9507,7.9727,7.936,7.8222,7.7928,7.7781,7.7781,7.7451,7.7304,7.7304,7.679,7.6533,7.6607,8.0718,8.4976,8.9638,9.2024,9.3602,9.5107,9.4189,9.2537,9.0776,8.905,8.7105,0.0,0.0,8.5857,8.6848,8.7839,8.9344,9.1767,9.0188,8.9564,0.0,0.0,0.0,0.0,0.0,0.0,9.5364,0.0,9.8594,10.0283,10.109,10.1494,10.1494,10.1494,10.1494,10.1494,10.1384,10.0613,9.9108,9.8227,9.7419,9.6685,9.6685,9.6685,9.6685,9.6685,9.6245,9.5437,9.463,9.3822,9.3015,9.2134,9.1326,9.0665,9.0665,9.0152,8.9381,8.861,8.8316,8.8133,8.7362,8.7655,8.8133,8.7362,8.7142,8.7142,8.7142,8.7105,8.7068,8.7068,8.7031,8.6995,8.6995,8.6995,8.6995,8.6995,8.6995,8.6995,8.6995,8.6995,8.6995,8.6995,8.6995,8.6995,8.6995,8.6995,8.6995,8.6995,8.6995,8.6995,8.6995,8.6334,8.5527,8.4719,8.3911,8.3141,8.2296,8.2957,8.2663,8.1048,8.1746,8.1379,7.98,7.9029,7.8662,7.8662,7.7818,7.7378,7.7378,7.7341,7.7304,8.1672,8.6151,9.0262,9.2721,9.4116,9.485,9.4666,9.3345,9.14,8.85,8.5233,8.2296,0.0,0.0,0.0,8.6481,9.0225,0.0,9.5988,9.6318,0.0,0.0,0.0,9.3308,9.1657,9.3015,0.0,0.0,9.6979,9.8851,10.109,10.1384,10.1494,10.1494,10.1494,10.1494,10.1494,10.0283,9.9512,9.9071,9.7676,9.6906,9.6685,9.6685,9.6685,9.6685,9.6685,9.6245,9.5437,9.463,9.3822,9.3015,9.2134,9.1657,9.1473,9.1473,9.0996,9.0262,9.0078,8.9601,8.9087,8.8867,8.894,8.9087,8.8867,8.8793,8.8793,8.8793,8.8353,8.7876,8.7876,8.7472,8.6995,8.6995,8.6995,8.6995,8.6995,8.6995,8.6995,8.6995,8.6995,8.6995,8.6995,8.6995,8.6995,8.6995,8.6995,8.6995,8.6995,8.6995,8.6995,8.6995,8.6811,8.6371,8.5563,8.4756,8.3948,8.3141,8.2737,8.2039,8.1048,8.1195,8.0828,7.98,7.958,7.947,7.947,7.8662,7.8259,7.8259,7.7598,7.7304,8.6775,9.0519,9.3749,9.5034,9.5144,9.4556,9.3015,9.0886,8.7986,8.3654,8.0975,0.0,0.0,0.0,0.0,0.0,0.0,0.0,9.5878,9.6392,9.6318,0.0,9.5988,0.0,9.4079,9.5107,9.6208,0.0,9.7566,9.8778,10.087,10.1274,10.1494,10.1494,10.1494,10.1274,10.098,10.0099,9.9255,9.8557,9.764,9.7052,9.6685,9.6685,9.6685,9.6685,0.0,9.6245,9.5437,9.463,9.3822,9.3015,9.2134,9.1803,9.1803,9.1803,9.151,9.1143,9.1143,9.0849,9.0335,8.9638,8.9674,8.9858,8.9528,8.9417,8.9417,8.9417,8.9087,8.872,8.872,8.839,8.7986,8.7619,8.7802,8.7986,8.7619,8.7545,8.7435,8.7068,8.6995,8.6995,8.6995,8.6995,8.6995,8.6995,8.6995,8.6995,8.6995,8.6995,8.6995,8.6995,8.6995,8.6664,8.5857,8.538,8.4792,8.3985,8.3838,8.3251,8.2113,8.2406,8.2039,8.0865,8.0498,8.0314,8.0314,7.914,7.8589,7.8589,7.7708,7.7304,9.1583,9.4116,9.5988,9.6685,9.5547,9.3602,9.0922,8.7619,8.3618,7.8259,0.0,7.5836,7.301,7.6313,8.0167,8.2333,0.0,9.0041,9.4483,9.441,9.496,9.786,9.7603,9.7126,9.7016,9.775,9.8521,9.9218,9.8594,9.8851,10.0393,10.109,10.1494,10.1494,10.1494,10.12,10.0503,10.0393,9.9548,9.8043,9.7933,9.7456,9.6685,9.6685,9.6685,9.6685,0.0,0.0,9.5621,9.4777,9.4042,9.3345,9.2464,9.206,9.195,9.195,9.1913,9.1803,9.1803,9.1803,9.1583,9.0188,9.0188,9.0629,8.9931,8.9748,8.9748,8.9748,8.9674,8.9564,8.9564,8.9491,8.9234,8.8536,8.8904,8.9234,8.85,8.8353,8.8133,8.7325,8.7178,8.7178,8.7178,8.7068,8.6995,8.6995,8.6995,8.6995,8.6995,8.6995,8.6995,8.6995,8.6995,8.6738,8.6004,8.5857,8.549,8.4792,8.5306,8.4976,8.3471,8.4058,8.3728,8.2223,8.1525,8.1158,8.1158,7.9653,7.8919,7.8883,7.8038,7.7635,9.496,9.6649,9.753,9.764,9.5988,9.3308,8.9491,8.5086,0.0,0.0,7.4735,7.3156,7.2606,7.5395,7.9396,8.4352,0.0,0.0,0.0,0.0,9.8521,0.0,0.0,0.0,0.0,0.0,0.0,0.0,0.0,0.0,10.12,10.1384,10.1494,10.1494,10.1494,10.1384,10.1274,10.0613,9.9842,9.8888,9.8227,9.7456,9.6685,9.6685,9.6685,9.6685,0.0,0.0,9.6428,9.5621,9.5217,9.4997,9.4189,9.3455,9.2868,9.2868,9.2427,9.1803,9.1803,9.1803,9.173,9.1473,9.1473,9.1583,9.1436,9.1363,9.1363,9.1363,9.0922,9.0408,9.0408,8.9931,8.9381,8.9234,8.9307,8.9381,8.9234,8.9197,8.8977,8.8169,8.7986,8.7986,8.7986,8.7435,8.6995,8.6995,8.6995,8.6995,8.6995,8.6995,8.6995,8.6995,8.6995,8.6958,8.6811,8.6187,8.5747,8.56,8.5086,8.4389,8.3471,8.3544,8.3177,8.2223,8.2039,8.2003,8.2003,8.1048,8.0571,8.0571,7.9727,7.936,9.7309,9.7933,9.7787,9.7383,9.4189,9.0041,8.6004,0.0,0.0,0.0,7.1762,7.1248,7.1248,7.4588,0.0,0.0,0.0,0.0,0.0,0.0,0.0,0.0,0.0,0.0,0.0,0.0,0.0,0.0,0.0,0.0,10.1494,10.1494,10.1494,10.1494,10.1494,10.1274,10.0907,10.0907,10.0283,9.9108,9.9145,9.8521,9.7309,9.7309,9.7089,9.6685,9.6685,0.0,9.5437,9.5511,9.5034,9.4263,9.4299,9.3822,9.3088,9.3088,9.2537,9.184,9.2317,9.217,9.1877,9.2317,9.217,9.1803,9.1803,9.1803,9.1803,9.1803,9.151,9.1216,9.1216,9.0959,9.0555,9.0115,9.0041,9.0041,9.0041,9.0041,8.9674,8.8426,8.8206,8.8059,8.7655,8.7252,8.6995,8.6995,8.6995,8.6995,8.6995,8.6995,8.6995,8.6995,8.6995,8.6995,8.6995,8.6664,8.6407,8.6407,8.6077,8.549,8.4682,8.4646,8.4058,8.2847,8.281,8.2627,8.2186,8.1379,8.1012,8.0975,8.0167,7.98,9.8704,9.8631,9.7933,9.6942,9.2427,8.7105,8.2884,7.8038,0.0,6.9669,6.9522,7.011,7.011,7.3634,7.7268,0.0,8.3251,0.0,0.0,0.0,0.0,0.0,0.0,0.0,0.0,0.0,0.0,0.0,0.0,0.0,10.1494,10.1494,10.1494,10.1494,10.1494,10.12,10.0576,10.12,10.0686,9.9108,9.9732,9.9181,9.764,9.764,9.7199,9.6428,9.6428,0.0,0.0,9.5254,9.485,9.3932,9.4373,9.4189,9.3602,9.3418,9.2905,9.2427,9.3125,9.2905,9.2464,9.3125,9.2648,9.184,9.2024,9.195,9.184,9.2024,9.195,9.1803,9.1803,9.1803,9.1657,9.1033,9.0849,9.0812,9.0629,9.0739,9.0445,8.8977,8.872,8.85,8.7876,8.7509,8.7252,8.7252,8.7105,8.6995,8.6995,8.6995,8.6995,8.6995,8.6995,8.6995,8.6995,8.6995,8.6995,8.6995,8.6995,8.6628,8.582,8.5783,8.5123,8.3691,8.3508,8.3104,8.2443,8.1636,8.1269,8.1232,8.0608,8.0314,9.8851,9.9071,9.8631,9.7089,9.2427,8.6958,8.2186,0.0,7.1982,6.9449,6.9522,7.011,7.011,7.2239,7.5285,0.0,0.0,8.5123,0.0,0.0,0.0,0.0,0.0,0.0,0.0,0.0,0.0,0.0,0.0,0.0,0.0,10.1494,10.1494,10.1494,10.1494,10.1494,10.1384,10.1494,10.0686,9.9108,9.9181,9.8374,9.6795,9.6795,9.6392,9.5621,0.0,0.0,0.0,9.5474,9.5841,9.6318,9.5658,9.5364,9.5217,9.4446,9.4116,9.4079,9.4153,9.4116,9.4079,9.4153,9.3088,9.195,9.2758,9.2427,9.195,9.2758,9.2391,9.1803,9.1803,9.1803,9.1767,9.1693,9.1693,9.1473,9.0776,9.1179,9.1436,9.0555,9.0372,9.0372,9.0298,8.905,8.8096,8.8096,8.7472,8.6995,8.6995,8.6995,8.6995,8.6995,8.6995,8.6995,8.6995,8.6995,8.6995,8.6995,8.6995,8.6628,8.582,8.5783,8.538,8.4499,8.3765,8.3361,8.3287,8.248,8.2076,8.2076,8.2003,8.1966,9.8961,9.9475,9.8594,9.6502,9.0959,8.5013,8.1158,0.0,7.066,6.9192,6.8752,6.8788,6.9302,7.0954,7.312,7.5689,7.7488,8.0571,8.6444,8.8904,9.2134,0.0,0.0,0.0,0.0,0.0,0.0,0.0,0.0,0.0,0.0,10.1494,10.1494,10.1494,10.1494,10.1494,10.1494,10.098,10.0503,9.9805,9.9805,9.8961,9.7419,9.7933,9.7456,9.6208,0.0,0.0,0.0,9.6025,9.6135,9.5988,9.6171,9.5951,9.5474,9.5144,9.4703,9.4373,9.485,9.4703,9.4373,9.485,9.4226,9.3382,9.3712,9.3235,9.2758,9.3602,9.2831,9.1913,9.2464,9.217,9.1803,9.1803,9.1803,9.1693,9.14,9.1583,9.1546,9.0776,9.0592,9.0445,8.9968,8.9381,8.894,8.894,8.8647,8.8463,8.8463,8.8023,8.7729,8.7729,8.7288,8.6995,8.6995,8.6995,8.6995,8.6995,8.6995,8.6885,8.6554,8.6518,8.6151,8.5343,8.5013,8.4389,8.3398,8.3581,8.3141,8.2186,8.27,8.2663,9.6832,9.8264,9.8117,9.5474,8.9674,8.3691,8.0204,7.4588,6.9853,6.9082,6.8458,6.8238,6.8788,7.022,7.1835,7.345,7.5065,7.7818,8.2737,8.5013,8.8316,0.0,0.0,0.0,0.0,0.0,0.0,0.0,0.0,0.0,0.0,10.1494,10.1494,10.1494,10.1494,10.1384,10.109,10.0576,10.0099,9.9585,9.9842,9.9108,9.7566,9.8374,9.786,9.6318,0.0,0.0,0.0,9.5841,9.5951,9.5914,9.6208,9.6135,9.5841,9.5584,9.529,9.507,9.5658,9.5474,9.5107,9.5658,9.5474,9.4997,9.4997,9.4263,9.3529,9.3859,9.2905,9.195,9.2574,9.2244,9.1803,9.1803,9.1803,9.1803,9.1803,9.1803,9.162,9.1069,9.0959,9.0776,9.0225,8.9931,8.9784,8.9784,8.9564,8.9417,8.9417,8.8904,8.8573,8.8573,8.7839,8.7252,8.7031,8.6995,8.6995,8.6995,8.6995,8.6995,8.6995,8.6995,8.6848,8.6518,8.604,8.5343,8.4462,8.4572,8.4022,8.292,8.3251,8.2994,9.173,9.4887,9.7126,9.3932,8.883,8.3544,7.9543,7.4184,6.9853,6.9082,6.8898,6.8898,6.8898,7.022,7.1835,7.345,7.5065,7.7818,8.2737,8.549,0.0,0.0,0.0,0.0,0.0,0.0,0.0,0.0,0.0,0.0,0.0,10.1494,10.1494,10.1494,10.1494,10.109,10.0319,10.0283,9.9512,9.7933,9.8741,9.8264,9.6722,9.753,9.7016,0.0,0.0,0.0,0.0,9.4666,9.5254,9.6612,9.5841,9.5988,9.6575,9.5804,9.6025,9.6685,9.6685,9.6685,9.6685,9.6685,9.6685,9.6685,9.6685,9.5547,9.4116,9.3345,9.2464,9.1803,9.1803,9.1803,9.1803,9.1803,9.1803,9.1803,9.1803,9.1803,9.1803,9.1803,9.1803,9.1767,9.1767,9.1106,9.0592,9.0592,8.9931,8.9417,8.9417,8.9417,8.9417,8.9417,8.8683,8.7876,8.7068,8.6995,8.6995,8.6995,8.6995,8.6995,8.6995,8.6995,8.7362,8.8169,8.6591,8.6187,8.6958,8.538,8.4609,8.4572,8.3765,8.2994,8.593,8.8243,8.8977,8.6334,8.303,7.9874,7.7451,7.3377,7.0036,6.9779,6.9302,6.8752,6.8164,6.9853,7.1651,7.2716,7.4221,7.6423,7.9653,0.0,0.0,0.0,0.0,0.0,0.0,0.0,0.0,0.0,0.0,0.0,0.0,0.0,10.1494,10.1494,10.1494,10.109,10.0283,9.9769,9.8961,9.7897,9.8154,9.7713,9.6722,9.753,0.0,0.0,0.0,0.0,0.0,9.5254,9.5437,9.5914,9.6208,9.6502,9.6685,9.6428,9.6502,9.6685,9.6685,9.6685,9.6685,9.6685,9.6685,9.6612,9.6061,9.5511,9.496,9.4153,9.3712,9.3382,9.2831,9.2244,9.1803,9.1803,9.1803,9.1803,9.1803,9.1803,9.1803,9.1803,9.1803,9.1803,9.1803,9.1583,9.1436,9.1436,9.1216,9.1033,9.1033,9.0555,9.0225,9.0225,8.9528,8.8683,8.7876,8.7325,8.6995,8.6995,8.6995,8.6995,8.6995,8.6995,8.7142,8.7362,8.6885,8.6481,8.6187,8.6775,8.6775,8.6187,8.4315,8.3287,0.0,8.3104,8.4462,8.2663,8.0388,7.8075,7.6093,7.2789,7.0,6.9706,6.9009,6.8385,6.8201,6.9633,7.1211,7.2312,7.3854,7.5763,7.8259,0.0,0.0,0.0,0.0,0.0,0.0,0.0,0.0,0.0,0.0,0.0,0.0,0.0,10.1494,10.1494,10.1494,10.098,9.9879,9.9365,9.8557,9.7456,9.775,9.7456,9.6722,9.753,0.0,0.0,0.0,0.0,0.0,9.529,9.5401,9.6025,9.6502,9.6685,9.6685,9.6685,9.6685,9.6685,9.6685,9.6685,9.6685,9.6685,9.6685,9.6612,9.6098,9.5327,9.4556,9.4373,9.3822,9.3235,9.2721,9.2207,9.1803,9.1803,9.1803,9.1803,9.1803,9.1803,9.1803,9.1803,9.1803,9.1803,9.1803,9.1803,9.1803,9.1803,9.1803,9.1803,9.1803,9.1363,9.1069,9.1069,9.0335,8.9674,8.916,8.839,8.7655,8.7031,8.7288,8.7325,8.7031,8.6995,8.7142,8.7472,8.7142,8.6921,8.6701,8.7692,8.7949,8.7435,8.56,8.4609,0.0,7.8736,8.2113,8.1342,7.9507,7.7304,7.5065,7.2202,0.0,6.9045,6.8348,6.8054,6.8788,6.9633,7.077,7.2275,7.3854,7.5763,7.8259,8.2406,0.0,0.0,0.0,0.0,0.0,0.0,0.0,0.0,0.0,0.0,0.0,0.0,10.1494,10.1494,10.1494,10.0796,9.9218,9.9145,9.8337,9.6795,9.7456,9.7419,9.6722,9.7456,0.0,0.0,0.0,0.0,0.0,9.5107,9.5327,9.6685,9.6685,9.6685,9.6685,9.6685,9.6685,9.6685,9.6685,9.6685,9.6685,9.6685,9.6685,9.6685,9.6685,9.5144,9.3529,9.4263,9.3272,9.1987,9.1987,9.1877,9.1803,9.1803,9.1803,9.1803,9.1803,9.1803,9.1803,9.1803,9.1803,9.1803,9.1803,9.1803,9.1803,9.1803,9.1803,9.1803,9.1803,9.1803,9.1803,9.1803,9.1143,9.0665,9.0592,8.9858,8.8757,8.7178,8.7802,8.7839,8.7031,8.6995,8.7362,8.8096,8.7399,8.7435,8.828,8.8243,8.8243,8.8353,8.7509,8.6701,6.721,0.0,7.1321,7.1138,7.1138,7.1211,0.0,7.0183,0.0,0.0,0.0,0.0,0.0,7.055,7.2055,7.2459,7.3854,7.5763,7.8259,0.0,0.0,0.0,0.0,0.0,0.0,0.0,0.0,0.0,0.0,0.0,0.0,0.0,10.1494,10.1494,10.1494,10.098,9.9989,9.9402,9.8594,9.7603,9.7199,9.6869,9.6722,9.6906,0.0,0.0,0.0,0.0,9.753,9.6539,9.6355,9.6685,9.6685,9.6685,9.6685,9.6685,9.6685,9.6685,9.6685,9.6685,9.6685,9.6685,9.6685,9.6685,9.6685,9.6318,9.5878,9.6098,9.496,9.3712,9.3712,9.2758,9.1803,9.1803,9.1803,9.1803,9.1803,9.1803,9.1803,9.1803,9.1803,9.1803,9.1803,9.1803,9.1803,9.1803,9.1803,9.1803,9.1803,9.1803,9.1803,9.1803,9.162,9.1253,9.0665,8.9858,8.8977,8.7986,8.8096,8.7839,8.7031,8.6995,8.7105,8.7288,8.7105,8.7729,8.9124,8.85,8.883,9.0005,8.8573,8.7802,6.4053,6.5888,6.7797,6.8164,6.8862,6.9486,6.9522,0.0,0.0,0.0,0.0,0.0,0.0,0.0,0.0,7.2936,7.4404,7.7084,0.0,0.0,0.0,0.0,0.0,0.0,0.0,0.0,0.0,0.0,0.0,0.0,0.0,0.0,10.1494,10.1494,10.1494,10.109,10.0283,9.9512,9.8704,9.7897,9.7089,9.6906,9.7236,9.7236,0.0,0.0,0.0,0.0,9.8374,9.7163,9.6906,9.7199,9.6832,9.6685,9.6685,9.6685,9.6685,9.6685,9.6685,9.6685,9.6685,9.6685,9.6877,9.7138,9.7138,9.7391,9.7422,9.6435,9.5254,9.4299,9.4299,9.3639,9.2941,9.2941,9.2941,9.2941,9.2941,9.2648,9.2391,9.2391,9.206,9.1803,9.1803,9.1803,9.195,9.2354,9.206,9.195,9.2354,9.206,9.1803,9.1803,9.1803,9.162,9.1179,9.0739,8.9858,8.8316,8.8536,8.8243,8.7068,8.6995,8.6995,8.6995,8.6995,8.7619,8.8867,8.8426,8.9014,9.0555,8.894,8.861,6.2989,6.5191,6.765,6.8201,6.8972,6.9412,6.8862,0.0,0.0,0.0,0.0,0.0,0.0,0.0,0.0,0.0,0.0,0.0,0.0,0.0,0.0,0.0,0.0,0.0,0.0,0.0,0.0,0.0,0.0,0.0,0.0,0.0,0.0,10.1494,10.1494,10.109,10.0283,9.9512,9.8778,9.808,9.7273,9.7309,9.808,9.808,9.8521,0.0,0.0,0.0,9.9181,9.7566,9.7273,9.7823,9.7016,9.6685,9.6685,9.6575,9.6539,9.6539,9.6539,9.6652,9.6801,9.6801,9.7319,9.7874,9.7874,9.8273,9.8316,9.6505,9.5369,9.4595,9.4558,9.4373,9.4299,9.4299,9.4299,9.4299,9.4299,9.3675,9.3125,9.3272,9.2464,9.1877,9.2134,9.206,9.2281,9.3161,9.2648,9.2464,9.3198,9.2648,9.2134,9.2024,9.1987,9.195,9.1803,9.1803,9.0886,8.872,8.9234,8.894,8.7435,8.7252,8.7178,8.7178,8.7068,8.7399,8.8206,8.8206,8.8977,9.0408,8.9014,8.9124,6.3686,6.5264,6.6549,6.5999,6.6476,6.721,0.0,0.0,0.0,0.0,0.0,0.0,0.0,0.0,0.0,0.0,0.0,0.0,0.0,0.0,0.0,0.0,0.0,0.0,0.0,0.0,0.0,0.0,0.0,0.0,0.0,0.0,0.0,10.1494,10.1494,10.109,10.0283,9.9512,9.9035,9.8924,9.808,9.8154,9.8924,9.8924,9.9365,0.0,0.0,9.9365,9.9989,9.8374,9.7787,9.7823,9.7016,9.6685,9.6612,9.5951,9.5694,9.5694,9.5694,9.6511,9.7567,9.7567,9.8009,9.8592,9.8592,9.8655,9.8617,9.8316,9.7226,9.6055,9.5441,9.4813,9.4299,9.4299,9.4299,9.4299,9.4299,9.3675,9.3308,9.3969,9.2868,9.2244,9.3675,9.3345,9.3198,9.3969,9.4006,9.3969,9.4079,9.4006,9.3639,9.2978,9.2905,9.2611,9.184,9.1803,9.1363,9.0298,9.0372,9.0005,8.9087,8.839,8.8023,8.8023,8.7362,8.7399,8.8206,8.8206,8.8683,8.9601,8.9344,8.9381,6.2768,6.4273,6.5888,6.5925,6.721,6.8421,0.0,0.0,0.0,0.0,0.0,0.0,0.0,0.0,0.0,0.0,0.0,0.0,0.0,0.0,0.0,0.0,0.0,0.0,0.0,0.0,0.0,0.0,0.0,0.0,0.0,0.0,0.0,0.0,10.1494,10.109,10.0283,9.9916,9.9548,9.9108,9.8741,9.8961,9.9769,9.9769,9.9952,10.0283,0.0,9.9695,9.9548,9.8374,9.764,9.7163,9.6392,9.5804,9.5476,9.592,9.6064,9.6172,9.6931,9.7711,9.8273,9.8273,9.8679,9.9254,9.9254,9.948,9.9645,9.9311,9.8478,9.7516,9.6836,9.6434,9.592,9.5109,9.529,9.5474,9.5034,9.4666,9.452,9.4887,9.3969,9.3382,9.4153,9.3969,9.4006,9.4813,9.4593,9.4446,9.4887,9.4556,9.3969,9.3198,9.3088,9.2758,9.1877,9.1803,9.1473,9.0665,9.0188,8.9601,8.8793,8.839,8.7986,8.7582,8.7215,8.7178,8.7545,8.7545,8.7986,8.8757,8.8316,8.8573,6.2291,6.3833,6.5778,6.6586,0.0,0.0,0.0,0.0,0.0,0.0,0.0,0.0,0.0,0.0,0.0,0.0,0.0,0.0,0.0,0.0,0.0,0.0,0.0,0.0,0.0,0.0,0.0,0.0,0.0,0.0,0.0,0.0,0.0,0.0,10.1494,10.109,10.0283,10.0503,10.0209,9.9402,9.9402,9.9695,10.0283,10.0283,10.0209,9.9989,9.9805,9.9292,9.8484,9.7676,9.6869,9.6098,9.5474,9.474,9.4154,9.5425,9.5886,9.6132,9.7342,9.805,9.8395,9.8584,9.9065,9.9668,9.9858,10.0239,10.0471,9.9999,9.9422,9.8697,9.7868,9.7557,9.7051,9.5772,9.5988,9.6245,9.5658,9.5511,9.5584,9.5768,9.5144,9.463,9.4813,9.485,9.507,9.5694,9.5254,9.507,9.5694,9.5254,9.4483,9.3492,9.3382,9.2941,9.1877,9.1803,9.1546,9.0922,9.0298,8.9601,8.8793,8.8573,8.8096,8.7325,8.7105,8.6995,8.6995,8.6995,8.7325,8.7912,8.7288,8.7692,6.3723,6.5118,6.6623,6.7393,0.0,0.0,0.0,0.0,0.0,0.0,0.0,0.0,0.0,0.0,0.0,0.0,0.0,0.0,0.0,0.0,0.0,0.0,0.0,0.0,0.0,0.0,0.0,0.0,0.0,0.0,0.0,0.0,0.0,0.0,0.0,10.109,10.0283,10.098,10.098,10.0209,10.0209,10.0209,10.0283,10.0283,9.9879,9.9145,9.8411,9.7603,9.6795,9.6025,9.5217,9.4446,9.441,9.3896,9.3235,9.3943,9.4177,9.4243,9.4945,9.6064,9.7339,9.8189,9.8897,9.9564,10.029,10.0595,10.0604,10.0519,9.9937,9.9099,9.7984,9.7149,9.6384,9.5625,9.5547,9.5584,9.5511,9.5511,9.5731,9.6465,9.5951,9.5658,9.6392,9.6539,9.6539,9.6612,9.6575,9.6539,9.6612,9.6575,9.5914,9.4373,9.4189,9.3565,9.195,9.1803,9.1767,9.173,9.1657,9.1253,9.0482,8.9711,8.894,8.8133,8.7399,8.6995,8.6995,8.6995,8.7031,8.7105,8.7031,8.7068,6.2585,6.4457,0.0,0.0,0.0,0.0,0.0,0.0,0.0,0.0,0.0,0.0,0.0,0.0,0.0,0.0,0.0,0.0,0.0,0.0,0.0,0.0,0.0,0.0,0.0,0.0,0.0,0.0,0.0,0.0,0.0,0.0,0.0,0.0,0.0,10.1384,10.098,10.131,10.131,10.098,10.0503,10.0283,10.0283,9.9769,9.9108,9.83,9.7493,9.6685,9.5914,9.5107,9.4299,9.3492,9.2941,9.2791,9.2991,9.3738,9.4535,9.5271,9.6082,9.7272,9.8601,9.8906,9.9546,10.0183,10.0489,10.0604,10.0604,10.0604,10.0413,9.9841,9.8499,9.7229,9.6255,9.6033,9.5694,9.5625,9.6064,9.6216,9.6355,9.6649,9.6465,9.6355,9.6649,9.6685,9.6685,9.6685,9.6685,9.6685,9.6685,9.6685,9.6098,9.4446,9.3345,9.2501,9.184,9.1803,9.1803,9.1803,9.1803,9.1436,9.0629,8.9858,8.905,8.8206,8.7435,8.6995,8.6995,8.6995,8.6995,8.6995,8.6995,8.6995,6.1814,6.3796,6.6366,0.0,0.0,0.0,0.0,0.0,0.0,0.0,0.0,0.0,0.0,0.0,0.0,0.0,0.0,0.0,0.0,0.0,0.0,0.0,0.0,0.0,0.0,0.0,0.0,0.0,0.0,0.0,0.0,0.0,0.0,0.0,0.0,0.0,10.1494,10.1494,10.1494,10.1494,10.0393,9.9916,9.9879,9.8814,9.7897,9.7089,9.6282,9.5621,9.507,9.4485,9.4001,9.3583,9.2732,9.2885,9.3562,9.4012,9.4782,9.5641,9.6401,9.7344,9.8273,9.8808,9.9343,9.9916,10.0413,10.0604,10.0604,10.0604,10.0413,9.9975,9.8985,9.7815,9.6815,9.6674,9.6207,9.592,9.6411,9.662,9.6685,9.6685,9.6906,9.7089,9.7089,9.7089,9.7089,9.7089,9.6869,9.6685,9.6685,9.6502,9.5694,9.4079,9.2648,9.1803,9.1803,9.1803,9.1803,9.1803,9.1803,9.1436,9.0629,9.0078,8.9307,8.8206,8.7655,8.7252,8.6995,8.6995,8.6995,8.6995,8.6995,8.6995,6.1814,6.3429,0.0,0.0,0.0,0.0,0.0,0.0,0.0,0.0,0.0,0.0,0.0,0.0,0.0,0.0,0.0,0.0,0.0,0.0,0.0,0.0,0.0,0.0,0.0,0.0,0.0,0.0,0.0,0.0,0.0,0.0,0.0,0.0,0.0,0.0,10.1494,10.1494,10.1494,10.1494,9.9879,9.9108,9.9071,9.7419,9.6245,9.5474,9.463,9.4299,9.4264,9.4059,9.4345,9.4946,9.4061,9.4211,9.4967,9.4772,9.4717,9.4819,9.5379,9.5598,9.5904,9.7585,9.812,9.8426,10.0107,10.0604,10.0604,10.0604,9.9992,9.9381,9.9419,9.8883,9.8248,9.7659,9.6975,9.648,9.6548,9.662,9.6685,9.6685,9.7346,9.786,9.786,9.786,9.7897,9.786,9.7199,9.6685,9.6685,9.5988,9.4887,9.3272,9.2317,9.1803,9.1803,9.1803,9.1803,9.1803,9.1803,9.1436,9.0629,9.0592,8.9858,8.8243,8.8206,8.7802,8.6995,8.6995,8.6995,8.6995,8.6995,8.6995,6.2144,6.3833,0.0,0.0,0.0,0.0,0.0,0.0,0.0,0.0,0.0,0.0,0.0,0.0,0.0,0.0,0.0,0.0,0.0,0.0,0.0,0.0,0.0,0.0,0.0,0.0,0.0,0.0,0.0,0.0,0.0,0.0,0.0,0.0,0.0,0.0,10.1494,10.0907,10.0686,10.0613,9.9035,9.8557,9.9035,9.6869,9.5731,9.5437,9.4042,9.3455,9.3456,9.3208,9.386,9.4984,9.4699,9.5027,9.5588,9.5103,9.512,9.5295,9.5018,9.5667,9.6706,9.7776,9.8502,9.9228,10.0298,10.0604,10.0604,10.0604,9.9992,9.9534,10.0107,9.9708,9.9069,9.8871,9.8008,9.7505,9.853,9.8405,9.7942,9.7496,9.7961,9.8178,9.7245,9.7433,9.7616,9.7129,9.6832,9.6502,9.5951,9.4666,9.3639,9.3161,9.2317,9.1803,9.1803,9.1803,9.1803,9.1803,9.1803,9.1693,9.1436,9.0922,9.0115,8.9087,8.85,8.7802,8.6995,8.6995,8.6995,8.6995,8.6995,8.6995,6.2805,0.0,0.0,0.0,0.0,0.0,0.0,0.0,0.0,0.0,0.0,0.0,0.0,0.0,0.0,0.0,0.0,0.0,0.0,0.0,0.0,0.0,0.0,0.0,0.0,0.0,0.0,0.0,0.0,0.0,0.0,0.0,0.0,0.0,0.0,0.0,10.098,10.0503,10.0099,9.9805,9.8521,9.797,9.808,9.5988,9.5217,9.5437,9.4153,9.3526,9.3344,9.3519,9.4452,9.5696,9.5355,9.5679,9.6235,9.5499,9.5387,9.5554,9.5201,9.5638,9.6554,9.7738,9.8464,9.9114,10.0298,10.0604,10.0604,10.0604,10.0298,9.9992,10.0489,10.0183,9.9878,9.9878,9.9122,9.8592,9.9514,9.9196,9.8555,9.8208,9.8429,9.8541,9.8082,9.803,9.7986,9.7654,9.7285,9.6548,9.5072,9.4582,9.3985,9.3115,9.2491,9.2126,9.1803,9.1803,9.1803,9.1803,9.1803,9.1803,9.1803,9.1326,9.0555,8.9454,8.894,8.8133,8.6995,8.6995,8.6995,8.6995,8.6995,8.6995,6.3686,0.0,0.0,0.0,0.0,0.0,0.0,0.0,0.0,0.0,0.0,0.0,0.0,0.0,0.0,0.0,0.0,0.0,0.0,0.0,0.0,0.0,0.0,0.0,0.0,0.0,0.0,0.0,0.0,0.0,0.0,0.0,0.0,0.0,0.0,0.0,10.0283,10.0209,9.9695,0.0,9.808,9.7309,9.6539,9.507,9.474,9.5254,9.4484,9.4011,9.376,9.457,9.5658,9.6821,9.6019,9.621,9.6783,9.6019,9.5675,9.5598,9.5598,9.5637,9.5981,9.7509,9.8082,9.8502,9.9992,10.0489,10.0604,10.0604,10.0489,10.0489,10.0604,10.0489,10.0489,10.0604,10.0227,9.979,9.979,9.9311,9.8862,9.8802,9.8839,9.9065,9.9656,9.9229,9.8817,9.888,9.8035,9.6623,9.44,9.517,9.517,9.3016,9.2802,9.2572,9.1912,9.1876,9.1803,9.1803,9.1803,9.1803,9.1803,9.1803,9.1033,8.9454,8.9417,8.861,8.6995,8.6995,8.6995,8.6995,8.6995,8.6995,0.0,0.0,0.0,0.0,0.0,0.0,0.0,0.0,0.0,0.0,0.0,0.0,0.0,0.0,0.0,0.0,0.0,0.0,0.0,0.0,0.0,0.0,0.0,0.0,0.0,0.0,0.0,0.0,0.0,0.0,0.0,0.0,0.0,0.0,0.0,9.9659,10.0283,9.9035,9.8337,0.0,9.6722,9.5951,9.5768,9.5401,9.4666,9.3565,9.3292,9.336,9.3781,9.4459,9.5603,9.6898,9.6706,9.6745,9.6898,9.6706,9.6172,9.5598,9.5598,9.6057,9.6668,9.705,9.8044,9.919,9.9534,10.0107,10.0604,10.0604,10.0107,9.9801,10.0413,10.0107,9.9801,10.0413,10.0471,10.0424,10.0424,10.0326,10.0126,9.9573,9.9843,9.9934,9.9126,9.9251,9.9329,9.8817,9.6856,9.5357,9.5061,9.4535,9.3897,9.2905,9.2802,9.2736,9.264,9.2126,9.1803,9.1803,9.1803,9.1803,9.1803,9.1803,9.1033,8.9454,8.9417,8.861,8.6995,8.6995,8.6995,8.6995,8.6995,8.6995,0.0,0.0,0.0,0.0,0.0,0.0,0.0,0.0,0.0,0.0,0.0,0.0,0.0,0.0,0.0,0.0,0.0,0.0,0.0,0.0,0.0,0.0,0.0,0.0,0.0,0.0,0.0,0.0,0.0,0.0,0.0,0.0,0.0,0.0,9.9255,9.9512,9.9145,9.83,9.7493,9.6722,9.5914,9.5404,9.5329,9.5036,9.4228,9.3,9.3233,9.3675,9.4215,9.4576,9.5284,9.6286,9.6286,9.6286,9.6286,9.6286,9.5981,9.5598,9.5598,9.5904,9.6401,9.7203,9.8082,9.8923,9.9725,10.0298,10.0604,10.0604,10.0298,10.0107,10.0489,10.0298,10.0107,10.0489,10.0604,10.0604,10.0604,10.0604,10.0471,10.0189,10.0375,10.0375,9.9699,9.9683,9.9308,9.8159,9.7196,9.6157,9.515,9.5138,9.4832,9.3798,9.3701,9.3582,9.3277,9.2896,9.2699,9.2699,9.2699,9.2566,9.2299,9.2299,9.1352,8.9454,8.9417,8.861,8.6995,8.6995,8.6995,8.6995,8.6995,8.6995,0.0,0.0,0.0,0.0,0.0,0.0,0.0,0.0,0.0,0.0,0.0,0.0,0.0,0.0,0.0,0.0,0.0,0.0,0.0,0.0,0.0,0.0,0.0,0.0,0.0,0.0,0.0,0.0,0.0,0.0,0.0,0.0,9.8594,9.7897,9.9071,9.9108,9.7897,9.7493,9.6685,9.5511,9.5217,9.4963,9.4741,9.4296,9.3702,9.3221,9.3807,9.4302,9.4717,9.4819,9.5153,9.5598,9.5598,9.5598,9.5598,9.5598,9.5598,9.5598,9.5598,9.5713,9.6019,9.728,9.7853,9.8349,9.9763,10.0298,10.0413,10.0604,10.0604,10.0604,10.0604,10.0604,10.0604,10.0604,10.0604,10.0604,10.0604,10.0604,10.0604,10.0604,10.0604,10.0604,10.0604,10.0113,9.9236,9.7945,9.7983,9.74,9.5362,9.6,9.618,9.4844,9.4679,9.447,9.3897,9.3781,9.3723,9.3723,9.3723,9.3424,9.2802,9.2933,9.1861,8.9454,8.9417,8.861,8.6995,8.6995,8.6995,8.6995,8.6995,8.6995,0.0,0.0,0.0,0.0,0.0,0.0,0.0,0.0,0.0,0.0,0.0,0.0,0.0,0.0,0.0,0.0,0.0,0.0,0.0,0.0,0.0,0.0,0.0,0.0,0.0,0.0,0.0,0.0,0.0,0.0,0.0,9.7603,9.8007,9.7897,9.7419,9.7419,9.7897,9.5804,9.5034,9.5474,9.4116,9.3305,9.3136,9.3004,9.3556,9.4617,9.463,9.4636,9.4769,9.5248,9.5554,9.5598,9.5598,9.5598,9.5598,9.5598,9.5598,9.5598,9.5598,9.6095,9.663,9.6095,9.6936,9.8158,9.8388,9.8961,9.9725,10.0413,10.0604,10.0604,10.0604,10.0604,10.0604,10.0604,10.0604,10.0604,10.0604,10.0604,10.0604,10.0604,10.0604,10.0604,10.0604,9.9984,9.9593,10.009,9.841,9.7048,9.6906,9.6239,9.5494,9.4769,9.4679,9.4628,9.4576,9.401,9.3723,9.3723,9.3723,9.3424,9.2802,9.3301,9.2242,8.9454,8.9417,8.861,8.6995,8.6995,8.6995,8.6995,8.6995,8.6995,0.0,0.0,0.0,0.0,0.0,0.0,0.0,0.0,0.0,0.0,0.0,0.0,0.0,0.0,0.0,0.0,0.0,0.0,0.0,0.0,0.0,0.0,0.0,0.0,0.0,0.0,0.0,0.0,0.0,0.0,9.6685,9.7456,9.7493,9.6575,9.6649,9.6428,9.5878,9.4813,9.4263,9.4153,9.3339,9.3041,9.3339,9.3701,9.418,9.4761,9.4727,9.487,9.5201,9.5471,9.5598,9.5598,9.5598,9.5598,9.5598,9.5598,9.5598,9.5598,9.5598,9.5866,9.6172,9.6286,9.6821,9.7623,9.8541,9.9114,9.9572,10.0413,10.0604,10.0604,10.0604,10.0604,10.0604,10.0604,10.0604,10.0604,10.0604,10.0604,10.0604,10.0604,10.0604,10.0604,10.0604,10.0298,9.9992,9.9954,9.8579,9.7417,9.7077,9.6188,9.5471,9.5248,9.5201,9.5201,9.5201,9.4931,9.4782,9.4782,9.4782,9.4485,9.3877,9.4104,9.2913,9.0002,8.9965,8.8988,8.6995,8.6995,8.6995,8.6995,8.6995,8.6995,0.0,0.0,0.0,0.0,0.0,0.0,0.0,0.0,0.0,0.0,0.0,0.0,0.0,0.0,0.0,0.0,0.0,0.0,0.0,0.0,0.0,0.0,0.0,0.0,0.0,0.0,0.0,0.0,0.0,0.0,9.6685,9.6869,9.6539,9.5547,9.5694,9.5327,9.4299,9.4079,9.3565,9.2758,9.2801,9.3088,9.3723,9.4378,9.4819,9.492,9.492,9.5201,9.5598,9.5598,9.5598,9.5598,9.5598,9.5598,9.5598,9.5598,9.5598,9.5598,9.5598,9.5598,9.5713,9.6363,9.6554,9.6821,9.8311,9.8923,9.9228,10.0107,10.0413,10.0604,10.0298,10.0413,10.0489,10.0298,10.0298,10.0413,10.0604,10.0604,10.0604,10.0604,10.0604,10.0604,10.0604,10.0604,10.0413,9.9801,9.8808,9.7891,9.728,9.6286,9.5598,9.5598,9.5598,9.5598,9.5598,9.5598,9.5598,9.5598,9.5598,9.5333,9.4679,9.4679,9.3313,9.0488,9.0387,8.9284,8.6995,8.6995,8.7105,8.7325,8.7105,8.7105,0.0,0.0,0.0,0.0,0.0,0.0,0.0,0.0,0.0,0.0,0.0,0.0,0.0,0.0,0.0,0.0,0.0,0.0,0.0,0.0,0.0,0.0,0.0,0.0,0.0,0.0,0.0,0.0,0.0,9.5914,9.6649,9.529,9.4813,9.5474,9.4079,9.3602,9.4299,9.3529,9.2721,9.1877,9.2505,9.3088,9.3723,9.4378,9.5018,9.5554,9.5554,9.5598,9.5598,9.5598,9.5598,9.5598,9.5598,9.5598,9.5598,9.5598,9.5598,9.5598,9.5598,9.5598,9.5598,9.5637,9.5675,9.5828,9.6745,9.7547,9.8349,9.9228,9.9992,10.0413,9.9649,9.9992,10.0413,9.9649,9.9458,9.9649,10.0413,10.0604,10.0604,10.0604,10.0604,10.0604,10.0604,10.0604,10.0604,10.0489,9.9152,9.8082,9.8044,9.6592,9.5598,9.5598,9.5598,9.5598,9.5598,9.5598,9.5598,9.5598,9.5598,9.5333,9.4679,9.4679,9.3313,9.0488,9.0387,8.9284,8.6995,8.6995,8.7399,8.8133,8.7362,8.7435,0.0,0.0,0.0,0.0,0.0,0.0,0.0,0.0,0.0,0.0,0.0,0.0,0.0,0.0,0.0,0.0,0.0,0.0,0.0,0.0,0.0,0.0,0.0,0.0,0.0,0.0,0.0,0.0,0.0,0.0,9.5914,9.4887,9.4189,9.3969,9.3418,9.2978,9.2684,9.1913,9.1505,9.1623,9.1334,9.1731,9.2776,9.3515,9.422,9.4872,9.5369,9.5598,9.5598,9.5598,9.5598,9.5598,9.5598,9.5598,9.5598,9.5598,9.5598,9.5598,9.5598,9.5598,9.5598,9.5598,9.5598,9.5751,9.663,9.7089,9.7509,9.8349,9.919,9.9763,9.9458,9.961,9.961,9.877,9.9381,10.0107,9.9878,10.0183,10.0604,10.0604,10.0604,10.0604,10.0604,10.0604,10.0604,10.0604,9.919,9.812,9.812,9.663,9.5598,9.5598,9.5598,9.5598,9.5598,9.5598,9.5598,9.5598,9.5598,9.5471,9.5295,9.492,9.3569,9.1029,9.0603,8.9543,8.7766,8.7252,8.7435,8.8169,8.7362,8.7142,0.0,0.0,0.0,0.0,0.0,0.0,0.0,0.0,0.0,0.0,0.0,0.0,0.0,0.0,0.0,0.0,0.0,0.0,0.0,0.0,0.0,0.0,0.0,0.0,0.0,0.0,0.0,0.0,0.0,0.0,9.507,9.4042,9.3088,9.2281,9.2537,9.2134,9.1033,9.0916,9.1,9.113,9.1012,9.1395,9.2254,9.3287,9.3982,9.4452,9.5255,9.5598,9.5598,9.5598,9.5598,9.5598,9.5598,9.5598,9.5598,9.5598,9.5598,9.5598,9.5598,9.5598,9.5598,9.5598,9.5598,9.5713,9.6286,9.6668,9.7012,9.7547,9.8311,9.8961,9.8961,9.919,9.919,9.8311,9.9381,10.0298,9.919,9.984,10.0604,10.0604,10.0604,10.0604,10.0604,10.0604,10.0604,10.0604,9.919,9.812,9.812,9.663,9.5598,9.5598,9.5598,9.5598,9.5598,9.5598,9.5598,9.5598,9.5598,9.5598,9.5598,9.4782,9.3423,9.1339,9.0477,8.9424,8.8206,8.7655,8.7839,8.8573,8.7802,8.7252,0.0,0.0,0.0,0.0,0.0,0.0,0.0,0.0,0.0,0.0,0.0,0.0,0.0,0.0,0.0,0.0,0.0,0.0,0.0,0.0,0.0,0.0,0.0,0.0,0.0,0.0,0.0,0.0,0.0,9.3455,9.4226,9.2684,9.1436,9.0629,9.1363,9.0996,8.9454,9.0735,9.1028,9.0276,9.1525,9.209,9.2178,9.3694,9.4376,9.4414,9.5255,9.5598,9.5598,9.5598,9.5598,9.5598,9.5598,9.5598,9.5598,9.5598,9.5598,9.5598,9.5598,9.5598,9.5598,9.5598,9.5598,9.5598,9.5598,9.6172,9.6859,9.6859,9.7471,9.812,9.812,9.877,9.919,9.8311,9.9381,10.0107,9.8502,9.9458,10.0604,10.0604,10.0604,10.0604,10.0604,10.0604,10.0604,10.0604,9.919,9.812,9.812,9.6668,9.5637,9.5598,9.5598,9.5598,9.5598,9.5598,9.5598,9.5598,9.5598,9.5598,9.5598,9.4378,9.2934,9.1377,9.0099,8.905,8.828,8.8206,8.8573,8.9381,8.8536,8.7766,6.9119,0.0,0.0,0.0,0.0,0.0,0.0,8.2517,0.0,0.0,0.0,0.0,0.0,0.0,0.0,0.0,0.0,0.0,0.0,0.0,0.0,0.0,0.0,0.0,0.0,0.0,0.0,0.0,9.3565,9.3198,9.3418,9.2391,9.1436,9.0629,9.0812,9.0445,8.9417,8.9224,8.9461,9.0055,8.9836,9.0196,9.1102,9.2684,9.3459,9.3535,9.4987,9.5598,9.5598,9.5598,9.5598,9.5598,9.5598,9.5598,9.5598,9.5598,9.5598,9.5598,9.5598,9.5598,9.5598,9.5598,9.5598,9.5598,9.5598,9.5751,9.5942,9.5942,9.6974,9.8273,9.8884,9.9649,9.9916,9.8464,9.9381,10.0298,9.9266,9.9878,10.0604,10.0604,10.0604,10.0604,10.0604,10.0604,10.0604,10.0604,9.9725,9.8808,9.8197,9.7203,9.6286,9.5675,9.5598,9.5598,9.5598,9.5598,9.5598,9.5598,9.5598,9.5598,9.5598,9.4378,9.3197,9.2203,9.0913,9.0152,8.9931,8.8206,8.7766,8.85,8.7729,8.7215,0.0,0.0,0.0,0.0,0.0,0.0,7.98,8.0498,8.1709,0.0,0.0,0.0,0.0,0.0,0.0,0.0,0.0,0.0,0.0,0.0,0.0,0.0,0.0,0.0,0.0,0.0,0.0,9.2758,9.2648,9.2427,9.206,9.1583,9.0776,8.9638,8.9931,8.9564,8.8426,8.8782,8.9126,8.9517,8.9551,8.9944,9.0669,9.2351,9.3115,9.3191,9.4872,9.5598,9.5598,9.5598,9.5598,9.5598,9.5598,9.5598,9.5598,9.5598,9.5598,9.5598,9.5598,9.5598,9.5598,9.5598,9.5598,9.5598,9.5598,9.5598,9.5598,9.5598,9.6554,9.7738,9.8235,9.8961,9.9228,9.7929,9.8617,9.9419,9.8961,9.9496,10.0183,10.0489,10.0604,10.0604,10.0604,10.0604,10.0604,10.0604,9.9916,9.9075,9.8235,9.7394,9.6554,9.5675,9.5598,9.5598,9.5598,9.5598,9.5598,9.5598,9.5598,9.5598,9.5598,9.4679,9.3634,9.2541,9.1539,9.0578,8.9601,8.8536,8.8096,8.8169,8.7362,8.6995,0.0,0.0,0.0,0.0,0.0,0.0,7.9653,7.9507,7.969,0.0,0.0,0.0,0.0,0.0,0.0,0.0,0.0,0.0,0.0,0.0,0.0,0.0,0.0,0.0,0.0,9.0482,9.0482,9.0482,9.1143,9.1216,9.0519,9.0482,8.9784,8.8243,8.8904,8.8536,8.7031,8.8791,8.9347,8.8804,8.9897,9.0465,9.0669,9.2236,9.3,9.3191,9.4796,9.5522,9.5598,9.5598,9.5598,9.5598,9.5598,9.5598,9.5598,9.5598,9.5598,9.5598,9.5598,9.5598,9.5598,9.5598,9.5598,9.5598,9.5598,9.5598,9.5598,9.5713,9.6286,9.6936,9.7012,9.7585,9.7929,9.7203,9.7585,9.812,9.812,9.8693,9.9458,10.0183,10.0489,10.0604,10.0489,10.0489,10.0604,10.0604,9.9992,9.919,9.8235,9.7471,9.6668,9.5713,9.5598,9.5598,9.5598,9.5598,9.5598,9.5598,9.5598,9.5598,9.5598,9.5018,9.4038,9.2692,9.2007,9.055,8.8316,8.8867,8.8793,8.8059,8.7325,8.6995,0.0,0.0,0.0,0.0,0.0,0.0,7.6864,7.7855,7.936,0.0,0.0,0.0,0.0,0.0,0.0,0.0,0.0,0.0,0.0,0.0,0.0,0.0,0.0,0.0,0.0,8.9638,8.9638,8.9638,8.9784,8.9821,8.9674,8.9638,8.9197,8.8243,8.8353,8.7986,8.7031,8.7378,8.8021,8.8804,8.9023,8.9665,9.0631,9.1625,9.2427,9.3153,9.4185,9.4987,9.5598,9.5598,9.5598,9.5598,9.5598,9.5598,9.5598,9.5598,9.5598,9.5598,9.5598,9.5598,9.5598,9.5598,9.5598,9.5598,9.5598,9.5598,9.5751,9.6439,9.6783,9.705,9.77,9.8006,9.8082,9.7891,9.8006,9.812,9.812,9.8235,9.8426,9.8579,9.9687,10.0413,9.9763,10.0183,10.0604,10.0604,10.0489,9.984,9.8311,9.7967,9.728,9.5751,9.5598,9.5598,9.5598,9.5598,9.5598,9.5598,9.5598,9.5598,9.5598,9.5018,9.4303,9.346,9.2343,9.0882,8.916,8.8023,8.7399,8.7252,8.7068,8.6995,0.0,0.0,0.0,7.4808,0.0,0.0,0.0,7.646,7.7451,0.0,0.0,0.0,0.0,0.0,0.0,0.0,0.0,0.0,0.0,0.0,0.0,0.0,0.0,0.0,0.0,8.8793,8.8977,8.9381,8.9417,8.9234,8.883,8.8793,8.8426,8.7619,8.7619,8.7435,8.6995,8.7298,8.7898,8.8804,8.9114,8.9714,9.0631,9.1434,9.2274,9.3153,9.4032,9.4872,9.5598,9.5598,9.5598,9.5598,9.5598,9.5598,9.5598,9.5598,9.5598,9.5598,9.5598,9.5598,9.5598,9.5598,9.5598,9.5598,9.5598,9.5598,9.5675,9.6133,9.6248,9.6324,9.6745,9.6859,9.6859,9.6859,9.6859,9.6974,9.7432,9.7509,9.7509,9.7509,9.8502,9.9381,9.9381,9.9725,9.9992,9.9992,9.9992,9.9381,9.7738,9.7509,9.7012,9.5751,9.5598,9.5598,9.5598,9.5598,9.5598,9.5598,9.5598,9.5598,9.5598,9.5295,9.4679,9.3723,9.1985,9.0504,8.9417,8.7802,8.6995,8.6995,8.6995,8.6995,0.0,0.0,0.0,0.0,0.0,7.5647,0.0,0.0,0.0,0.0,0.0,0.0,0.0,0.0,0.0,0.0,0.0,0.0,0.0,0.0,0.0,0.0,0.0,0.0,0.0,8.8088,8.8345,8.8904,8.9081,8.8787,8.8023,8.7986,8.7655,8.7031,8.6995,8.6995,8.6995,8.746,8.8083,8.8804,8.9324,8.9897,9.0631,9.1281,9.2121,9.3153,9.3841,9.472,9.5598,9.5598,9.5598,9.5598,9.5598,9.5598,9.5598,9.5598,9.5598,9.5598,9.5598,9.5598,9.5598,9.5598,9.5598,9.5598,9.5598,9.5598,9.5598,9.5598,9.5598,9.5598,9.5598,9.5598,9.5598,9.5598,9.5598,9.5789,9.6515,9.663,9.663,9.663,9.7165,9.7929,9.8961,9.9266,9.9381,9.9381,9.9381,9.877,9.7127,9.6898,9.6554,9.5675,9.5598,9.5598,9.5598,9.5598,9.5598,9.5598,9.5598,9.5598,9.5598,9.5341,9.4706,9.346,9.1497,9.0039,8.9197,8.7876,8.7142,8.6995,8.6995,8.6995,0.0,0.0,0.0,0.0,7.7546,0.0,0.0,0.0,0.0,0.0,0.0,0.0,0.0,0.0,0.0,0.0,0.0,0.0,0.0,0.0,0.0,0.0,0.0,0.0,0.0,0.0,8.7739,8.7358,8.7784,8.7813,8.7142,8.7142,8.7105,8.6995,8.6995,8.6995,8.6995,8.7064,8.7683,8.8804,8.8859,8.9478,9.0593,9.0708,9.1625,9.3115,9.3191,9.4146,9.5598,9.5598,9.5598,9.5598,9.5598,9.5598,9.5598,9.5598,9.5598,9.5598,9.5598,9.5598,9.5598,9.5598,9.5598,9.5598,9.5598,9.5598,9.5598,9.5598,9.5598,9.5598,9.5598,9.5598,9.5598,9.5598,9.5598,9.5637,9.5713,9.5751,9.5751,9.5751,9.5828,9.6401,9.7967,9.8884,9.9381,9.9381,9.9381,9.877,9.7127,9.6898,9.6554,9.5675,9.5598,9.5598,9.5598,9.5598,9.5598,9.5598,9.5598,9.5598,9.5598,9.4538,9.352,9.2692,9.1276,8.9819,8.8353,8.8169,8.7692,8.6995,8.6995,8.6995,0.0,0.0,0.0,0.0,0.0,0.0,0.0,0.0,7.8447,0.0,0.0,0.0,0.0,0.0,0.0,0.0,0.0,0.0,0.0,0.0,0.0,0.0,0.0,0.0,0.0,0.0,0.0,0.0,0.0,8.7077,8.6334,8.6738,8.6995,8.6995,8.7365,8.7526,8.7526,8.7836,8.8463,8.9324,8.9324,8.9763,9.0593,9.0593,9.151,9.3115,9.3115,9.4032,9.5598,9.5598,9.5904,9.6363,9.6363,9.6057,9.5637,9.6172,9.6019,9.5598,9.5598,9.5598,9.5598,9.5598,9.5598,9.5598,9.5598,9.5598,9.5598,9.5598,9.5598,9.5598,9.5598,9.5598,9.5598,9.5598,9.5598,9.5598,9.5598,9.5598,9.5598,9.5598,9.5598,9.5981,9.7203,9.8082,9.8502,9.8006,9.8349,9.8044,9.6363,9.6133,9.6019,9.5637,9.5598,9.5598,9.5598,9.5598,9.5598,9.5598,9.5598,9.5598,9.5598,9.5067,9.4262,9.3078,9.1702,9.0276,8.8709,8.7899,8.7325,8.6995,8.6995,8.6995,7.8462,0.0,0.0,0.0,0.0,0.0,0.0,0.0,0.0,0.0,0.0,0.0,0.0,0.0,0.0,0.0,0.0,0.0,0.0,0.0,0.0,0.0,0.0,0.0,0.0,0.0,0.0,8.516,8.6195,8.6472,8.5721,8.6072,8.6623,8.7231,8.7683,8.796,8.8144,8.8578,8.9076,8.9714,8.9714,8.9991,9.0593,9.0593,9.1395,9.2771,9.3,9.3917,9.5293,9.5751,9.6324,9.6936,9.7394,9.6936,9.6019,9.6668,9.6363,9.5598,9.5598,9.5598,9.5598,9.5598,9.5598,9.5598,9.5598,9.5598,9.5598,9.5598,9.5598,9.5598,9.5598,9.5598,9.5598,9.5598,9.5598,9.5598,9.5598,9.5598,9.5598,9.5598,9.5598,9.5789,9.6439,9.7241,9.7585,9.6974,9.7394,9.7241,9.5789,9.5598,9.5598,9.5598,9.5598,9.5598,9.5598,9.5598,9.5598,9.5598,9.5407,9.5255,9.5255,9.4853,9.4049,9.2746,9.1542,9.0243,8.879,8.7756,8.7163,8.6995,8.6995,8.6995,0.0,0.0,0.0,8.0772,0.0,0.0,0.0,0.0,8.1423,0.0,0.0,0.0,0.0,0.0,0.0,0.0,0.0,0.0,0.0,0.0,0.0,0.0,0.0,0.0,0.0,0.0,0.0,8.6367,8.6346,8.6125,8.546,8.494,8.5677,8.7799,8.7898,8.8205,8.8748,8.8804,8.9076,8.9714,8.9714,8.9991,9.0593,9.0593,9.1052,9.1892,9.2733,9.3612,9.4567,9.621,9.6859,9.705,9.8693,9.8311,9.6859,9.6898,9.6363,9.5598,9.5598,9.5598,9.5598,9.5598,9.5598,9.5598,9.5598,9.5598,9.5598,9.5598,9.5598,9.5598,9.5598,9.5598,9.5598,9.5598,9.5598,9.5598,9.5598,9.5598,9.5598,9.5598,9.5598,9.5598,9.5637,9.6363,9.6936,9.6898,9.6936,9.6592,9.5713,9.5598,9.5598,9.5598,9.5598,9.5598,9.5598,9.5598,9.5598,9.5598,9.4872,9.4452,9.4452,9.3079,9.1875,9.1003,9.0357,8.9323,8.7935,8.7873,8.7554,8.6995,8.6995,8.6995,0.0,0.0,8.3713,8.2722,0.0,0.0,0.0,0.0,0.0,0.0,0.0,0.0,0.0,0.0,0.0,8.2796,8.3409,0.0,0.0,0.0,0.0,0.0,0.0,0.0,0.0,0.0,0.0,8.3489,8.3843,8.3886,8.3345,8.4469,8.554,8.6517,8.7785,8.8578,8.8804,8.9578,9.0083,9.0295,9.0295,9.0383,9.0593,9.0593,9.1052,9.1854,9.2733,9.3917,9.5293,9.6439,9.7547,9.8617,9.919,9.8693,9.77,9.77,9.6821,9.5598,9.5598,9.5598,9.5598,9.5598,9.5598,9.5598,9.5598,9.5598,9.5598,9.5598,9.5598,9.5598,9.5598,9.5598,9.5598,9.5598,9.5598,9.5598,9.5598,9.5598,9.5598,9.5598,9.5598,9.5598,9.5598,9.5828,9.6019,9.6019,9.6515,9.6592,9.5713,9.5598,9.5598,9.5598,9.5598,9.5598,9.5598,9.5598,9.5369,9.4834,9.4567,9.4146,9.3573,9.3053,9.2353,9.1521,9.0889,9.0117,8.9076,8.8692,8.8205,8.7655,8.8022,8.7746,8.4506,8.4959,0.0,8.422,8.4007,0.0,8.2562,0.0,0.0,0.0,0.0,0.0,0.0,0.0,0.0,8.3786,8.3903,8.3332,0.0,8.1078,0.0,0.0,0.0,0.0,0.0,0.0,8.3576,8.1275,8.1659,8.1866,0.0,0.0,8.4694,8.5916,8.7545,8.8613,8.9076,8.9897,9.0383,9.0593,9.0593,9.0593,9.0593,9.0593,9.0899,9.1434,9.2274,9.3612,9.5255,9.6439,9.7891,9.9419,9.9725,9.9114,9.812,9.812,9.705,9.5598,9.5598,9.5598,9.5598,9.5598,9.5598,9.5598,9.5598,9.5598,9.5713,9.6324,9.6057,9.5751,9.6324,9.6057,9.5598,9.5598,9.5598,9.5598,9.5598,9.5598,9.5598,9.5598,9.5598,9.5598,9.5598,9.5598,9.5598,9.5598,9.6095,9.6248,9.5675,9.5598,9.5598,9.5598,9.5598,9.5598,9.5598,9.5598,9.5369,9.4872,9.4567,9.4146,9.3612,9.2962,9.2656,9.2733,9.1431,9.0742,9.0586,8.9589,8.8804,8.8265,8.8635,8.8265]},{"header":{"parameterUnit":"m.s-1","parameterCategory":1,"la1":30.6,"la2":29.2853,"lo1":-89.7004,"lo2":-87.6739,"dy":0.0162,"dx":0.0183,"nx":112,"ny":82,"refTime":"2023-10-12T00:00:00:Z","depth":0,"parameterNumber":3,"parameterNumberName":"V-component_of_WINDS"},"data":[0.0,0.0,0.0,0.0,0.0,0.0,0.0,0.0,0.0,0.0,0.0,0.0,0.0,0.0,0.0,0.0,0.0,0.0,0.0,0.0,0.0,0.0,0.0,0.0,0.0,0.0,0.0,0.0,0.0,0.0,0.0,0.0,0.0,0.0,0.0,0.0,0.0,0.0,0.0,0.0,0.0,0.0,0.0,0.0,0.0,0.0,0.0,0.0,0.0,0.0,0.0,0.0,0.0,0.0,0.0,0.0,0.0,0.0,0.0,0.0,0.0,0.0,0.0,0.0,0.0,0.0,0.0,0.0,0.0,0.0,0.0,0.0,0.0,0.0,0.0,0.0,0.0,0.0,0.0,0.0,0.0,0.0,0.0,0.0,0.0,0.0,0.0,0.0,0.0,0.0,0.0,-3.1764,-3.4165,-3.5577,-3.5247,-3.4935,-3.3835,-3.1708,0.0,0.0,0.0,0.0,0.0,0.0,0.0,0.0,0.0,0.0,0.0,0.0,0.0,0.0,0.0,0.0,0.0,0.0,0.0,0.0,0.0,0.0,0.0,0.0,0.0,0.0,0.0,0.0,0.0,0.0,0.0,0.0,0.0,0.0,0.0,0.0,0.0,0.0,0.0,0.0,0.0,0.0,0.0,0.0,0.0,0.0,0.0,0.0,0.0,0.0,0.0,0.0,0.0,0.0,0.0,0.0,0.0,0.0,0.0,0.0,0.0,0.0,0.0,0.0,0.0,0.0,0.0,0.0,0.0,0.0,0.0,0.0,0.0,0.0,0.0,0.0,0.0,0.0,0.0,0.0,0.0,0.0,0.0,0.0,0.0,0.0,0.0,0.0,0.0,0.0,0.0,0.0,0.0,0.0,0.0,0.0,0.0,0.0,0.0,0.0,0.0,0.0,0.0,0.0,-3.1002,-3.3633,-3.5247,-3.6091,-3.6036,-3.4477,-3.3193,-3.2459,0.0,0.0,0.0,0.0,0.0,0.0,0.0,0.0,0.0,0.0,0.0,0.0,0.0,0.0,0.0,0.0,0.0,0.0,0.0,0.0,0.0,0.0,0.0,0.0,0.0,0.0,0.0,0.0,0.0,0.0,0.0,0.0,0.0,0.0,0.0,0.0,0.0,0.0,0.0,0.0,0.0,0.0,0.0,0.0,0.0,0.0,0.0,0.0,0.0,0.0,0.0,0.0,0.0,0.0,0.0,0.0,0.0,0.0,0.0,0.0,0.0,0.0,0.0,0.0,0.0,0.0,0.0,0.0,0.0,0.0,0.0,0.0,0.0,0.0,0.0,0.0,0.0,0.0,0.0,0.0,0.0,0.0,0.0,0.0,0.0,0.0,0.0,0.0,0.0,0.0,0.0,0.0,0.0,0.0,0.0,0.0,0.0,0.0,0.0,0.0,0.0,0.0,0.0,-3.071,-3.2243,-3.4495,-3.5614,-3.6201,-3.6201,-3.4568,-3.3266,-3.2643,-3.1267,0.0,0.0,0.0,0.0,0.0,0.0,0.0,0.0,0.0,0.0,0.0,0.0,0.0,0.0,0.0,0.0,0.0,0.0,0.0,0.0,0.0,0.0,0.0,0.0,0.0,0.0,0.0,0.0,0.0,0.0,0.0,0.0,0.0,0.0,0.0,0.0,0.0,0.0,0.0,0.0,0.0,0.0,0.0,0.0,0.0,0.0,0.0,0.0,0.0,0.0,0.0,0.0,0.0,0.0,0.0,0.0,0.0,0.0,0.0,0.0,0.0,0.0,0.0,0.0,0.0,0.0,0.0,0.0,0.0,0.0,0.0,0.0,0.0,0.0,0.0,0.0,0.0,0.0,0.0,0.0,0.0,0.0,0.0,0.0,0.0,0.0,0.0,0.0,0.0,0.0,0.0,0.0,0.0,0.0,0.0,0.0,0.0,0.0,0.0,0.0,0.0,0.0,-3.2226,-3.3285,-3.5119,-3.5852,-3.6164,-3.6072,-3.4605,-3.3321,-3.2514,-3.0937,0.0,0.0,0.0,0.0,0.0,0.0,0.0,0.0,0.0,0.0,0.0,0.0,0.0,0.0,0.0,0.0,0.0,0.0,0.0,0.0,0.0,0.0,0.0,0.0,0.0,0.0,0.0,0.0,0.0,0.0,0.0,0.0,0.0,0.0,0.0,0.0,0.0,0.0,0.0,0.0,0.0,0.0,0.0,0.0,0.0,0.0,0.0,0.0,0.0,0.0,0.0,0.0,0.0,0.0,0.0,0.0,0.0,0.0,0.0,0.0,0.0,0.0,0.0,0.0,0.0,0.0,0.0,0.0,0.0,0.0,0.0,0.0,0.0,0.0,0.0,0.0,0.0,0.0,0.0,0.0,0.0,0.0,0.0,0.0,0.0,0.0,0.0,0.0,0.0,0.0,0.0,0.0,0.0,0.0,0.0,0.0,0.0,0.0,0.0,0.0,0.0,0.0,-3.2445,-3.3505,-3.587,-3.6182,-3.6054,-3.5687,-3.4183,-3.2918,-3.2093,-3.0516,0.0,0.0,0.0,0.0,0.0,0.0,0.0,0.0,0.0,0.0,0.0,0.0,0.0,0.0,0.0,0.0,0.0,0.0,0.0,0.0,0.0,0.0,0.0,0.0,0.0,0.0,0.0,0.0,0.0,0.0,0.0,0.0,0.0,0.0,0.0,0.0,0.0,0.0,0.0,0.0,0.0,0.0,0.0,0.0,0.0,0.0,0.0,0.0,0.0,0.0,0.0,0.0,0.0,0.0,0.0,0.0,0.0,0.0,0.0,0.0,0.0,0.0,0.0,0.0,0.0,0.0,0.0,0.0,0.0,0.0,0.0,0.0,0.0,0.0,0.0,0.0,0.0,0.0,0.0,0.0,0.0,0.0,0.0,0.0,0.0,0.0,0.0,0.0,0.0,0.0,0.0,0.0,0.0,0.0,0.0,0.0,0.0,0.0,0.0,0.0,0.0,0.0,-3.257,-3.3817,0.0,-3.6201,-3.6054,-3.565,-3.4147,-3.2881,-3.2056,0.0,0.0,0.0,0.0,0.0,0.0,0.0,0.0,0.0,0.0,0.0,0.0,0.0,0.0,0.0,0.0,0.0,0.0,0.0,0.0,0.0,0.0,0.0,0.0,0.0,0.0,0.0,0.0,0.0,0.0,0.0,0.0,0.0,0.0,0.0,0.0,0.0,0.0,0.0,0.0,0.0,0.0,0.0,0.0,0.0,0.0,0.0,0.0,0.0,0.0,0.0,0.0,0.0,0.0,0.0,0.0,0.0,0.0,0.0,0.0,0.0,0.0,0.0,0.0,0.0,0.0,0.0,0.0,0.0,0.0,0.0,0.0,0.0,0.0,0.0,0.0,0.0,0.0,0.0,0.0,0.0,0.0,0.0,0.0,0.0,0.0,0.0,0.0,0.0,0.0,0.0,0.0,0.0,0.0,0.0,0.0,0.0,0.0,0.0,0.0,0.0,0.0,-3.1708,-3.2716,-3.3945,0.0,-3.6127,-3.5999,-3.5467,-3.3526,-3.1989,-3.1181,0.0,0.0,0.0,0.0,0.0,0.0,0.0,0.0,0.0,0.0,0.0,0.0,0.0,0.0,0.0,0.0,0.0,0.0,0.0,0.0,0.0,0.0,0.0,0.0,0.0,0.0,0.0,0.0,0.0,0.0,0.0,0.0,0.0,0.0,0.0,0.0,0.0,0.0,0.0,0.0,0.0,0.0,0.0,0.0,0.0,0.0,0.0,0.0,0.0,0.0,0.0,0.0,0.0,0.0,0.0,0.0,0.0,0.0,0.0,0.0,0.0,0.0,0.0,0.0,0.0,0.0,0.0,0.0,0.0,0.0,0.0,0.0,0.0,0.0,0.0,0.0,0.0,0.0,0.0,0.0,0.0,0.0,0.0,0.0,0.0,0.0,0.0,0.0,0.0,0.0,0.0,0.0,0.0,0.0,0.0,0.0,0.0,0.0,0.0,0.0,0.0,0.0,-3.1744,-3.2716,-3.3835,-3.5449,-3.5981,-3.5889,-3.51,-3.2261,-3.0204,0.0,0.0,0.0,0.0,0.0,0.0,0.0,0.0,0.0,0.0,0.0,0.0,0.0,0.0,0.0,0.0,0.0,0.0,0.0,0.0,0.0,0.0,0.0,0.0,0.0,0.0,0.0,0.0,0.0,0.0,0.0,0.0,0.0,0.0,0.0,0.0,0.0,0.0,0.0,0.0,0.0,0.0,0.0,0.0,0.0,0.0,0.0,0.0,0.0,0.0,0.0,0.0,0.0,0.0,0.0,0.0,0.0,0.0,0.0,0.0,0.0,0.0,0.0,0.0,0.0,0.0,0.0,0.0,0.0,0.0,0.0,0.0,0.0,0.0,0.0,0.0,0.0,0.0,0.0,0.0,0.0,0.0,0.0,0.0,0.0,0.0,0.0,0.0,0.0,0.0,0.0,0.0,0.0,0.0,0.0,0.0,0.0,0.0,0.0,0.0,0.0,0.0,0.0,-3.1781,-3.2955,-3.4147,-3.5485,-3.5981,-3.5428,-3.3599,-3.193,-3.0072,-2.7981,0.0,0.0,0.0,0.0,0.0,0.0,0.0,0.0,0.0,0.0,0.0,0.0,0.0,0.0,0.0,0.0,0.0,0.0,0.0,0.0,0.0,0.0,0.0,0.0,0.0,0.0,0.0,0.0,0.0,0.0,0.0,0.0,0.0,0.0,0.0,0.0,0.0,0.0,0.0,0.0,0.0,0.0,0.0,0.0,0.0,0.0,0.0,0.0,0.0,0.0,0.0,0.0,0.0,0.0,0.0,0.0,0.0,0.0,0.0,0.0,0.0,0.0,0.0,0.0,0.0,0.0,0.0,0.0,0.0,0.0,0.0,0.0,0.0,0.0,0.0,0.0,0.0,0.0,0.0,0.0,0.0,0.0,0.0,0.0,0.0,0.0,0.0,0.0,0.0,0.0,0.0,0.0,0.0,0.0,0.0,0.0,0.0,0.0,0.0,0.0,0.0,0.0,-3.1598,-3.2955,-3.422,-3.5265,-3.5136,-3.4345,-3.2836,-3.0468,-2.8429,-2.6568,0.0,0.0,0.0,0.0,0.0,0.0,0.0,0.0,0.0,0.0,0.0,0.0,0.0,0.0,0.0,0.0,0.0,0.0,0.0,0.0,0.0,0.0,0.0,0.0,0.0,0.0,0.0,0.0,0.0,0.0,0.0,0.0,0.0,0.0,0.0,0.0,0.0,0.0,0.0,0.0,0.0,0.0,0.0,0.0,0.0,0.0,0.0,0.0,0.0,0.0,0.0,0.0,0.0,0.0,0.0,0.0,0.0,0.0,0.0,0.0,0.0,0.0,0.0,0.0,0.0,0.0,0.0,0.0,0.0,0.0,0.0,0.0,0.0,0.0,0.0,0.0,0.0,0.0,0.0,0.0,0.0,0.0,0.0,0.0,0.0,0.0,0.0,0.0,0.0,0.0,0.0,0.0,0.0,0.0,0.0,0.0,0.0,0.0,0.0,0.0,0.0,0.0,-3.1011,-3.2484,-3.3635,-3.445,-3.3664,-3.2833,-3.2329,-2.8569,-2.6011,-2.5368,0.0,0.0,0.0,0.0,0.0,0.0,0.0,0.0,0.0,0.0,0.0,0.0,0.0,0.0,0.0,0.0,0.0,0.0,0.0,0.0,0.0,0.0,0.0,0.0,0.0,0.0,0.0,0.0,0.0,0.0,0.0,0.0,0.0,0.0,0.0,0.0,0.0,0.0,0.0,0.0,0.0,0.0,0.0,0.0,0.0,0.0,0.0,0.0,0.0,0.0,0.0,0.0,0.0,0.0,0.0,0.0,0.0,0.0,0.0,0.0,-2.5865,0.0,0.0,0.0,0.0,0.0,0.0,0.0,0.0,0.0,0.0,0.0,0.0,0.0,0.0,0.0,0.0,0.0,0.0,0.0,0.0,0.0,0.0,0.0,0.0,0.0,0.0,0.0,0.0,0.0,0.0,0.0,0.0,0.0,0.0,0.0,0.0,0.0,0.0,0.0,0.0,0.0,-2.944,-2.9766,-3.0069,-3.0809,-3.0909,-3.0383,-2.871,-2.7371,-2.5838,-2.3899,0.0,0.0,0.0,0.0,0.0,0.0,0.0,0.0,0.0,0.0,0.0,0.0,0.0,0.0,0.0,0.0,0.0,0.0,0.0,0.0,0.0,0.0,0.0,0.0,0.0,0.0,0.0,0.0,0.0,0.0,0.0,0.0,0.0,0.0,0.0,0.0,0.0,0.0,0.0,0.0,0.0,0.0,0.0,0.0,0.0,0.0,0.0,0.0,0.0,0.0,0.0,0.0,0.0,0.0,0.0,0.0,0.0,0.0,0.0,0.0,0.0,-2.5669,0.0,0.0,0.0,0.0,0.0,0.0,0.0,0.0,0.0,0.0,0.0,0.0,0.0,0.0,0.0,0.0,0.0,0.0,0.0,0.0,0.0,0.0,0.0,0.0,0.0,0.0,0.0,0.0,0.0,0.0,0.0,0.0,0.0,0.0,0.0,0.0,0.0,0.0,0.0,0.0,-2.9172,-2.929,-2.9329,-2.9711,-2.947,-2.879,-2.7585,-2.6256,-2.4999,-2.3567,-2.2966,0.0,0.0,0.0,0.0,0.0,0.0,0.0,0.0,0.0,0.0,0.0,0.0,0.0,0.0,0.0,0.0,0.0,0.0,0.0,0.0,0.0,0.0,0.0,0.0,0.0,0.0,0.0,0.0,0.0,0.0,0.0,0.0,0.0,0.0,0.0,0.0,0.0,0.0,0.0,0.0,0.0,0.0,0.0,0.0,0.0,0.0,0.0,0.0,0.0,0.0,0.0,0.0,0.0,0.0,0.0,-2.7286,-2.6226,-2.594,-2.6457,-2.6369,-2.5697,-2.4395,0.0,0.0,0.0,0.0,0.0,0.0,0.0,0.0,0.0,0.0,0.0,0.0,0.0,0.0,0.0,0.0,0.0,0.0,0.0,0.0,0.0,0.0,0.0,0.0,0.0,-2.9077,-2.9833,0.0,0.0,0.0,0.0,0.0,0.0,0.0,0.0,0.0,0.0,0.0,0.0,-2.8876,-2.8853,-2.8819,-2.9105,-2.8178,-2.7488,-2.7227,-2.5332,-2.4182,-2.3941,-2.33,-2.2806,0.0,0.0,0.0,0.0,0.0,0.0,0.0,0.0,0.0,0.0,0.0,0.0,0.0,0.0,0.0,0.0,0.0,0.0,0.0,0.0,0.0,0.0,0.0,0.0,0.0,0.0,0.0,0.0,0.0,0.0,0.0,0.0,-2.8388,-2.8773,0.0,0.0,0.0,0.0,0.0,0.0,0.0,0.0,0.0,0.0,0.0,0.0,0.0,0.0,-2.7489,-2.6549,-2.6325,-2.6676,-2.5667,-2.554,-2.5731,-2.5851,-2.5864,-2.5715,-2.618,0.0,-2.4566,-2.3755,0.0,0.0,0.0,0.0,0.0,0.0,0.0,0.0,0.0,0.0,0.0,0.0,0.0,0.0,0.0,0.0,0.0,0.0,0.0,0.0,0.0,0.0,-2.7605,-2.8719,-2.8677,-2.8325,0.0,-2.8146,-2.7739,-2.6661,0.0,0.0,0.0,0.0,0.0,0.0,0.0,0.0,-2.5952,-2.5696,-2.5472,-2.5992,-2.5935,-2.5796,-2.5756,-2.5066,-2.4569,-2.4529,-2.3728,-2.3126,-2.2819,-2.2485,0.0,0.0,0.0,0.0,0.0,0.0,0.0,0.0,0.0,0.0,0.0,0.0,0.0,0.0,0.0,0.0,0.0,0.0,0.0,0.0,0.0,0.0,0.0,0.0,0.0,0.0,0.0,0.0,0.0,-2.8407,-2.903,-2.8993,-2.9397,-2.9489,0.0,0.0,0.0,0.0,0.0,0.0,0.0,0.0,0.0,-2.6748,-2.6818,-2.6805,-2.6729,-2.6458,-2.6558,-2.7028,-2.6554,-2.6547,-2.7001,-2.7121,-2.7215,-2.7241,-2.7161,-2.6934,-2.648,-2.477,-2.3794,-2.33,0.0,0.0,0.0,0.0,0.0,-2.3704,-2.4402,0.0,0.0,0.0,0.0,0.0,0.0,0.0,0.0,0.0,0.0,0.0,0.0,0.0,0.0,-2.727,-2.7689,-2.7509,-2.5988,-2.6358,-2.6972,0.0,-2.508,-2.4131,-2.4735,0.0,0.0,0.0,0.0,0.0,-2.5896,-2.5672,-2.5411,-2.5504,-2.5665,-2.5758,-2.5758,-2.5371,-2.513,-2.513,-2.4462,-2.3861,-2.3394,-2.2913,-2.2472,0.0,0.0,0.0,0.0,0.0,0.0,0.0,0.0,0.0,0.0,0.0,0.0,0.0,0.0,0.0,0.0,0.0,0.0,0.0,0.0,0.0,0.0,0.0,0.0,0.0,0.0,0.0,0.0,-2.9048,-2.969,-2.9195,-2.9683,-2.9671,0.0,0.0,0.0,0.0,0.0,0.0,-2.6801,-2.6924,-2.6892,-2.6744,-2.6999,-2.6975,-2.6507,-2.6734,-2.7094,-2.7615,-2.7682,-2.7949,-2.8377,-2.8524,-2.8644,-2.8698,-2.8323,-2.819,-2.8096,-2.5959,-2.4783,-2.4249,-2.342,-2.3046,-2.2979,-2.2979,-2.3273,-2.3701,-2.3915,-2.3995,-2.3968,-2.3821,0.0,-2.4288,-2.3904,0.0,0.0,0.0,0.0,-2.4473,-2.6344,0.0,-2.6628,-2.6252,-2.6825,-2.6757,-2.4643,-2.5174,-2.5984,0.0,-2.4323,-2.3025,-2.3714,0.0,0.0,0.0,0.0,-2.5512,-2.604,-2.6102,-2.5905,-2.5758,-2.5932,-2.6066,-2.6066,-2.5798,-2.5625,-2.5625,-2.5077,-2.4529,-2.4008,-2.342,-2.2913,-2.2539,0.0,0.0,0.0,0.0,0.0,0.0,0.0,0.0,0.0,0.0,0.0,0.0,0.0,0.0,0.0,0.0,0.0,0.0,0.0,0.0,0.0,0.0,0.0,0.0,0.0,0.0,0.0,0.0,0.0,-2.9635,-2.9436,0.0,0.0,0.0,0.0,-2.6761,-2.727,-2.7382,-2.6938,-2.7285,-2.7423,-2.7257,-2.731,-2.7606,-2.803,-2.8043,-2.8217,-2.8537,-2.8818,-2.8965,-2.9018,-2.9579,-2.9526,-2.9032,-2.9285,-2.9085,-2.847,-2.6934,-2.6119,-2.5785,-2.5184,-2.477,-2.4529,-2.4529,-2.4543,-2.4569,-2.4583,-2.4596,-2.4636,-2.4903,-2.4596,-2.4152,-2.3574,-2.3198,0.0,0.0,-2.3413,-2.3827,-2.5783,-2.5478,-2.5212,-2.6819,-2.6388,-2.5577,-2.5424,-2.5211,-2.4918,0.0,-2.4071,-2.3928,-2.3354,0.0,-2.3829,-2.3843,-2.4354,-2.4796,-2.5523,-2.5745,-2.6052,-2.6319,-2.636,-2.6373,-2.6373,-2.6106,-2.5932,-2.5932,-2.5384,-2.4917,-2.4609,-2.4035,-2.3447,-2.2846,-2.2539,0.0,0.0,0.0,0.0,0.0,0.0,0.0,0.0,0.0,0.0,0.0,0.0,0.0,0.0,0.0,0.0,0.0,0.0,0.0,0.0,0.0,0.0,0.0,0.0,0.0,0.0,0.0,0.0,-2.8659,-2.9005,0.0,0.0,-2.7246,-2.6632,-2.6944,-2.6718,-2.6836,-2.7478,-2.7483,-2.7948,-2.8657,-2.8871,-2.9165,-2.9566,-2.9753,-2.99,-3.002,-3.0114,-3.0167,-3.0167,-3.0194,-3.0087,-2.9873,-2.9606,-2.9579,-2.9673,-2.8751,-2.7762,-2.676,-2.636,-2.6026,-2.5758,-2.5758,-2.5879,-2.6039,-2.6039,-2.5919,-2.5692,-2.5224,-2.481,-2.4449,-2.4235,-2.4088,-2.4022,-2.4142,-2.4302,-2.4649,-2.5281,-2.5419,-2.5375,-2.591,-2.5729,-2.5518,-2.5518,-2.5585,-2.5491,-2.4997,-2.4663,-2.4409,-2.4209,-2.4262,-2.4329,-2.4329,-2.4823,-2.5277,-2.5491,-2.5932,-2.6279,-2.6373,-2.6386,-2.6466,-2.6653,-2.64,-2.6319,-2.6507,-2.5785,-2.5224,-2.493,-2.4182,-2.3581,-2.3166,-2.2672,-2.2579,0.0,0.0,0.0,0.0,0.0,0.0,0.0,0.0,0.0,0.0,0.0,0.0,0.0,0.0,0.0,0.0,0.0,0.0,0.0,0.0,0.0,0.0,0.0,0.0,0.0,0.0,-2.8727,-2.8785,-2.9236,-2.9244,-2.8653,-2.7473,-2.6988,-2.7298,-2.7064,-2.7428,-2.839,-2.8537,-2.9005,-2.99,-3.0114,-3.0314,-3.0501,-3.0702,-3.0795,-3.0795,-3.0889,-3.0889,-3.0795,-3.0702,-3.0595,-3.0488,-3.01,-3.0087,-3.0327,-2.994,-2.9085,-2.7989,-2.7682,-2.7388,-2.7121,-2.7014,-2.7108,-2.7255,-2.7148,-2.6867,-2.6426,-2.5745,-2.5317,-2.5064,-2.4957,-2.493,-2.493,-2.493,-2.5077,-2.5251,-2.5344,-2.5518,-2.5705,-2.5905,-2.5879,-2.5838,-2.5932,-2.6026,-2.6039,-2.5852,-2.5411,-2.5024,-2.4823,-2.4863,-2.493,-2.493,-2.5344,-2.5692,-2.5798,-2.6146,-2.6426,-2.6533,-2.6533,-2.6653,-2.6947,-2.6707,-2.6573,-2.6667,-2.5945,-2.5344,-2.4943,-2.4275,-2.3781,-2.3487,-2.3023,-2.293,-2.3356,0.0,0.0,0.0,0.0,0.0,0.0,0.0,0.0,0.0,0.0,0.0,0.0,0.0,0.0,0.0,0.0,0.0,0.0,0.0,0.0,0.0,0.0,0.0,-2.7059,-2.866,-2.9875,-3.0112,-2.9784,-2.9341,-2.859,-2.7836,-2.7495,-2.7776,-2.8617,-2.9379,-2.9953,-3.0261,-3.0555,-3.0835,-3.0849,-3.0849,-3.0849,-3.0849,-3.0849,-3.0849,-3.1129,-3.1116,-3.0862,-3.1129,-3.1102,-3.0835,-3.0822,-3.0662,-3.0421,-3.0421,-3.0074,-2.9539,-2.9205,-2.8898,-2.8617,-2.831,-2.819,-2.8123,-2.7829,-2.7362,-2.6827,-2.6533,-2.6239,-2.5959,-2.5651,-2.5571,-2.5571,-2.5571,-2.5571,-2.5638,-2.5919,-2.5999,-2.6146,-2.6707,-2.664,-2.652,-2.6787,-2.6627,-2.6426,-2.6413,-2.6186,-2.5812,-2.5237,-2.5371,-2.5558,-2.5571,-2.5812,0.0,-2.6373,-2.6413,-2.652,-2.68,-2.6841,-2.6947,-2.7241,-2.6987,-2.6694,-2.6413,-2.5825,-2.5237,-2.4676,-2.4369,-2.4062,-2.3768,-2.3457,-2.3283,-2.2955,0.0,0.0,0.0,0.0,0.0,0.0,0.0,0.0,0.0,0.0,0.0,0.0,0.0,0.0,0.0,0.0,0.0,0.0,0.0,0.0,0.0,0.0,-2.7085,-2.7379,-2.8003,-2.8479,-2.9258,-2.9625,-2.9891,-2.9959,-2.977,-2.986,-2.994,-3.0568,-3.1102,-3.1476,-3.1583,-3.1757,-3.2051,-3.2064,-3.2064,-3.2064,-3.2064,-3.2064,-3.2064,-3.2144,-3.2144,-3.2064,-3.1931,-3.1824,-3.173,-3.1517,-3.1503,-3.1623,-3.1623,-3.153,-3.1289,-3.0354,-2.982,-2.9539,-2.9459,-2.9152,-2.8751,-2.8457,-2.8243,-2.803,-2.7509,-2.7281,-2.7161,-2.6867,-2.6787,-2.6787,-2.6787,-2.6787,-2.68,-2.6881,-2.7068,-2.7255,-2.7415,-2.7562,-2.7629,-2.7482,-2.7402,-2.7281,-2.7068,-2.6961,-2.6787,-2.6413,-2.6413,-2.6533,-2.6747,-2.6854,0.0,-2.7014,-2.7028,-2.7054,-2.7134,-2.7148,-2.7175,-2.7255,-2.68,-2.648,-2.6386,-2.5638,-2.513,-2.497,-2.4476,-2.3968,-2.346,-2.3474,-2.3256,0.0,0.0,0.0,0.0,0.0,0.0,0.0,0.0,0.0,0.0,0.0,0.0,0.0,0.0,0.0,0.0,0.0,0.0,0.0,0.0,0.0,0.0,-2.7154,-2.8039,-2.8395,-2.8479,-2.8818,-2.9833,-3.0368,-3.0768,-3.1062,-3.1356,-3.1583,-3.1704,-3.1917,-3.2211,-3.2625,-3.2532,-3.2612,-3.2906,-3.2799,-3.2786,-3.2906,-3.2666,-3.2612,-3.2732,-3.2732,-3.2666,-3.2545,-3.2492,-3.2398,0.0,-3.2104,-3.2064,-3.2104,-3.2104,-3.1957,0.0,0.0,0.0,0.0,0.0,-2.9993,-2.9553,-2.9259,-2.8991,-2.8711,-2.823,-2.7989,-2.7829,-2.7535,-2.7535,-2.7615,-2.7482,-2.7535,-2.7629,-2.7629,-2.7669,-2.7762,-2.8016,-2.8016,-2.7976,-2.8056,-2.7976,-2.7802,-2.7509,0.0,0.0,-2.7215,-2.7094,-2.7068,-2.7241,-2.7268,-2.7268,-2.7268,-2.7268,-2.7308,-2.7442,-2.7442,-2.7495,-2.7629,-2.7201,0.0,0.0,0.0,-2.509,-2.473,-2.4382,0.0,0.0,0.0,-2.3552,-2.3255,0.0,0.0,0.0,-2.3322,-2.3459,0.0,0.0,0.0,0.0,0.0,0.0,0.0,0.0,0.0,0.0,0.0,0.0,0.0,0.0,0.0,0.0,-2.8249,-2.8804,-2.9993,-2.9993,-3.0234,-3.1209,-3.165,-3.1984,-3.2278,-3.2572,-3.2853,-3.3106,-3.2893,-3.2973,-3.3494,0.0,0.0,0.0,0.0,-3.3253,-3.3507,-3.3,-3.2879,-3.3133,-3.3133,-3.2986,-3.2706,-3.2959,-3.2919,-3.2639,-3.2639,-3.2492,-3.2251,-3.2251,-3.1917,-3.1436,-3.157,-3.1463,-3.1196,-3.0942,-3.0662,0.0,0.0,0.0,0.0,-2.8858,-2.8564,-2.8283,-2.7949,-2.803,-2.819,-2.7923,-2.8043,-2.8243,-2.8243,-2.807,-2.8043,-2.8577,-2.8297,-2.8043,-2.8591,-2.8457,-2.8163,-2.7896,-2.7856,-2.7856,-2.7856,-2.7549,-2.7321,-2.7362,-2.7362,-2.7362,-2.7362,-2.7362,-2.7455,-2.7722,0.0,0.0,-2.8123,-2.7843,-2.7321,-2.6533,-2.5905,-2.5211,-2.4436,-2.4342,-2.4302,-2.4302,-2.4262,-2.4115,-2.3821,-2.3821,-2.3808,-2.3754,-2.3899,-2.4203,0.0,0.0,0.0,0.0,0.0,0.0,0.0,0.0,0.0,0.0,0.0,0.0,0.0,0.0,0.0,-2.8247,-2.93,-3.0341,-3.1517,-3.2038,-3.2211,-3.1957,-3.2625,-3.3213,-3.3507,-3.3801,-3.4002,-3.4055,-3.4002,-3.4028,-3.4135,-3.4095,0.0,-3.4148,-3.4095,-3.4082,-3.4148,-3.4028,-3.4002,-3.4055,0.0,0.0,-3.3627,-3.3681,-3.3547,-3.324,-3.324,-3.3213,-3.316,-3.316,-3.2959,-3.2545,-3.1664,-3.1276,-3.1223,-3.1169,-3.0955,-3.0702,-3.0648,-3.0555,-3.0368,-2.9833,-2.9619,-2.9472,-2.8938,-2.8818,0.0,-2.8791,-2.8818,-2.8871,-2.8871,-2.9005,-2.9165,-2.9285,-2.9219,-2.9165,-2.9285,-2.9072,-2.8845,-2.8791,-2.8778,-2.8778,-2.8778,-2.8136,-2.7696,-2.7936,-2.7976,-2.7976,-2.7976,-2.7976,-2.8003,-2.8056,-2.8056,-2.8083,-2.8136,-2.7655,-2.7281,-2.7108,-2.6333,-2.5798,-2.5625,-2.5157,-2.4917,-2.4917,-2.4676,-2.4409,-2.4115,-2.4115,-2.3995,-2.3768,-2.4131,-2.4217,0.0,0.0,0.0,0.0,0.0,0.0,0.0,0.0,0.0,0.0,0.0,-2.4602,0.0,0.0,-2.8166,-2.9165,-3.0368,-3.149,-3.2225,-3.2959,-3.3267,-3.2812,-3.3427,-3.4055,-3.4496,-3.4536,-3.4656,-3.495,-3.471,-3.467,-3.4963,-3.4977,-3.5044,-3.5191,-3.5057,-3.4977,-3.4977,-3.483,-3.4683,-3.4549,-3.4696,-3.4523,-3.4108,-3.4255,-3.4162,-3.3868,-3.3868,-3.3868,-3.3841,-3.3534,-3.324,-3.2906,-3.2171,-3.1797,-3.165,-3.1503,-3.1356,-3.1209,-3.1062,-3.1009,-3.0942,-3.0501,-3.0354,-3.0247,-2.9659,-2.9686,-2.986,-2.9566,-2.9686,-2.9913,-2.9913,-2.9806,-2.974,-2.9887,-2.9806,-2.974,-2.9887,-2.9913,-2.9873,-2.9726,-2.9579,-2.9472,-2.9472,-2.8991,-2.8644,-2.8791,-2.8818,-2.8818,-2.8818,-2.8938,-2.8978,-2.8831,-2.8938,-2.8978,-2.8831,-2.7989,-2.7415,-2.7281,-2.6573,-2.6172,-2.6172,-2.5892,-2.5732,-2.5732,-2.5451,-2.5224,-2.5077,-2.493,-2.4783,-2.4649,-2.5079,-2.498,0.0,0.0,0.0,0.0,0.0,0.0,0.0,0.0,-2.3207,-2.4168,-2.4783,-2.5598,-2.7068,-2.8016,-2.9005,-3.0301,-3.1543,-3.2478,-3.2839,-3.3561,-3.3961,-3.3708,-3.4162,-3.4696,-3.5231,-3.5124,-3.5217,-3.5685,-3.5271,-3.5217,-3.5685,-3.5712,-3.5819,-3.6059,-3.5845,-3.5712,-3.5712,-3.5485,-3.5244,-3.5017,-3.5204,-3.5004,-3.4496,-3.4683,-3.4603,-3.4322,-3.4322,-3.4282,-3.4202,-3.3708,-3.3334,-3.3026,-3.2746,-3.2452,-3.2158,-3.1864,-3.1717,-3.1637,-3.1396,-3.1316,-3.1263,-3.0969,-3.0875,-3.0782,-3.0247,-3.0421,-3.0688,-3.0221,-3.0434,-3.0795,-3.0795,-3.0448,-3.014,-3.0381,-3.0221,-3.0087,-3.0381,-3.0581,-3.0662,-3.0474,-3.0207,-3.002,-3.0074,-2.9793,-2.9553,-2.9486,-2.9526,-2.9526,-2.9419,-2.97,-2.9806,-2.9513,-2.974,-2.9793,-2.9513,-2.8497,-2.7776,-2.7535,-2.6974,-2.664,-2.664,-2.6587,-2.656,-2.656,-2.6333,-2.6159,-2.6039,-2.5798,-2.5625,-2.5518,-2.5824,-2.5555,-2.2058,-2.1937,-2.2098,-2.2552,-2.2712,-2.3166,0.0,0.0,-2.5104,-2.6239,-2.6747,-2.7428,-2.8911,-2.9686,-3.0662,-3.2358,-3.2986,-3.3467,-3.4042,-3.4442,-3.4656,-3.4616,-3.4897,-3.5231,-3.5551,-3.5792,-3.5952,-3.6019,-3.5965,-3.5952,-3.6019,-3.6019,-3.6046,-3.6072,-3.6046,-3.6019,-3.6019,-3.5992,-3.5965,-3.5925,-3.5685,-3.5418,-3.5084,-3.487,-3.4603,-3.4322,-3.4322,-3.4175,-3.3935,-3.3855,-3.3654,-3.3334,-3.304,-3.2746,-3.2465,-3.2158,-3.1891,-3.1664,-3.1637,-3.1623,-3.157,-3.1276,-3.1183,-3.1116,-3.0795,-3.0742,-3.0782,-3.0715,-3.0742,-3.0795,-3.0795,-3.0742,-3.0702,-3.0742,-3.0528,-3.0394,-3.0675,-3.0568,-3.0474,-3.0702,-3.0515,-3.0394,-3.0648,-3.0234,-2.978,-2.9526,-2.97,-2.9673,-2.9152,-2.9579,-2.9806,-2.9513,-2.974,-2.9793,-2.9513,-2.8885,-2.8497,-2.8457,-2.7883,-2.7549,-2.7549,-2.7308,-2.7161,-2.7161,-2.7134,-2.6867,-2.6346,-2.6306,-2.6026,-2.5518,-2.5518,-2.5317,-2.2832,-2.2766,0.0,0.0,-2.4035,-2.4903,-2.5812,-2.6453,-2.7148,-2.8163,-2.9018,-2.9913,-3.1049,-3.161,-3.2185,0.0,-3.3641,-3.4028,-3.4282,-3.4576,-3.4696,-3.4523,-3.4763,-3.5191,-3.5832,-3.5845,-3.5952,-3.6299,-3.6166,-3.6139,-3.6313,-3.6326,-3.6393,-3.658,-3.658,-3.65,-3.6326,-3.65,-3.6313,-3.5819,-3.6032,-3.5805,-3.5191,-3.5244,-3.511,-3.483,-3.483,-3.4563,-3.4135,-3.4135,-3.3855,-3.34,-3.328,-3.3053,-3.2746,-3.2278,-3.1917,-3.1664,-3.1664,-3.1664,-3.165,-3.153,-3.149,-3.1423,-3.1129,-3.1169,-3.1263,-3.1089,-3.1169,-3.1303,-3.1303,-3.1169,-3.1049,-3.1049,-3.0955,-3.0902,-3.1022,-3.1089,-3.1156,-3.1276,-3.0929,-3.0755,-3.1223,-3.0808,-3.0448,-3.0488,-3.0314,-3.0087,-2.9833,-3.0167,-3.0448,-3.0488,-3.0461,-3.0381,-3.0261,-2.9713,-2.9219,-2.8885,-2.8457,-2.815,-2.7963,-2.7843,-2.7776,-2.7776,-2.7602,-2.7402,-2.7148,-2.6987,-2.6774,-2.6533,-2.636,-2.6119,-2.3193,0.0,0.0,-2.4462,-2.5665,-2.6854,-2.7468,-2.8323,-2.9272,-3.0247,-3.1062,-3.1837,-3.2639,-3.2959,-3.3227,-3.3614,-3.4108,-3.4442,-3.4442,-3.4563,-3.4536,-3.4229,-3.4309,-3.471,-3.5511,-3.5618,-3.5872,-3.6473,-3.6313,-3.6313,-3.662,-3.662,-3.6727,-3.6941,-3.6941,-3.6834,-3.662,-3.6834,-3.6607,-3.5992,-3.6259,-3.6046,-3.5444,-3.5485,-3.5391,-3.5191,-3.5191,-3.487,-3.4322,-3.4322,-3.3961,-3.3414,-3.3414,-3.3187,-3.2812,-3.2385,-3.2038,-3.1784,-3.1704,-3.1664,-3.1664,-3.1664,-3.1664,-3.1623,-3.141,-3.1503,-3.1623,-3.141,-3.1503,-3.1664,-3.1664,-3.1517,-3.1343,-3.1343,-3.1343,-3.1343,-3.1343,-3.1517,-3.1664,-3.1664,-3.1263,-3.1076,-3.1583,-3.1183,-3.0889,-3.1183,-3.0795,-3.0474,-3.0474,-3.0728,-3.1022,-3.1316,-3.1009,-3.0795,-3.0795,-3.0181,-2.9619,-2.9192,-2.8885,-2.8591,-2.8283,-2.827,-2.823,-2.8136,-2.7936,-2.7776,-2.7696,-2.7495,-2.7348,-2.7268,-2.7041,-2.6827,0.0,0.0,-2.4943,-2.6373,-2.7629,-2.8898,-3.0327,-3.0902,-3.1463,-3.2639,-3.2679,-3.2692,-3.328,-3.3387,-3.3587,-3.4202,-3.4549,-3.475,-3.475,-3.4509,-3.4229,-3.3935,-3.3627,-3.3694,0.0,-3.5137,-3.5872,-3.6473,-3.65,-3.662,-3.6901,-3.6941,-3.6941,-3.6941,-3.6941,-3.6941,-3.6941,-3.6941,-3.6941,-3.6901,-3.6353,-3.6072,-3.6032,-3.5471,-3.5204,-3.5191,-3.5191,-3.487,-3.4322,-3.4322,-3.3961,-3.3414,-3.3414,-3.3066,-3.2559,-3.2532,-3.2345,-3.2051,-3.177,-3.1664,-3.1664,-3.1664,-3.1664,-3.1664,-3.1664,-3.1664,-3.1664,-3.1664,-3.1664,-3.1664,-3.1664,-3.1664,-3.165,-3.165,-3.165,-3.165,-3.165,-3.1664,-3.1664,-3.1664,-3.1423,-3.1316,-3.1623,-3.1183,-3.0889,-3.1183,-3.0969,-3.0782,-3.0782,-3.1036,-3.133,-3.1623,-3.1142,-3.0795,-3.0795,-2.9993,-2.9486,-2.9472,-2.9192,-2.8898,-2.8604,-2.8591,-2.8457,-2.815,-2.8136,-2.7989,-2.7696,-2.7696,-2.7535,-2.7268,-2.7255,-2.7241,-2.4409,0.0,-2.7028,-2.8511,-2.9766,-3.0915,-3.1998,-3.2625,-3.2986,-3.2986,-3.2906,-3.2772,-3.2585,-3.2706,-3.3026,-3.3627,-3.4309,-3.4763,-3.4763,-3.4843,-3.4496,-3.3414,-3.3374,0.0,0.0,0.0,0.0,-3.6153,-3.6219,-3.6433,-3.6901,-3.6754,-3.6727,-3.6941,-3.6941,-3.6941,-3.6941,-3.6941,-3.6754,-3.6353,-3.5778,-3.5591,-3.5765,-3.5378,-3.5191,-3.5191,-3.5191,-3.487,-3.4322,-3.4322,-3.3961,-3.3414,-3.3414,-3.3293,-3.3093,-3.2906,-3.2652,-3.2332,-3.1837,-3.1664,-3.1664,-3.1664,-3.1664,-3.1664,-3.1664,-3.1664,-3.1664,-3.1664,-3.1664,-3.1664,-3.1664,-3.1664,-3.1664,-3.1664,-3.1664,-3.1664,-3.1664,-3.1664,-3.1664,-3.1664,-3.1423,-3.1316,-3.1623,-3.1343,-3.1183,-3.1476,-3.1102,-3.0795,-3.0795,-3.0875,-3.1049,-3.1343,-3.1196,-3.1076,-3.1076,-3.0635,-3.0181,-2.9793,-2.9499,-2.9112,-2.8631,-2.8604,-2.8457,-2.815,-2.8136,-2.8096,-2.7989,-2.7989,-2.7949,-2.7843,-2.7642,-2.7549,-2.6106,-2.7522,-2.9032,-3.0608,-3.1744,-3.2666,-3.344,-3.3761,-3.3708,-3.3106,-3.2812,-3.2452,-3.1757,-3.1877,-3.2238,-3.2706,-3.336,-3.3921,-3.4242,-3.4175,-3.3855,-3.3213,-3.3133,-3.3013,0.0,0.0,0.0,-3.5538,-3.5792,-3.6166,-3.6754,-3.6714,-3.6754,-3.6941,-3.6941,-3.6941,-3.6941,-3.6941,-3.6647,-3.6059,-3.5578,-3.5391,-3.5471,-3.5284,-3.5191,-3.5191,-3.5191,-3.4923,-3.4469,-3.4362,-3.4028,-3.3574,-3.3454,-3.3347,-3.324,-3.3053,-3.2799,-3.2478,-3.1998,-3.1824,-3.181,-3.1704,-3.1744,-3.181,-3.1704,-3.1664,-3.1664,-3.1664,-3.1664,-3.1664,-3.1664,-3.1664,-3.1664,-3.1664,-3.1664,-3.1664,-3.1664,-3.1664,-3.1664,-3.1664,-3.1517,-3.145,-3.1637,-3.1517,-3.145,-3.1637,-3.1343,-3.1102,-3.1102,-3.1102,-3.1183,-3.1356,-3.1289,-3.1183,-3.1076,-3.0808,-3.0434,-2.994,-2.9833,-2.9539,-2.8938,-2.9018,-2.8885,-2.847,-2.8364,-2.831,-2.831,-2.819,-2.8136,-2.8136,-2.7949,-2.7856,-2.7883,-2.9379,-3.0929,-3.2625,-3.3494,-3.4068,-3.4616,-3.4282,-3.3681,-3.304,-3.2412,-3.1704,0.0,0.0,-3.1249,-3.161,-3.1971,-3.2519,-3.34,-3.2826,-3.2599,0.0,0.0,0.0,0.0,0.0,0.0,-3.471,0.0,-3.5885,-3.65,-3.6794,-3.6941,-3.6941,-3.6941,-3.6941,-3.6941,-3.6901,-3.662,-3.6072,-3.5752,-3.5458,-3.5191,-3.5191,-3.5191,-3.5191,-3.5191,-3.503,-3.4736,-3.4442,-3.4148,-3.3855,-3.3534,-3.324,-3.3,-3.3,-3.2812,-3.2532,-3.2251,-3.2144,-3.2078,-3.1797,-3.1904,-3.2078,-3.1797,-3.1717,-3.1717,-3.1717,-3.1704,-3.169,-3.169,-3.1677,-3.1664,-3.1664,-3.1664,-3.1664,-3.1664,-3.1664,-3.1664,-3.1664,-3.1664,-3.1664,-3.1664,-3.1664,-3.1664,-3.1664,-3.1664,-3.1664,-3.1664,-3.1664,-3.1664,-3.1664,-3.1423,-3.1129,-3.0835,-3.0541,-3.0261,-2.9953,-3.0194,-3.0087,-2.9499,-2.9753,-2.9619,-2.9045,-2.8764,-2.8631,-2.8631,-2.8323,-2.8163,-2.8163,-2.815,-2.8136,-2.9726,-3.1356,-3.2853,-3.3748,-3.4255,-3.4523,-3.4456,-3.3975,-3.3267,-3.2211,-3.1022,-2.9953,0.0,0.0,0.0,-3.1476,-3.2839,0.0,-3.4937,-3.5057,0.0,0.0,0.0,-3.3961,-3.336,-3.3855,0.0,0.0,-3.5297,-3.5979,-3.6794,-3.6901,-3.6941,-3.6941,-3.6941,-3.6941,-3.6941,-3.65,-3.6219,-3.6059,-3.5551,-3.5271,-3.5191,-3.5191,-3.5191,-3.5191,-3.5191,-3.503,-3.4736,-3.4442,-3.4148,-3.3855,-3.3534,-3.336,-3.3293,-3.3293,-3.312,-3.2853,-3.2786,-3.2612,-3.2425,-3.2345,-3.2372,-3.2425,-3.2345,-3.2318,-3.2318,-3.2318,-3.2158,-3.1984,-3.1984,-3.1837,-3.1664,-3.1664,-3.1664,-3.1664,-3.1664,-3.1664,-3.1664,-3.1664,-3.1664,-3.1664,-3.1664,-3.1664,-3.1664,-3.1664,-3.1664,-3.1664,-3.1664,-3.1664,-3.1664,-3.1664,-3.1597,-3.1436,-3.1142,-3.0849,-3.0555,-3.0261,-3.0114,-2.986,-2.9499,-2.9553,-2.9419,-2.9045,-2.8965,-2.8925,-2.8925,-2.8631,-2.8484,-2.8484,-2.8243,-2.8136,-3.1583,-3.2946,-3.4122,-3.4589,-3.4629,-3.4416,-3.3855,-3.308,-3.2024,-3.0448,-2.9472,0.0,0.0,0.0,0.0,0.0,0.0,0.0,-3.4897,-3.5084,-3.5057,0.0,-3.4937,0.0,-3.4242,-3.4616,-3.5017,0.0,-3.5511,-3.5952,-3.6714,-3.6861,-3.6941,-3.6941,-3.6941,-3.6861,-3.6754,-3.6433,-3.6126,-3.5872,-3.5538,-3.5324,-3.5191,-3.5191,-3.5191,-3.5191,0.0,-3.503,-3.4736,-3.4442,-3.4148,-3.3855,-3.3534,-3.3414,-3.3414,-3.3414,-3.3307,-3.3173,-3.3173,-3.3066,-3.2879,-3.2625,-3.2639,-3.2706,-3.2585,-3.2545,-3.2545,-3.2545,-3.2425,-3.2291,-3.2291,-3.2171,-3.2024,-3.1891,-3.1957,-3.2024,-3.1891,-3.1864,-3.1824,-3.169,-3.1664,-3.1664,-3.1664,-3.1664,-3.1664,-3.1664,-3.1664,-3.1664,-3.1664,-3.1664,-3.1664,-3.1664,-3.1664,-3.1543,-3.1249,-3.1076,-3.0862,-3.0568,-3.0515,-3.0301,-2.9887,-2.9993,-2.986,-2.9432,-2.9299,-2.9232,-2.9232,-2.8804,-2.8604,-2.8604,-2.8283,-2.8136,-3.3334,-3.4255,-3.4937,-3.5191,-3.4776,-3.4068,-3.3093,-3.1891,-3.0434,-2.8484,0.0,-2.7602,-2.6573,-2.7776,-2.9179,-2.9967,0.0,-3.2772,-3.4389,-3.4362,-3.4563,-3.5618,-3.5525,-3.5351,-3.5311,-3.5578,-3.5859,-3.6112,-3.5885,-3.5979,-3.654,-3.6794,-3.6941,-3.6941,-3.6941,-3.6834,-3.658,-3.654,-3.6233,-3.5685,-3.5645,-3.5471,-3.5191,-3.5191,-3.5191,-3.5191,0.0,0.0,-3.4803,-3.4496,-3.4229,-3.3975,-3.3654,-3.3507,-3.3467,-3.3467,-3.3454,-3.3414,-3.3414,-3.3414,-3.3334,-3.2826,-3.2826,-3.2986,-3.2732,-3.2666,-3.2666,-3.2666,-3.2639,-3.2599,-3.2599,-3.2572,-3.2478,-3.2225,-3.2358,-3.2478,-3.2211,-3.2158,-3.2078,-3.1784,-3.173,-3.173,-3.173,-3.169,-3.1664,-3.1664,-3.1664,-3.1664,-3.1664,-3.1664,-3.1664,-3.1664,-3.1664,-3.157,-3.1303,-3.1249,-3.1116,-3.0862,-3.1049,-3.0929,-3.0381,-3.0595,-3.0474,-2.9927,-2.9673,-2.9539,-2.9539,-2.8991,-2.8724,-2.8711,-2.8404,-2.8257,-3.4563,-3.5177,-3.5498,-3.5538,-3.4937,-3.3961,-3.2572,-3.0969,0.0,0.0,-2.7201,-2.6627,-2.6426,-2.7442,-2.8898,-3.0702,0.0,0.0,0.0,0.0,-3.5859,0.0,0.0,0.0,0.0,0.0,0.0,0.0,0.0,0.0,-3.6834,-3.6901,-3.6941,-3.6941,-3.6941,-3.6901,-3.6861,-3.662,-3.634,-3.5992,-3.5752,-3.5471,-3.5191,-3.5191,-3.5191,-3.5191,0.0,0.0,-3.5097,-3.4803,-3.4656,-3.4576,-3.4282,-3.4015,-3.3801,-3.3801,-3.3641,-3.3414,-3.3414,-3.3414,-3.3387,-3.3293,-3.3293,-3.3334,-3.328,-3.3253,-3.3253,-3.3253,-3.3093,-3.2906,-3.2906,-3.2732,-3.2532,-3.2478,-3.2505,-3.2532,-3.2478,-3.2465,-3.2385,-3.2091,-3.2024,-3.2024,-3.2024,-3.1824,-3.1664,-3.1664,-3.1664,-3.1664,-3.1664,-3.1664,-3.1664,-3.1664,-3.1664,-3.165,-3.1597,-3.137,-3.1209,-3.1156,-3.0969,-3.0715,-3.0381,-3.0408,-3.0274,-2.9927,-2.986,-2.9847,-2.9847,-2.9499,-2.9325,-2.9325,-2.9018,-2.8885,-3.5418,-3.5645,-3.5591,-3.5444,-3.4282,-3.2772,-3.1303,0.0,0.0,0.0,-2.6119,-2.5932,-2.5932,-2.7148,0.0,0.0,0.0,0.0,0.0,0.0,0.0,0.0,0.0,0.0,0.0,0.0,0.0,0.0,0.0,0.0,-3.6941,-3.6941,-3.6941,-3.6941,-3.6941,-3.6861,-3.6727,-3.6727,-3.65,-3.6072,-3.6086,-3.5859,-3.5418,-3.5418,-3.5338,-3.5191,-3.5191,0.0,-3.4736,-3.4763,-3.4589,-3.4309,-3.4322,-3.4148,-3.3881,-3.3881,-3.3681,-3.3427,-3.3601,-3.3547,-3.344,-3.3601,-3.3547,-3.3414,-3.3414,-3.3414,-3.3414,-3.3414,-3.3307,-3.32,-3.32,-3.3106,-3.2959,-3.2799,-3.2772,-3.2772,-3.2772,-3.2772,-3.2639,-3.2185,-3.2104,-3.2051,-3.1904,-3.1757,-3.1664,-3.1664,-3.1664,-3.1664,-3.1664,-3.1664,-3.1664,-3.1664,-3.1664,-3.1664,-3.1664,-3.1543,-3.145,-3.145,-3.133,-3.1116,-3.0822,-3.0808,-3.0595,-3.0154,-3.014,-3.0074,-2.9913,-2.9619,-2.9486,-2.9472,-2.9179,-2.9045,-3.5925,-3.5899,-3.5645,-3.5284,-3.3641,-3.1704,-3.0167,-2.8404,0.0,-2.5358,-2.5304,-2.5518,-2.5518,-2.68,-2.8123,0.0,-3.0301,0.0,0.0,0.0,0.0,0.0,0.0,0.0,0.0,0.0,0.0,0.0,0.0,0.0,-3.6941,-3.6941,-3.6941,-3.6941,-3.6941,-3.6834,-3.6607,-3.6834,-3.6647,-3.6072,-3.6299,-3.6099,-3.5538,-3.5538,-3.5378,-3.5097,-3.5097,0.0,0.0,-3.467,-3.4523,-3.4189,-3.4349,-3.4282,-3.4068,-3.4002,-3.3814,-3.3641,-3.3895,-3.3814,-3.3654,-3.3895,-3.3721,-3.3427,-3.3494,-3.3467,-3.3427,-3.3494,-3.3467,-3.3414,-3.3414,-3.3414,-3.336,-3.3133,-3.3066,-3.3053,-3.2986,-3.3026,-3.2919,-3.2385,-3.2291,-3.2211,-3.1984,-3.1851,-3.1757,-3.1757,-3.1704,-3.1664,-3.1664,-3.1664,-3.1664,-3.1664,-3.1664,-3.1664,-3.1664,-3.1664,-3.1664,-3.1664,-3.1664,-3.153,-3.1236,-3.1223,-3.0982,-3.0461,-3.0394,-3.0247,-3.0007,-2.9713,-2.9579,-2.9566,-2.9339,-2.9232,-3.5979,-3.6059,-3.5899,-3.5338,-3.3641,-3.165,-2.9913,0.0,-2.6199,-2.5277,-2.5304,-2.5518,-2.5518,-2.6293,-2.7402,0.0,0.0,-3.0982,0.0,0.0,0.0,0.0,0.0,0.0,0.0,0.0,0.0,0.0,0.0,0.0,0.0,-3.6941,-3.6941,-3.6941,-3.6941,-3.6941,-3.6901,-3.6941,-3.6647,-3.6072,-3.6099,-3.5805,-3.5231,-3.5231,-3.5084,-3.4803,0.0,0.0,0.0,-3.475,-3.4883,-3.5057,-3.4817,-3.471,-3.4656,-3.4376,-3.4255,-3.4242,-3.4269,-3.4255,-3.4242,-3.4269,-3.3881,-3.3467,-3.3761,-3.3641,-3.3467,-3.3761,-3.3627,-3.3414,-3.3414,-3.3414,-3.34,-3.3374,-3.3374,-3.3293,-3.304,-3.3187,-3.328,-3.2959,-3.2893,-3.2893,-3.2866,-3.2412,-3.2064,-3.2064,-3.1837,-3.1664,-3.1664,-3.1664,-3.1664,-3.1664,-3.1664,-3.1664,-3.1664,-3.1664,-3.1664,-3.1664,-3.1664,-3.153,-3.1236,-3.1223,-3.1076,-3.0755,-3.0488,-3.0341,-3.0314,-3.002,-2.9873,-2.9873,-2.9847,-2.9833,-3.6019,-3.6206,-3.5885,-3.5124,-3.3106,-3.0942,-2.9539,0.0,-2.5718,-2.5184,-2.5024,-2.5037,-2.5224,-2.5825,-2.6613,-2.7549,-2.8203,-2.9325,-3.1463,-3.2358,-3.3534,0.0,0.0,0.0,0.0,0.0,0.0,0.0,0.0,0.0,0.0,-3.6941,-3.6941,-3.6941,-3.6941,-3.6941,-3.6941,-3.6754,-3.658,-3.6326,-3.6326,-3.6019,-3.5458,-3.5645,-3.5471,-3.5017,0.0,0.0,0.0,-3.495,-3.499,-3.4937,-3.5004,-3.4923,-3.475,-3.4629,-3.4469,-3.4349,-3.4523,-3.4469,-3.4349,-3.4523,-3.4295,-3.3988,-3.4108,-3.3935,-3.3761,-3.4068,-3.3788,-3.3454,-3.3654,-3.3547,-3.3414,-3.3414,-3.3414,-3.3374,-3.3267,-3.3334,-3.332,-3.304,-3.2973,-3.2919,-3.2746,-3.2532,-3.2372,-3.2372,-3.2265,-3.2198,-3.2198,-3.2038,-3.1931,-3.1931,-3.177,-3.1664,-3.1664,-3.1664,-3.1664,-3.1664,-3.1664,-3.1623,-3.1503,-3.149,-3.1356,-3.1062,-3.0942,-3.0715,-3.0354,-3.0421,-3.0261,-2.9913,-3.01,-3.0087,-3.5244,-3.5765,-3.5712,-3.475,-3.2639,-3.0461,-2.9192,-2.7148,-2.5424,-2.5144,-2.4917,-2.4836,-2.5037,-2.5558,-2.6146,-2.6734,-2.7321,-2.8323,-3.0114,-3.0942,-3.2144,0.0,0.0,0.0,0.0,0.0,0.0,0.0,0.0,0.0,0.0,-3.6941,-3.6941,-3.6941,-3.6941,-3.6901,-3.6794,-3.6607,-3.6433,-3.6246,-3.634,-3.6072,-3.5511,-3.5805,-3.5618,-3.5057,0.0,0.0,0.0,-3.4883,-3.4923,-3.491,-3.5017,-3.499,-3.4883,-3.479,-3.4683,-3.4603,-3.4817,-3.475,-3.4616,-3.4817,-3.475,-3.4576,-3.4576,-3.4309,-3.4042,-3.4162,-3.3814,-3.3467,-3.3694,-3.3574,-3.3414,-3.3414,-3.3414,-3.3414,-3.3414,-3.3414,-3.3347,-3.3146,-3.3106,-3.304,-3.2839,-3.2732,-3.2679,-3.2679,-3.2599,-3.2545,-3.2545,-3.2358,-3.2238,-3.2238,-3.1971,-3.1757,-3.1677,-3.1664,-3.1664,-3.1664,-3.1664,-3.1664,-3.1664,-3.1664,-3.161,-3.149,-3.1316,-3.1062,-3.0742,-3.0782,-3.0581,-3.0181,-3.0301,-3.0207,-3.3387,-3.4536,-3.5351,-3.4189,-3.2332,-3.0408,-2.8951,-2.7001,-2.5424,-2.5144,-2.5077,-2.5077,-2.5077,-2.5558,-2.6146,-2.6734,-2.7321,-2.8323,-3.0114,-3.1116,0.0,0.0,0.0,0.0,0.0,0.0,0.0,0.0,0.0,0.0,0.0,-3.6941,-3.6941,-3.6941,-3.6941,-3.6794,-3.6513,-3.65,-3.6219,-3.5645,-3.5939,-3.5765,-3.5204,-3.5498,-3.5311,0.0,0.0,0.0,0.0,-3.4456,-3.467,-3.5164,-3.4883,-3.4937,-3.5151,-3.487,-3.495,-3.5191,-3.5191,-3.5191,-3.5191,-3.5191,-3.5191,-3.5191,-3.5191,-3.4776,-3.4255,-3.3975,-3.3654,-3.3414,-3.3414,-3.3414,-3.3414,-3.3414,-3.3414,-3.3414,-3.3414,-3.3414,-3.3414,-3.3414,-3.3414,-3.34,-3.34,-3.316,-3.2973,-3.2973,-3.2732,-3.2545,-3.2545,-3.2545,-3.2545,-3.2545,-3.2278,-3.1984,-3.169,-3.1664,-3.1664,-3.1664,-3.1664,-3.1664,-3.1664,-3.1664,-3.1797,-3.2091,-3.1517,-3.137,-3.165,-3.1076,-3.0795,-3.0782,-3.0488,-3.0207,-3.1276,-3.2118,-3.2385,-3.1423,-3.0221,-2.9072,-2.819,-2.6707,-2.5491,-2.5398,-2.5224,-2.5024,-2.481,-2.5424,-2.6079,-2.6466,-2.7014,-2.7816,-2.8991,0.0,0.0,0.0,0.0,0.0,0.0,0.0,0.0,0.0,0.0,0.0,0.0,0.0,-3.6941,-3.6941,-3.6941,-3.6794,-3.65,-3.6313,-3.6019,-3.5631,-3.5725,-3.5565,-3.5204,-3.5498,0.0,0.0,0.0,0.0,0.0,-3.467,-3.4736,-3.491,-3.5017,-3.5124,-3.5191,-3.5097,-3.5124,-3.5191,-3.5191,-3.5191,-3.5191,-3.5191,-3.5191,-3.5164,-3.4963,-3.4763,-3.4563,-3.4269,-3.4108,-3.3988,-3.3788,-3.3574,-3.3414,-3.3414,-3.3414,-3.3414,-3.3414,-3.3414,-3.3414,-3.3414,-3.3414,-3.3414,-3.3414,-3.3334,-3.328,-3.328,-3.32,-3.3133,-3.3133,-3.2959,-3.2839,-3.2839,-3.2585,-3.2278,-3.1984,-3.1784,-3.1664,-3.1664,-3.1664,-3.1664,-3.1664,-3.1664,-3.1717,-3.1797,-3.1623,-3.1476,-3.137,-3.1583,-3.1583,-3.137,-3.0688,-3.0314,0.0,-3.0247,-3.0742,-3.0087,-2.9259,-2.8417,-2.7696,-2.6493,-2.5478,-2.5371,-2.5117,-2.489,-2.4823,-2.5344,-2.5919,-2.6319,-2.6881,-2.7575,-2.8484,0.0,0.0,0.0,0.0,0.0,0.0,0.0,0.0,0.0,0.0,0.0,0.0,0.0,-3.6941,-3.6941,-3.6941,-3.6754,-3.6353,-3.6166,-3.5872,-3.5471,-3.5578,-3.5471,-3.5204,-3.5498,0.0,0.0,0.0,0.0,0.0,-3.4683,-3.4723,-3.495,-3.5124,-3.5191,-3.5191,-3.5191,-3.5191,-3.5191,-3.5191,-3.5191,-3.5191,-3.5191,-3.5191,-3.5164,-3.4977,-3.4696,-3.4416,-3.4349,-3.4148,-3.3935,-3.3748,-3.3561,-3.3414,-3.3414,-3.3414,-3.3414,-3.3414,-3.3414,-3.3414,-3.3414,-3.3414,-3.3414,-3.3414,-3.3414,-3.3414,-3.3414,-3.3414,-3.3414,-3.3414,-3.3253,-3.3146,-3.3146,-3.2879,-3.2639,-3.2452,-3.2171,-3.1904,-3.1677,-3.177,-3.1784,-3.1677,-3.1664,-3.1717,-3.1837,-3.1717,-3.1637,-3.1557,-3.1917,-3.2011,-3.1824,-3.1156,-3.0795,0.0,-2.8657,-2.9887,-2.9606,-2.8938,-2.8136,-2.7321,-2.6279,0.0,-2.513,-2.4877,-2.477,-2.5037,-2.5344,-2.5758,-2.6306,-2.6881,-2.7575,-2.8484,-2.9993,0.0,0.0,0.0,0.0,0.0,0.0,0.0,0.0,0.0,0.0,0.0,0.0,-3.6941,-3.6941,-3.6941,-3.6687,-3.6112,-3.6086,-3.5792,-3.5231,-3.5471,-3.5458,-3.5204,-3.5471,0.0,0.0,0.0,0.0,0.0,-3.4616,-3.4696,-3.5191,-3.5191,-3.5191,-3.5191,-3.5191,-3.5191,-3.5191,-3.5191,-3.5191,-3.5191,-3.5191,-3.5191,-3.5191,-3.5191,-3.4629,-3.4042,-3.4309,-3.3948,-3.348,-3.348,-3.344,-3.3414,-3.3414,-3.3414,-3.3414,-3.3414,-3.3414,-3.3414,-3.3414,-3.3414,-3.3414,-3.3414,-3.3414,-3.3414,-3.3414,-3.3414,-3.3414,-3.3414,-3.3414,-3.3414,-3.3414,-3.3173,-3.3,-3.2973,-3.2706,-3.2305,-3.173,-3.1957,-3.1971,-3.1677,-3.1664,-3.1797,-3.2064,-3.181,-3.1824,-3.2131,-3.2118,-3.2118,-3.2158,-3.1851,-3.1557,-2.4462,0.0,-2.5959,-2.5892,-2.5892,-2.5919,0.0,-2.5545,0.0,0.0,0.0,0.0,0.0,-2.5678,-2.6226,-2.6373,-2.6881,-2.7575,-2.8484,0.0,0.0,0.0,0.0,0.0,0.0,0.0,0.0,0.0,0.0,0.0,0.0,0.0,-3.6941,-3.6941,-3.6941,-3.6754,-3.6393,-3.6179,-3.5885,-3.5525,-3.5378,-3.5257,-3.5204,-3.5271,0.0,0.0,0.0,0.0,-3.5498,-3.5137,-3.507,-3.5191,-3.5191,-3.5191,-3.5191,-3.5191,-3.5191,-3.5191,-3.5191,-3.5191,-3.5191,-3.5191,-3.5191,-3.5191,-3.5191,-3.5057,-3.4897,-3.4977,-3.4563,-3.4108,-3.4108,-3.3761,-3.3414,-3.3414,-3.3414,-3.3414,-3.3414,-3.3414,-3.3414,-3.3414,-3.3414,-3.3414,-3.3414,-3.3414,-3.3414,-3.3414,-3.3414,-3.3414,-3.3414,-3.3414,-3.3414,-3.3414,-3.3347,-3.3213,-3.3,-3.2706,-3.2385,-3.2024,-3.2064,-3.1971,-3.1677,-3.1664,-3.1704,-3.177,-3.1704,-3.1931,-3.2438,-3.2211,-3.2332,-3.2759,-3.2238,-3.1957,-2.3313,-2.3981,-2.4676,-2.481,-2.5064,-2.5291,-2.5304,0.0,0.0,0.0,0.0,0.0,0.0,0.0,0.0,-2.6547,-2.7081,-2.8056,0.0,0.0,0.0,0.0,0.0,0.0,0.0,0.0,0.0,0.0,0.0,0.0,0.0,0.0,-3.6941,-3.6941,-3.6941,-3.6794,-3.65,-3.6219,-3.5925,-3.5631,-3.5338,-3.5271,-3.5391,-3.5391,0.0,0.0,0.0,0.0,-3.5805,-3.5364,-3.5271,-3.5378,-3.5244,-3.5191,-3.5191,-3.5191,-3.5191,-3.5191,-3.5191,-3.5191,-3.5191,-3.5191,-3.4544,-3.3684,-3.3684,-3.2823,-3.2361,-3.4386,-3.467,-3.4322,-3.4322,-3.4082,-3.3828,-3.3828,-3.3828,-3.3828,-3.3828,-3.3721,-3.3627,-3.3627,-3.3507,-3.3414,-3.3414,-3.3414,-3.3467,-3.3614,-3.3507,-3.3467,-3.3614,-3.3507,-3.3414,-3.3414,-3.3414,-3.3347,-3.3187,-3.3026,-3.2706,-3.2144,-3.2225,-3.2118,-3.169,-3.1664,-3.1664,-3.1664,-3.1664,-3.1891,-3.2345,-3.2185,-3.2398,-3.2959,-3.2372,-3.2251,-2.2926,-2.3728,-2.4623,-2.4823,-2.5104,-2.5264,-2.5064,0.0,0.0,0.0,0.0,0.0,0.0,0.0,0.0,0.0,0.0,0.0,0.0,0.0,0.0,0.0,0.0,0.0,0.0,0.0,0.0,0.0,0.0,0.0,0.0,0.0,0.0,-3.6941,-3.6941,-3.6794,-3.65,-3.6219,-3.5952,-3.5698,-3.5404,-3.5418,-3.5698,-3.5698,-3.5859,0.0,0.0,0.0,-3.6099,-3.5511,-3.5404,-3.5605,-3.5311,-3.5191,-3.5191,-3.5151,-3.5137,-3.5137,-3.5137,-3.494,-3.4755,-3.4755,-3.3035,-3.1095,-3.1095,-2.9811,-2.9123,-3.2759,-3.3772,-3.3963,-3.4183,-3.4349,-3.4322,-3.4322,-3.4322,-3.4322,-3.4322,-3.4095,-3.3895,-3.3948,-3.3654,-3.344,-3.3534,-3.3507,-3.3587,-3.3908,-3.3721,-3.3654,-3.3921,-3.3721,-3.3534,-3.3494,-3.348,-3.3467,-3.3414,-3.3414,-3.308,-3.2291,-3.2478,-3.2372,-3.1824,-3.1757,-3.173,-3.173,-3.169,-3.181,-3.2104,-3.2104,-3.2385,-3.2906,-3.2398,-3.2438,-2.318,-2.3754,-2.4222,-2.4022,-2.4195,-2.4462,0.0,0.0,0.0,0.0,0.0,0.0,0.0,0.0,0.0,0.0,0.0,0.0,0.0,0.0,0.0,0.0,0.0,0.0,0.0,0.0,0.0,0.0,0.0,0.0,0.0,0.0,0.0,-3.6941,-3.6941,-3.6794,-3.65,-3.6219,-3.6046,-3.6006,-3.5698,-3.5725,-3.6006,-3.6006,-3.6166,0.0,0.0,-3.6166,-3.6393,-3.5805,-3.5591,-3.5605,-3.5311,-3.5191,-3.5164,-3.4923,-3.483,-3.483,-3.483,-3.3703,-3.2173,-3.2173,-3.0667,-2.8737,-2.8737,-2.8522,-2.8511,-2.9123,-3.0422,-3.2139,-3.4267,-3.4509,-3.4322,-3.4322,-3.4322,-3.4322,-3.4322,-3.4095,-3.3961,-3.4202,-3.3801,-3.3574,-3.4095,-3.3975,-3.3921,-3.4202,-3.4215,-3.4202,-3.4242,-3.4215,-3.4082,-3.3841,-3.3814,-3.3708,-3.3427,-3.3414,-3.3253,-3.2866,-3.2893,-3.2759,-3.2425,-3.2171,-3.2038,-3.2038,-3.1797,-3.181,-3.2104,-3.2104,-3.2278,-3.2612,-3.2519,-3.2532,-2.2846,-2.3394,-2.3981,-2.3995,-2.4462,-2.4903,0.0,0.0,0.0,0.0,0.0,0.0,0.0,0.0,0.0,0.0,0.0,0.0,0.0,0.0,0.0,0.0,0.0,0.0,0.0,0.0,0.0,0.0,0.0,0.0,0.0,0.0,0.0,0.0,-3.6941,-3.6794,-3.65,-3.6366,-3.6233,-3.6072,-3.5939,-3.6019,-3.6313,-3.6313,-3.638,-3.65,0.0,-3.6286,-3.6233,-3.5805,-3.5538,-3.5364,-3.5084,-3.487,-3.4515,-3.3262,-3.2843,-3.2646,-3.1729,-3.0574,-2.9811,-2.9811,-2.8296,-2.6363,-2.6363,-2.5496,-2.4844,-2.6146,-2.8006,-3.028,-3.2636,-3.297,-3.3262,-3.4382,-3.4683,-3.475,-3.4589,-3.4456,-3.4402,-3.4536,-3.4202,-3.3988,-3.4269,-3.4202,-3.4215,-3.4509,-3.4429,-3.4376,-3.4536,-3.4416,-3.4202,-3.3921,-3.3881,-3.3761,-3.344,-3.3414,-3.3293,-3.3,-3.2826,-3.2612,-3.2318,-3.2171,-3.2024,-3.1877,-3.1744,-3.173,-3.1864,-3.1864,-3.2024,-3.2305,-3.2144,-3.2238,-2.2672,-2.3233,-2.3941,-2.4235,0.0,0.0,0.0,0.0,0.0,0.0,0.0,0.0,0.0,0.0,0.0,0.0,0.0,0.0,0.0,0.0,0.0,0.0,0.0,0.0,0.0,0.0,0.0,0.0,0.0,0.0,0.0,0.0,0.0,0.0,-3.6941,-3.6794,-3.65,-3.658,-3.6473,-3.6179,-3.6179,-3.6286,-3.65,-3.65,-3.6473,-3.6393,-3.6326,-3.6139,-3.5845,-3.5551,-3.5257,-3.4977,-3.475,-3.4482,-3.4037,-3.1929,-3.1155,-3.0772,-2.8834,-2.7653,-2.7287,-2.734,-2.5851,-2.3928,-2.3974,-2.2682,-2.1814,-2.3547,-2.525,-2.7371,-3.0858,-3.1698,-3.2238,-3.4386,-3.4937,-3.503,-3.4817,-3.4763,-3.479,-3.4857,-3.4629,-3.4442,-3.4509,-3.4523,-3.4603,-3.483,-3.467,-3.4603,-3.483,-3.467,-3.4389,-3.4028,-3.3988,-3.3828,-3.344,-3.3414,-3.332,-3.3093,-3.2866,-3.2612,-3.2318,-3.2238,-3.2064,-3.1784,-3.1704,-3.1664,-3.1664,-3.1664,-3.1784,-3.1998,-3.177,-3.1917,-2.3193,-2.3701,-2.4249,-2.4529,0.0,0.0,0.0,0.0,0.0,0.0,0.0,0.0,0.0,0.0,0.0,0.0,0.0,0.0,0.0,0.0,0.0,0.0,0.0,0.0,0.0,0.0,0.0,0.0,0.0,0.0,0.0,0.0,0.0,0.0,0.0,-3.6794,-3.65,-3.6754,-3.6754,-3.6473,-3.6473,-3.6473,-3.65,-3.65,-3.6353,-3.6086,-3.5819,-3.5525,-3.5231,-3.495,-3.4656,-3.4376,-3.4362,-3.4175,-3.3705,-3.1433,-3.06,-3.0394,-2.8124,-2.619,-2.4721,-2.4709,-2.3287,-2.139,-2.1546,-2.1612,-2.1384,-2.1595,-2.1698,-2.3107,-2.9957,-3.1566,-3.2016,-3.4333,-3.4776,-3.479,-3.4763,-3.4763,-3.4843,-3.511,-3.4923,-3.4817,-3.5084,-3.5137,-3.5137,-3.5164,-3.5151,-3.5137,-3.5164,-3.5151,-3.491,-3.4349,-3.4282,-3.4055,-3.3467,-3.3414,-3.34,-3.3387,-3.336,-3.3213,-3.2933,-3.2652,-3.2372,-3.2078,-3.181,-3.1664,-3.1664,-3.1664,-3.1677,-3.1704,-3.1677,-3.169,-2.2779,-2.346,0.0,0.0,0.0,0.0,0.0,0.0,0.0,0.0,0.0,0.0,0.0,0.0,0.0,0.0,0.0,0.0,0.0,0.0,0.0,0.0,0.0,0.0,0.0,0.0,0.0,0.0,0.0,0.0,0.0,0.0,0.0,0.0,0.0,-3.6901,-3.6754,-3.6874,-3.6874,-3.6754,-3.658,-3.65,-3.65,-3.6313,-3.6072,-3.5778,-3.5485,-3.5191,-3.491,-3.4616,-3.4322,-3.4028,-3.3828,-3.2859,-3.1566,-3.0684,-2.8677,-2.6421,-2.5521,-2.4027,-2.2311,-2.238,-2.1841,-2.1295,-2.136,-2.1384,-2.1384,-2.1384,-2.1343,-2.2134,-2.6162,-2.811,-2.9198,-3.0049,-3.2717,-3.4333,-3.2843,-3.3836,-3.507,-3.5177,-3.511,-3.507,-3.5177,-3.5191,-3.5191,-3.5191,-3.5191,-3.5191,-3.5191,-3.5191,-3.4977,-3.4376,-3.3975,-3.3668,-3.3427,-3.3414,-3.3414,-3.3414,-3.3414,-3.328,-3.2986,-3.2706,-3.2412,-3.2104,-3.1824,-3.1664,-3.1664,-3.1664,-3.1664,-3.1664,-3.1664,-3.1664,-2.2498,-2.322,-2.4155,0.0,0.0,0.0,0.0,0.0,0.0,0.0,0.0,0.0,0.0,0.0,0.0,0.0,0.0,0.0,0.0,0.0,0.0,0.0,0.0,0.0,0.0,0.0,0.0,0.0,0.0,0.0,0.0,0.0,0.0,0.0,0.0,0.0,-3.6941,-3.6941,-3.6941,-3.6941,-3.654,-3.6366,-3.6353,-3.5965,-3.5631,-3.5338,-3.5044,-3.4803,-3.4603,-3.3459,-3.2597,-3.1767,-3.1478,-3.0404,-2.9052,-2.8518,-2.6285,-2.3624,-2.3144,-2.2027,-2.0889,-2.1002,-2.1116,-2.1238,-2.1343,-2.1384,-2.1384,-2.1384,-2.1343,-2.1707,-2.308,-2.5069,-2.6849,-2.7493,-3.0796,-3.3262,-3.1559,-3.3269,-3.5191,-3.5191,-3.5271,-3.5338,-3.5338,-3.5338,-3.5338,-3.5338,-3.5257,-3.5191,-3.5191,-3.5124,-3.483,-3.4242,-3.3721,-3.3414,-3.3414,-3.3414,-3.3414,-3.3414,-3.3414,-3.328,-3.2986,-3.2786,-3.2505,-3.2104,-3.1904,-3.1757,-3.1664,-3.1664,-3.1664,-3.1664,-3.1664,-3.1664,-2.2498,-2.3086,0.0,0.0,0.0,0.0,0.0,0.0,0.0,0.0,0.0,0.0,0.0,0.0,0.0,0.0,0.0,0.0,0.0,0.0,0.0,0.0,0.0,0.0,0.0,0.0,0.0,0.0,0.0,0.0,0.0,0.0,0.0,0.0,0.0,0.0,-3.6941,-3.6941,-3.6941,-3.6941,-3.6353,-3.6072,-3.6059,-3.5458,-3.503,-3.475,-3.4442,-3.4322,-3.4077,-3.17,-2.9295,-2.7001,-2.6971,-2.7015,-2.6783,-2.451,-2.3616,-2.3202,-2.1145,-2.032,-2.0385,-2.0742,-2.0856,-2.0921,-2.1278,-2.1384,-2.1384,-2.1384,-2.1254,-2.1124,-2.1132,-2.2829,-2.4952,-2.7313,-2.9648,-3.1348,-3.1138,-3.3269,-3.5191,-3.5191,-3.5431,-3.5618,-3.5618,-3.5618,-3.5631,-3.5618,-3.5378,-3.5191,-3.5191,-3.4937,-3.4536,-3.3948,-3.3601,-3.3414,-3.3414,-3.3414,-3.3414,-3.3414,-3.3414,-3.328,-3.2986,-3.2973,-3.2706,-3.2118,-3.2104,-3.1957,-3.1664,-3.1664,-3.1664,-3.1664,-3.1664,-3.1664,-2.2619,-2.3233,0.0,0.0,0.0,0.0,0.0,0.0,0.0,0.0,0.0,0.0,0.0,0.0,0.0,0.0,0.0,0.0,0.0,0.0,0.0,0.0,0.0,0.0,0.0,0.0,0.0,0.0,0.0,0.0,0.0,0.0,0.0,0.0,0.0,0.0,-3.6941,-3.6727,-3.6647,-3.662,-3.6046,-3.5872,-3.6046,-3.5257,-3.4843,-3.4736,-3.4229,-3.4015,-3.3784,-3.1413,-2.9144,-2.7012,-2.7155,-2.613,-2.4943,-2.5705,-2.3937,-2.1345,-2.2374,-2.1647,-2.0556,-2.0783,-2.0937,-2.1092,-2.1319,-2.1384,-2.1384,-2.1384,-2.1254,-2.1157,-2.1278,-2.1649,-2.219,-2.3054,-2.6032,-2.842,-2.7093,-2.8682,-3.0881,-3.2385,-3.1593,-3.1427,-3.4675,-3.4025,-3.3374,-3.5112,-3.5244,-3.5124,-3.4923,-3.4456,-3.4082,-3.3908,-3.3601,-3.3414,-3.3414,-3.3414,-3.3414,-3.3414,-3.3414,-3.3374,-3.328,-3.3093,-3.2799,-3.2425,-3.2211,-3.1957,-3.1664,-3.1664,-3.1664,-3.1664,-3.1664,-3.1664,-2.2859,0.0,0.0,0.0,0.0,0.0,0.0,0.0,0.0,0.0,0.0,0.0,0.0,0.0,0.0,0.0,0.0,0.0,0.0,0.0,0.0,0.0,0.0,0.0,0.0,0.0,0.0,0.0,0.0,0.0,0.0,0.0,0.0,0.0,0.0,0.0,-3.6754,-3.658,-3.6433,-3.6326,-3.5859,-3.5658,-3.5698,-3.4937,-3.4656,-3.4736,-3.4269,-3.289,-3.1006,-2.9711,-2.7307,-2.4526,-2.4439,-2.3634,-2.266,-2.4032,-2.268,-2.0529,-2.176,-2.1421,-2.0523,-2.0775,-2.0929,-2.1067,-2.1319,-2.1384,-2.1384,-2.1384,-2.1319,-2.1254,-2.136,-2.1295,-2.123,-2.123,-2.4026,-2.6418,-2.5042,-2.6579,-2.8726,-3.0025,-2.9156,-2.9189,-3.2106,-3.138,-3.113,-3.3625,-3.3974,-3.3716,-3.3201,-3.2106,-3.1675,-3.2289,-3.2299,-3.2397,-3.3414,-3.3414,-3.3414,-3.3414,-3.3414,-3.3414,-3.3414,-3.324,-3.2959,-3.2559,-3.2372,-3.2078,-3.1664,-3.1664,-3.1664,-3.1664,-3.1664,-3.1664,-2.318,0.0,0.0,0.0,0.0,0.0,0.0,0.0,0.0,0.0,0.0,0.0,0.0,0.0,0.0,0.0,0.0,0.0,0.0,0.0,0.0,0.0,0.0,0.0,0.0,0.0,0.0,0.0,0.0,0.0,0.0,0.0,0.0,0.0,0.0,0.0,-3.65,-3.6473,-3.6286,0.0,-3.5698,-3.5418,-3.5137,-3.4603,-3.4482,-3.467,-3.4156,-3.1228,-2.6885,-2.6894,-2.4516,-2.058,-2.0409,-2.045,-2.0572,-2.0409,-2.0336,-2.032,-2.032,-2.0328,-2.0401,-2.0726,-2.0848,-2.0937,-2.1254,-2.136,-2.1384,-2.1384,-2.136,-2.136,-2.1384,-2.136,-2.136,-2.1384,-2.2909,-2.4418,-2.4418,-2.6146,-2.7649,-2.7865,-2.7876,-2.7939,-2.8576,-2.8219,-2.8803,-3.1414,-3.1617,-3.1162,-3.0672,-2.887,-2.8191,-2.9999,-3.0153,-3.0974,-3.3,-3.3213,-3.3414,-3.3414,-3.3414,-3.3414,-3.3414,-3.3414,-3.3133,-3.2559,-3.2545,-3.2251,-3.1664,-3.1664,-3.1664,-3.1664,-3.1664,-3.1664,0.0,0.0,0.0,0.0,0.0,0.0,0.0,0.0,0.0,0.0,0.0,0.0,0.0,0.0,0.0,0.0,0.0,0.0,0.0,0.0,0.0,0.0,0.0,0.0,0.0,0.0,0.0,0.0,0.0,0.0,0.0,0.0,0.0,0.0,0.0,-3.6273,-3.65,-3.6046,-3.5792,0.0,-3.5204,-3.4923,-3.4857,-3.4723,-3.4456,-3.4055,-3.1895,-2.9436,-2.667,-2.5089,-2.2952,-2.0596,-2.0556,-2.0564,-2.0596,-2.0556,-2.0442,-2.032,-2.032,-2.0418,-2.0547,-2.0629,-2.084,-2.1083,-2.1157,-2.1278,-2.1384,-2.1384,-2.1278,-2.1213,-2.1343,-2.1278,-2.1213,-2.1343,-2.1814,-2.2034,-2.2034,-2.2472,-2.3346,-2.5288,-2.4201,-2.3992,-2.7723,-2.6826,-2.6383,-2.8803,-2.869,-2.8926,-3.0658,-2.8677,-2.7813,-2.9963,-3.0153,-3.0356,-3.0772,-3.2397,-3.3414,-3.3414,-3.3414,-3.3414,-3.3414,-3.3414,-3.3133,-3.2559,-3.2545,-3.2251,-3.1664,-3.1664,-3.1664,-3.1664,-3.1664,-3.1664,0.0,0.0,0.0,0.0,0.0,0.0,0.0,0.0,0.0,0.0,0.0,0.0,0.0,0.0,0.0,0.0,0.0,0.0,0.0,0.0,0.0,0.0,0.0,0.0,0.0,0.0,0.0,0.0,0.0,0.0,0.0,0.0,0.0,0.0,-3.6126,-3.6219,-3.6086,-3.5778,-3.5485,-3.5204,-3.491,-3.4254,-3.3057,-3.4122,-3.3599,-3.2023,-3.0969,-2.8416,-2.5245,-2.4019,-2.2437,-2.0466,-2.0466,-2.0466,-2.0466,-2.0466,-2.0401,-2.032,-2.032,-2.0385,-2.0491,-2.0661,-2.0848,-2.1027,-2.1197,-2.1319,-2.1384,-2.1384,-2.1319,-2.1278,-2.136,-2.1319,-2.1278,-2.136,-2.1384,-2.1384,-2.1384,-2.1384,-2.1814,-2.29,-2.2253,-2.2253,-2.4627,-2.4854,-2.5221,-2.6072,-2.6044,-2.6441,-2.7284,-2.527,-2.4746,-2.6896,-2.709,-2.7498,-2.8518,-2.9736,-3.0343,-3.0343,-3.0343,-3.0748,-3.1781,-3.1781,-3.2125,-3.2559,-3.2545,-3.2251,-3.1664,-3.1664,-3.1664,-3.1664,-3.1664,-3.1664,0.0,0.0,0.0,0.0,0.0,0.0,0.0,0.0,0.0,0.0,0.0,0.0,0.0,0.0,0.0,0.0,0.0,0.0,0.0,0.0,0.0,0.0,0.0,0.0,0.0,0.0,0.0,0.0,0.0,0.0,0.0,0.0,-3.5885,-3.5631,-3.6059,-3.6072,-3.5631,-3.5485,-3.5191,-3.4763,-3.4656,-3.3395,-3.1012,-3.2699,-3.2264,-2.9616,-2.9577,-2.7263,-2.3616,-2.3202,-2.1968,-2.032,-2.032,-2.032,-2.032,-2.032,-2.032,-2.032,-2.032,-2.0344,-2.0409,-2.0677,-2.0799,-2.0905,-2.1205,-2.1319,-2.1343,-2.1384,-2.1384,-2.1384,-2.1384,-2.1384,-2.1384,-2.1384,-2.1384,-2.1384,-2.1384,-2.1384,-2.1384,-2.1384,-2.1384,-2.1384,-2.1384,-2.2883,-2.4053,-2.3741,-2.375,-2.3834,-2.3776,-2.1943,-2.1323,-2.3428,-2.3606,-2.4432,-2.6261,-2.667,-2.6875,-2.6875,-2.6875,-2.7895,-3.0153,-2.9748,-3.0514,-3.2559,-3.2545,-3.2251,-3.1664,-3.1664,-3.1664,-3.1664,-3.1664,-3.1664,0.0,0.0,0.0,0.0,0.0,0.0,0.0,0.0,0.0,0.0,0.0,0.0,0.0,0.0,0.0,0.0,0.0,0.0,0.0,0.0,0.0,0.0,0.0,0.0,0.0,0.0,0.0,0.0,0.0,0.0,0.0,-3.5525,-3.5672,-3.5631,-3.5458,-3.5458,-3.5631,-3.487,-3.4589,-3.475,-3.4255,-3.2812,-3.0262,-3.0668,-2.9723,-2.7578,-2.5356,-2.4254,-2.3409,-2.1552,-2.0529,-2.032,-2.032,-2.032,-2.032,-2.032,-2.032,-2.032,-2.032,-2.0426,-2.0539,-2.0426,-2.0604,-2.0864,-2.0913,-2.1035,-2.1197,-2.1343,-2.1384,-2.1384,-2.1384,-2.1384,-2.1384,-2.1384,-2.1384,-2.1384,-2.1384,-2.1384,-2.1384,-2.1384,-2.1384,-2.1384,-2.1384,-2.148,-2.1624,-2.1732,-2.1367,-2.1737,-2.3713,-2.1777,-2.117,-2.3409,-2.3606,-2.3813,-2.4019,-2.5851,-2.6875,-2.6875,-2.6875,-2.7895,-3.0153,-2.8303,-2.9084,-3.2559,-3.2545,-3.2251,-3.1664,-3.1664,-3.1664,-3.1664,-3.1664,-3.1664,0.0,0.0,0.0,0.0,0.0,0.0,0.0,0.0,0.0,0.0,0.0,0.0,0.0,0.0,0.0,0.0,0.0,0.0,0.0,0.0,0.0,0.0,0.0,0.0,0.0,0.0,0.0,0.0,0.0,0.0,-3.5191,-3.5471,-3.5485,-3.5151,-3.5177,-3.5097,-3.4897,-3.4509,-3.4309,-3.4269,-3.2596,-3.068,-2.8314,-2.709,-2.6118,-2.517,-2.4058,-2.2995,-2.176,-2.0729,-2.032,-2.032,-2.032,-2.032,-2.032,-2.032,-2.032,-2.032,-2.032,-2.0377,-2.0442,-2.0466,-2.058,-2.0751,-2.0945,-2.1067,-2.1165,-2.1343,-2.1384,-2.1384,-2.1384,-2.1384,-2.1384,-2.1384,-2.1384,-2.1384,-2.1384,-2.1384,-2.1384,-2.1384,-2.1384,-2.1384,-2.1384,-2.1319,-2.1254,-2.1246,-2.0954,-2.1151,-2.1966,-2.1104,-2.0729,-2.1552,-2.176,-2.176,-2.176,-2.2572,-2.3193,-2.3193,-2.3193,-2.4216,-2.6476,-2.5656,-2.6862,-3.0771,-3.0758,-3.1076,-3.1664,-3.1664,-3.1664,-3.1664,-3.1664,-3.1664,0.0,0.0,0.0,0.0,0.0,0.0,0.0,0.0,0.0,0.0,0.0,0.0,0.0,0.0,0.0,0.0,0.0,0.0,0.0,0.0,0.0,0.0,0.0,0.0,0.0,0.0,0.0,0.0,0.0,0.0,-3.5191,-3.5257,-3.5137,-3.4776,-3.483,-3.4696,-3.4322,-3.4242,-3.4055,-3.3761,-3.1276,-2.9127,-2.6875,-2.4628,-2.3202,-2.2788,-2.2788,-2.176,-2.032,-2.032,-2.032,-2.032,-2.032,-2.032,-2.032,-2.032,-2.032,-2.032,-2.032,-2.032,-2.0344,-2.0483,-2.0523,-2.058,-2.0897,-2.1027,-2.1092,-2.1278,-2.1343,-2.1384,-2.1319,-2.1343,-2.136,-2.1319,-2.1319,-2.1343,-2.1384,-2.1384,-2.1384,-2.1384,-2.1384,-2.1384,-2.1384,-2.1384,-2.1343,-2.1213,-2.1002,-2.0807,-2.0677,-2.0466,-2.032,-2.032,-2.032,-2.032,-2.032,-2.032,-2.032,-2.032,-2.032,-2.1353,-2.3606,-2.3606,-2.544,-2.9183,-2.9369,-3.0091,-3.1664,-3.1664,-3.1704,-3.1784,-3.1704,-3.1704,0.0,0.0,0.0,0.0,0.0,0.0,0.0,0.0,0.0,0.0,0.0,0.0,0.0,0.0,0.0,0.0,0.0,0.0,0.0,0.0,0.0,0.0,0.0,0.0,0.0,0.0,0.0,0.0,0.0,-3.491,-3.5177,-3.4683,-3.4509,-3.475,-3.4242,-3.4068,-3.4322,-3.4042,-3.3748,-3.344,-3.1176,-2.9127,-2.6875,-2.4628,-2.2374,-2.0529,-2.0529,-2.032,-2.032,-2.032,-2.032,-2.032,-2.032,-2.032,-2.032,-2.032,-2.032,-2.032,-2.032,-2.032,-2.032,-2.0328,-2.0336,-2.0369,-2.0564,-2.0734,-2.0905,-2.1092,-2.1254,-2.1343,-2.1181,-2.1254,-2.1343,-2.1181,-2.114,-2.1181,-2.1343,-2.1384,-2.1384,-2.1384,-2.1384,-2.1384,-2.1384,-2.1384,-2.1384,-2.136,-2.1075,-2.0848,-2.084,-2.0531,-2.032,-2.032,-2.032,-2.032,-2.032,-2.032,-2.032,-2.032,-2.032,-2.1353,-2.3606,-2.3606,-2.544,-2.9183,-2.9369,-3.0091,-3.1664,-3.1664,-3.181,-3.2078,-3.1797,-3.1824,0.0,0.0,0.0,0.0,0.0,0.0,0.0,0.0,0.0,0.0,0.0,0.0,0.0,0.0,0.0,0.0,0.0,0.0,0.0,0.0,0.0,0.0,0.0,0.0,0.0,0.0,0.0,0.0,0.0,0.0,-3.491,-3.4536,-3.4282,-3.4202,-3.4002,-3.3841,-3.3734,-3.3454,-3.2628,-3.1102,-3.0117,-2.7826,-2.4426,-2.375,-2.2186,-2.0166,-2.0271,-2.032,-2.032,-2.032,-2.032,-2.032,-2.032,-2.032,-2.032,-2.032,-2.032,-2.032,-2.032,-2.032,-2.032,-2.032,-2.032,-2.0353,-2.0539,-2.0637,-2.0726,-2.0905,-2.1083,-2.1205,-2.114,-2.1173,-2.1173,-2.0994,-2.1124,-2.1278,-2.123,-2.1295,-2.1384,-2.1384,-2.1384,-2.1384,-2.1384,-2.1384,-2.1384,-2.1384,-2.1083,-2.0856,-2.0856,-2.0539,-2.032,-2.032,-2.032,-2.032,-2.032,-2.032,-2.032,-2.032,-2.032,-2.0729,-2.1345,-2.2788,-2.4635,-2.718,-2.8567,-3.0178,-3.1944,-3.1757,-3.1824,-3.2091,-3.1797,-3.1717,0.0,0.0,0.0,0.0,0.0,0.0,0.0,0.0,0.0,0.0,0.0,0.0,0.0,0.0,0.0,0.0,0.0,0.0,0.0,0.0,0.0,0.0,0.0,0.0,0.0,0.0,0.0,0.0,0.0,0.0,-3.4603,-3.4229,-3.3881,-3.3587,-3.3681,-3.3534,-3.3133,-3.2419,-3.1112,-2.961,-2.8042,-2.5776,-2.3001,-2.2396,-2.1482,-2.0076,-2.0247,-2.032,-2.032,-2.032,-2.032,-2.032,-2.032,-2.032,-2.032,-2.032,-2.032,-2.032,-2.032,-2.032,-2.032,-2.032,-2.032,-2.0344,-2.0466,-2.0547,-2.0621,-2.0734,-2.0897,-2.1035,-2.1035,-2.1083,-2.1083,-2.0897,-2.1124,-2.1319,-2.1083,-2.1222,-2.1384,-2.1384,-2.1384,-2.1384,-2.1384,-2.1384,-2.1384,-2.1384,-2.1083,-2.0856,-2.0856,-2.0539,-2.032,-2.032,-2.032,-2.032,-2.032,-2.032,-2.032,-2.032,-2.032,-2.032,-2.032,-2.3193,-2.5033,-2.5976,-2.8962,-3.101,-3.2104,-3.1904,-3.1971,-3.2238,-3.1957,-3.1757,0.0,0.0,0.0,0.0,0.0,0.0,0.0,0.0,0.0,0.0,0.0,0.0,0.0,0.0,0.0,0.0,0.0,0.0,0.0,0.0,0.0,0.0,0.0,0.0,0.0,0.0,0.0,0.0,0.0,-3.4015,-3.4295,-3.3734,-3.328,-3.2986,-3.3253,-3.312,-3.2559,-3.08,-2.9797,-2.9332,-2.5167,-2.3174,-2.2983,-2.0986,-2.006,-2.0068,-2.0247,-2.032,-2.032,-2.032,-2.032,-2.032,-2.032,-2.032,-2.032,-2.032,-2.032,-2.032,-2.032,-2.032,-2.032,-2.032,-2.032,-2.032,-2.032,-2.0442,-2.0588,-2.0588,-2.0718,-2.0856,-2.0856,-2.0994,-2.1083,-2.0897,-2.1124,-2.1278,-2.0937,-2.114,-2.1384,-2.1384,-2.1384,-2.1384,-2.1384,-2.1384,-2.1384,-2.1384,-2.1083,-2.0856,-2.0856,-2.0547,-2.0328,-2.032,-2.032,-2.032,-2.032,-2.032,-2.032,-2.032,-2.032,-2.032,-2.032,-2.4628,-2.6648,-2.5986,-3.0365,-3.2412,-3.2131,-3.2104,-3.2238,-3.2532,-3.2225,-3.1944,-2.5157,0.0,0.0,0.0,0.0,0.0,0.0,-3.0034,0.0,0.0,0.0,0.0,0.0,0.0,0.0,0.0,0.0,0.0,0.0,0.0,0.0,0.0,0.0,0.0,0.0,0.0,0.0,0.0,-3.4055,-3.3921,-3.4002,-3.3627,-3.328,-3.2986,-3.3053,-3.2919,-3.2545,-3.1815,-2.9933,-2.6889,-2.5548,-2.3326,-2.0405,-2.0124,-1.9865,-1.9882,-2.019,-2.032,-2.032,-2.032,-2.032,-2.032,-2.032,-2.032,-2.032,-2.032,-2.032,-2.032,-2.032,-2.032,-2.032,-2.032,-2.032,-2.032,-2.032,-2.0353,-2.0393,-2.0393,-2.0612,-2.0889,-2.1019,-2.1181,-2.1238,-2.0929,-2.1124,-2.1319,-2.11,-2.123,-2.1384,-2.1384,-2.1384,-2.1384,-2.1384,-2.1384,-2.1384,-2.1384,-2.1197,-2.1002,-2.0872,-2.0661,-2.0466,-2.0336,-2.032,-2.032,-2.032,-2.032,-2.032,-2.032,-2.032,-2.032,-2.032,-2.4628,-2.6724,-2.6221,-3.064,-3.2812,-3.2732,-3.2104,-3.1944,-3.2211,-3.1931,-3.1744,0.0,0.0,0.0,0.0,0.0,0.0,-2.9045,-2.9299,-2.974,0.0,0.0,0.0,0.0,0.0,0.0,0.0,0.0,0.0,0.0,0.0,0.0,0.0,0.0,0.0,0.0,0.0,0.0,-3.3761,-3.3721,-3.3641,-3.3507,-3.3334,-3.304,-3.2625,-3.2732,-3.2599,-3.2185,-3.0354,-2.8315,-2.5669,-2.3786,-2.1594,-1.9272,-1.963,-1.9792,-1.9808,-2.0166,-2.032,-2.032,-2.032,-2.032,-2.032,-2.032,-2.032,-2.032,-2.032,-2.032,-2.032,-2.032,-2.032,-2.032,-2.032,-2.032,-2.032,-2.032,-2.032,-2.032,-2.032,-2.0523,-2.0775,-2.088,-2.1035,-2.1092,-2.0815,-2.0962,-2.1132,-2.1035,-2.1148,-2.1295,-2.136,-2.1384,-2.1384,-2.1384,-2.1384,-2.1384,-2.1384,-2.1238,-2.1059,-2.088,-2.0702,-2.0523,-2.0336,-2.032,-2.032,-2.032,-2.032,-2.032,-2.032,-2.032,-2.032,-2.032,-2.3606,-2.5747,-2.6317,-2.9743,-3.1853,-3.2612,-3.2225,-3.2064,-3.2091,-3.1797,-3.1664,0.0,0.0,0.0,0.0,0.0,0.0,-2.8991,-2.8938,-2.9005,0.0,0.0,0.0,0.0,0.0,0.0,0.0,0.0,0.0,0.0,0.0,0.0,0.0,0.0,0.0,0.0,-3.2933,-3.2933,-3.2933,-3.3173,-3.32,-3.2946,-3.2933,-3.2679,-3.2118,-3.2358,-3.2225,-3.1677,-2.8209,-2.6254,-2.5464,-2.179,-1.9849,-1.9272,-1.9605,-1.9768,-1.9808,-2.015,-2.0304,-2.032,-2.032,-2.032,-2.032,-2.032,-2.032,-2.032,-2.032,-2.032,-2.032,-2.032,-2.032,-2.032,-2.032,-2.032,-2.032,-2.032,-2.032,-2.032,-2.0344,-2.0466,-2.0604,-2.0621,-2.0742,-2.0815,-2.0661,-2.0742,-2.0856,-2.0856,-2.0978,-2.114,-2.1295,-2.136,-2.1384,-2.136,-2.136,-2.1384,-2.1384,-2.1254,-2.1083,-2.088,-2.0718,-2.0547,-2.0344,-2.032,-2.032,-2.032,-2.032,-2.032,-2.032,-2.032,-2.032,-2.032,-2.2374,-2.4539,-2.636,-2.8789,-3.0738,-3.2144,-3.2345,-3.2318,-3.2051,-3.1784,-3.1664,0.0,0.0,0.0,0.0,0.0,0.0,-2.7976,-2.8337,-2.8885,0.0,0.0,0.0,0.0,0.0,0.0,0.0,0.0,0.0,0.0,0.0,0.0,0.0,0.0,0.0,0.0,-3.2625,-3.2625,-3.2625,-3.2679,-3.2692,-3.2639,-3.2625,-3.2465,-3.2118,-3.2158,-3.2024,-3.1677,-3.0942,-2.8812,-2.5464,-2.4688,-2.2564,-1.9264,-1.9475,-1.9646,-1.98,-2.002,-2.019,-2.032,-2.032,-2.032,-2.032,-2.032,-2.032,-2.032,-2.032,-2.032,-2.032,-2.032,-2.032,-2.032,-2.032,-2.032,-2.032,-2.032,-2.032,-2.0353,-2.0499,-2.0572,-2.0629,-2.0767,-2.0832,-2.0848,-2.0807,-2.0832,-2.0856,-2.0856,-2.088,-2.0921,-2.0954,-2.1189,-2.1343,-2.1205,-2.1295,-2.1384,-2.1384,-2.136,-2.1222,-2.0897,-2.0824,-2.0677,-2.0353,-2.032,-2.032,-2.032,-2.032,-2.032,-2.032,-2.032,-2.032,-2.032,-2.2374,-2.4608,-2.6799,-3.0674,-3.263,-3.2452,-3.2038,-3.181,-3.1757,-3.169,-3.1664,0.0,0.0,0.0,-2.7228,0.0,0.0,0.0,-2.7829,-2.819,0.0,0.0,0.0,0.0,0.0,0.0,0.0,0.0,0.0,0.0,0.0,0.0,0.0,0.0,0.0,0.0,-3.2318,-3.2385,-3.2532,-3.2545,-3.2478,-3.2332,-3.2318,-3.2185,-3.1891,-3.1891,-3.1824,-3.1664,-3.07,-2.856,-2.5464,-2.4504,-2.2368,-1.9264,-1.9435,-1.9613,-1.98,-1.9987,-2.0166,-2.032,-2.032,-2.032,-2.032,-2.032,-2.032,-2.032,-2.032,-2.032,-2.032,-2.032,-2.032,-2.032,-2.032,-2.032,-2.032,-2.032,-2.032,-2.0336,-2.0434,-2.0458,-2.0474,-2.0564,-2.0588,-2.0588,-2.0588,-2.0588,-2.0612,-2.071,-2.0726,-2.0726,-2.0726,-2.0937,-2.1124,-2.1124,-2.1197,-2.1254,-2.1254,-2.1254,-2.1124,-2.0775,-2.0726,-2.0621,-2.0353,-2.032,-2.032,-2.032,-2.032,-2.032,-2.032,-2.032,-2.032,-2.032,-2.1345,-2.3606,-2.6875,-2.9888,-3.1827,-3.2545,-3.1957,-3.1664,-3.1664,-3.1664,-3.1664,0.0,0.0,0.0,0.0,0.0,-2.6974,0.0,0.0,0.0,0.0,0.0,0.0,0.0,0.0,0.0,0.0,0.0,0.0,0.0,0.0,0.0,0.0,0.0,0.0,0.0,-3.1627,-3.1719,-3.2358,-3.1983,-3.1878,-3.2038,-3.2024,-3.1904,-3.1677,-3.1664,-3.1664,-3.1664,-3.0115,-2.7984,-2.5464,-2.3726,-2.179,-1.9264,-1.9402,-1.9581,-1.98,-1.9946,-2.0133,-2.032,-2.032,-2.032,-2.032,-2.032,-2.032,-2.032,-2.032,-2.032,-2.032,-2.032,-2.032,-2.032,-2.032,-2.032,-2.032,-2.032,-2.032,-2.032,-2.032,-2.032,-2.032,-2.032,-2.032,-2.032,-2.032,-2.032,-2.0361,-2.0515,-2.0539,-2.0539,-2.0539,-2.0653,-2.0815,-2.1035,-2.11,-2.1124,-2.1124,-2.1124,-2.0994,-2.0645,-2.0596,-2.0523,-2.0336,-2.032,-2.032,-2.032,-2.032,-2.032,-2.032,-2.032,-2.032,-2.032,-2.1137,-2.3174,-2.6799,-2.8849,-3.0783,-3.2465,-3.1984,-3.1717,-3.1664,-3.1664,-3.1664,0.0,0.0,0.0,0.0,-2.6512,0.0,0.0,0.0,0.0,0.0,0.0,0.0,0.0,0.0,0.0,0.0,0.0,0.0,0.0,0.0,0.0,0.0,0.0,0.0,0.0,0.0,-2.9783,-3.158,-3.0013,-2.9808,-3.1717,-3.1717,-3.1704,-3.1664,-3.1664,-3.1664,-3.1664,-3.1474,-2.9338,-2.5464,-2.527,-2.3141,-1.9256,-1.9281,-1.9475,-1.9792,-1.9808,-2.0011,-2.032,-2.032,-2.032,-2.032,-2.032,-2.032,-2.032,-2.032,-2.032,-2.032,-2.032,-2.032,-2.032,-2.032,-2.032,-2.032,-2.032,-2.032,-2.032,-2.032,-2.032,-2.032,-2.032,-2.032,-2.032,-2.032,-2.032,-2.0328,-2.0344,-2.0353,-2.0353,-2.0353,-2.0369,-2.0491,-2.0824,-2.1019,-2.1124,-2.1124,-2.1124,-2.0994,-2.0645,-2.0596,-2.0523,-2.0336,-2.032,-2.032,-2.032,-2.032,-2.032,-2.032,-2.032,-2.032,-2.032,-2.401,-2.6155,-2.636,-3.0541,-3.247,-3.2158,-3.2091,-3.1917,-3.1664,-3.1664,-3.1664,0.0,0.0,0.0,0.0,0.0,0.0,0.0,0.0,-2.3984,0.0,0.0,0.0,0.0,0.0,0.0,0.0,0.0,0.0,0.0,0.0,0.0,0.0,0.0,0.0,0.0,0.0,0.0,0.0,0.0,-3.0622,-3.1423,-3.157,-3.1664,-3.1664,-3.0509,-2.9924,-2.9924,-2.8752,-2.6624,-2.3726,-2.3726,-2.2172,-1.9256,-1.9256,-1.9451,-1.9792,-1.9792,-1.9987,-2.032,-2.032,-2.0385,-2.0483,-2.0483,-2.0418,-2.0328,-2.0442,-2.0409,-2.032,-2.032,-2.032,-2.032,-2.032,-2.032,-2.032,-2.032,-2.032,-2.032,-2.032,-2.032,-2.032,-2.032,-2.032,-2.032,-2.032,-2.032,-2.032,-2.032,-2.032,-2.032,-2.032,-2.032,-2.0401,-2.0661,-2.0848,-2.0937,-2.0832,-2.0905,-2.084,-2.0483,-2.0434,-2.0409,-2.0328,-2.032,-2.032,-2.032,-2.032,-2.032,-2.032,-2.032,-2.032,-2.032,-2.2166,-2.3502,-2.4505,-2.7381,-2.9332,-3.0328,-3.1343,-3.1784,-3.1664,-3.1664,-3.1664,-2.2129,0.0,0.0,0.0,0.0,0.0,0.0,0.0,0.0,0.0,0.0,0.0,0.0,0.0,0.0,0.0,0.0,0.0,0.0,0.0,0.0,0.0,0.0,0.0,0.0,0.0,0.0,-2.9115,-2.9469,-2.9986,-3.0355,-3.1115,-3.1314,-3.089,-2.9338,-2.8368,-2.7792,-2.6238,-2.4494,-2.2368,-2.2368,-2.1397,-1.9256,-1.9256,-1.9427,-1.9719,-1.9768,-1.9963,-2.0255,-2.0353,-2.0474,-2.0604,-2.0702,-2.0604,-2.0409,-2.0547,-2.0483,-2.032,-2.032,-2.032,-2.032,-2.032,-2.032,-2.032,-2.032,-2.032,-2.032,-2.032,-2.032,-2.032,-2.032,-2.032,-2.032,-2.032,-2.032,-2.032,-2.032,-2.032,-2.032,-2.032,-2.032,-2.0361,-2.0499,-2.0669,-2.0742,-2.0612,-2.0702,-2.0669,-2.0361,-2.032,-2.032,-2.032,-2.032,-2.032,-2.032,-2.032,-2.032,-2.032,-2.0279,-2.0247,-2.0247,-2.0811,-2.1713,-2.3124,-2.4957,-2.6945,-2.885,-3.0217,-3.108,-3.1664,-3.1664,-3.1664,0.0,0.0,0.0,-2.1077,0.0,0.0,0.0,0.0,-1.7679,0.0,0.0,0.0,0.0,0.0,0.0,0.0,0.0,0.0,0.0,0.0,0.0,0.0,0.0,0.0,0.0,0.0,0.0,-2.5174,-2.4963,-2.5716,-2.7974,-2.987,-3.013,-2.8739,-2.856,-2.7599,-2.5658,-2.5464,-2.4494,-2.2368,-2.2368,-2.1397,-1.9256,-1.9256,-1.9354,-1.9532,-1.9711,-1.9898,-2.0101,-2.045,-2.0588,-2.0629,-2.0978,-2.0897,-2.0588,-2.0596,-2.0483,-2.032,-2.032,-2.032,-2.032,-2.032,-2.032,-2.032,-2.032,-2.032,-2.032,-2.032,-2.032,-2.032,-2.032,-2.032,-2.032,-2.032,-2.032,-2.032,-2.032,-2.032,-2.032,-2.032,-2.032,-2.032,-2.0328,-2.0483,-2.0604,-2.0596,-2.0604,-2.0531,-2.0344,-2.032,-2.032,-2.032,-2.032,-2.032,-2.032,-2.032,-2.032,-2.032,-2.0166,-2.0076,-2.0076,-2.1917,-2.2907,-2.269,-2.4846,-2.6883,-2.8572,-2.8764,-2.9721,-3.1664,-3.1664,-3.1664,0.0,0.0,-1.6842,-1.7395,0.0,0.0,0.0,0.0,0.0,0.0,0.0,0.0,0.0,0.0,0.0,-1.6845,-1.7159,0.0,0.0,0.0,0.0,0.0,0.0,0.0,0.0,0.0,0.0,-2.5924,-2.6235,-2.7256,-2.9105,-2.9085,-2.9454,-3.0213,-2.7889,-2.6238,-2.5464,-2.275,-2.1005,-2.0432,-2.0432,-2.0038,-1.9256,-1.9256,-1.9354,-1.9524,-1.9711,-1.9963,-2.0255,-2.0499,-2.0734,-2.0962,-2.1083,-2.0978,-2.0767,-2.0767,-2.058,-2.032,-2.032,-2.032,-2.032,-2.032,-2.032,-2.032,-2.032,-2.032,-2.032,-2.032,-2.032,-2.032,-2.032,-2.032,-2.032,-2.032,-2.032,-2.032,-2.032,-2.032,-2.032,-2.032,-2.032,-2.032,-2.032,-2.0369,-2.0409,-2.0409,-2.0515,-2.0531,-2.0344,-2.032,-2.032,-2.032,-2.032,-2.032,-2.032,-2.032,-2.0271,-2.0158,-2.0101,-2.0011,-1.989,-2.0629,-2.0897,-2.0499,-2.2661,-2.3936,-2.4494,-2.5851,-2.7599,-2.9542,-2.8176,-2.9147,-1.6044,-1.5746,0.0,-1.5229,-1.5949,0.0,-1.6423,0.0,0.0,0.0,0.0,0.0,0.0,0.0,0.0,-1.6476,-1.6689,-1.6954,0.0,-1.7049,0.0,0.0,0.0,0.0,0.0,0.0,-2.4558,-2.4075,-2.4966,-2.6009,0.0,0.0,-2.7928,-2.8956,-2.6556,-2.4992,-2.4494,-2.179,-2.0038,-1.9256,-1.9256,-1.9256,-1.9256,-1.9256,-1.9321,-1.9435,-1.9613,-1.9898,-2.0247,-2.0499,-2.0807,-2.1132,-2.1197,-2.1067,-2.0856,-2.0856,-2.0629,-2.032,-2.032,-2.032,-2.032,-2.032,-2.032,-2.032,-2.032,-2.032,-2.0344,-2.0474,-2.0418,-2.0353,-2.0474,-2.0418,-2.032,-2.032,-2.032,-2.032,-2.032,-2.032,-2.032,-2.032,-2.032,-2.032,-2.032,-2.032,-2.032,-2.032,-2.0426,-2.0458,-2.0336,-2.032,-2.032,-2.032,-2.032,-2.032,-2.032,-2.032,-2.0271,-2.0166,-2.0101,-2.0011,-1.9898,-1.976,-1.9695,-1.9711,-2.0898,-2.1785,-2.2586,-2.3796,-2.5464,-2.7407,-2.6045,-2.7407]}]]